LiveATC.Net - Listen to live air traffic control over the Internet!
Airport/ARTCC Code
Frequency Search
(e.g., 124.400, 128.75)
Site-wide search
 


Browse Feeds
Top 50 Feeds
HF Oceanic Feeds
Coverage Map
Bad Weather Areas

LiveATC FAQ
Offer LiveATC feed
Contact LiveATC.net
Press Inquiries

LiveATC on iPhone
LiveATC on Android

LiveATC Mobile
(Mobile browser)

ATC Audio Archives
Interesting Recordings

LiveATC Forums

Home Page
About LiveATC.net


Terms of Use
Privacy Policy

AIRMETs/SIGMETs

FAA Airport Status
NAS Status
Arrival Demand


Server Software By:
Icecast.org
Liquidsoap

Select an area of interest:
U.S. Feeds: Class B Airports | Class C Airports | Class D/Other Airports | ARTCC (Centers)
International Feeds: Canada | Europe | Oceania | Asia | South America | North/Central America | Africa
Misc Feeds: HF Feeds
Search by ICAO/IATA airport code:   (e.g., kbos, kjfk, lax, eham, etc.)


Currently Available Live Feeds: 3064
Status Updated: Thu Oct 06 2022 16:47:21 UTC


NOTICE

Unauthorized use prohibited. See LiveATC.net Terms of Service

U.S. Class B Airport Feeds

 

KDAL App/Dep (East Side North Low) (Archives)
Dallas, Texas, United States

Feed Status: UP
Listen in your browser - HTML5 player(in browser, HTML5)
Click here to listen with your own player(launches your MP3 player)

KDFW 061553Z 01005KT 10SM FEW120 FEW250 26/12 A3019 RMK AO2 SLP215 T02560117

KDFW Airport Info (Airnav.com)

KDFW Flight Activity (Flightaware)

Listeners: 3 out of 3020 total

Regional Approach/Departure (East Side/North Low): 124.300

KDAA/KADW Tower (Archives)
Camp Springs, Maryland, United States

Feed Status: UP
Listen in your browser - HTML5 player(in browser, HTML5)
Click here to listen with your own player(launches your MP3 player)

KDAA 061555Z AUTO 30005KT 10SM CLR 23/10 A3002 RMK AO2 SLP168 T02260097 $

KDAA Airport Info (Airnav.com)

KDAA Flight Activity (Flightaware)

Listeners: 2 out of 3020 total

Andrews Tower: 118.400
Andrews Tower: 349.000
Davison Tower: 241.000
Davison Tower: 126.300
Davison Tower: 229.400

KAPA App/Dep (Archives)
Denver, Colorado, United States

Feed Status: UP
Listen in your browser - HTML5 player(in browser, HTML5)
Click here to listen with your own player(launches your MP3 player)

KAPA 061553Z 00000KT 10SM FEW080 14/05 A3040 RMK AO2 SLP261 T01440050

KAPA Airport Info (Airnav.com)

KAPA Flight Activity (Flightaware)

Listeners: 0 out of 3020 total

Denver Approach/Departure: 132.750

Atlanta Approach (NW Satellite) (Archives)
Atlanta, Georgia, United States

Feed Status: UP
Listen in your browser - HTML5 player(in browser, HTML5)
Click here to listen with your own player(launches your MP3 player)

KRYY 061550Z 29004KT 10SM CLR 21/09 A3014 RMK AO2 SLP200 T02110094 $

KRYY Airport Info (Airnav.com)

KRYY Flight Activity (Flightaware)

Listeners: 1 out of 3020 total

Atlanta Approach (North Satellite): 121.000

Atlanta Approach (TAR NW) (Archives)
Atlanta, Georgia, United States

Feed Status: UP
Listen in your browser - HTML5 player(in browser, HTML5)
Click here to listen with your own player(launches your MP3 player)

KRYY 061550Z 29004KT 10SM CLR 21/09 A3014 RMK AO2 SLP200 T02110094 $

KRYY Airport Info (Airnav.com)

KRYY Flight Activity (Flightaware)

Listeners: 0 out of 3020 total

Atlanta Approach (TAR North): 128.000

KATL Approach (Center Final) (Archives)
Atlanta, Georgia, United States

Feed Status: UP
Listen in your browser - HTML5 player(in browser, HTML5)
Click here to listen with your own player(launches your MP3 player)

KCCO 061615Z AUTO 33006KT 10SM CLR 22/06 A3014 RMK AO2 T02180062

KCCO Airport Info (Airnav.com)

KCCO Flight Activity (Flightaware)

Listeners: 1 out of 3020 total

Atlanta Approach (ATL Center Final, Rwy 27L/9R): 124.600

KATL Approach (Final) (Archives)
Atlanta, Georgia, United States

Feed Status: UP
Listen in your browser - HTML5 player(in browser, HTML5)
Click here to listen with your own player(launches your MP3 player)

KATL 061556Z 32006KT 10SM FEW001 FEW250 22/09 A3013 RMK AO2 FU FEW001 FU PLUME S T02170089

KATL Airport Info (Airnav.com)

KATL Flight Activity (Flightaware)

Listeners: 1 out of 3020 total

Atlanta Approach (ATL Center Final, Rwy 27L/9R): 124.600
Atlanta Approach (Final Rwy 10/28): 118.350
Atlanta Approach (Final Rwy 26R/8L): 127.250

KATL Arrival ATIS (Archives)
Atlanta, Georgia, United States

Feed Status: UP
Listen in your browser - HTML5 player(in browser, HTML5)
Click here to listen with your own player(launches your MP3 player)

KATL 061556Z 32006KT 10SM FEW001 FEW250 22/09 A3013 RMK AO2 FU FEW001 FU PLUME S T02170089

KATL Airport Info (Airnav.com)

KATL Flight Activity (Flightaware)

Listeners: 1 out of 3020 total

Atlanta Arrival ATIS: 119.650

KATL Clearance Delivery (Archives)
Atlanta, Georgia, United States

Feed Status: UP
Listen in your browser - HTML5 player(in browser, HTML5)
Click here to listen with your own player(launches your MP3 player)

KATL 061556Z 32006KT 10SM FEW001 FEW250 22/09 A3013 RMK AO2 FU FEW001 FU PLUME S T02170089

KATL Airport Info (Airnav.com)

KATL Flight Activity (Flightaware)

Listeners: 0 out of 3020 total

Atlanta Clearance Delivery: 118.100

KATL Departure (Rwys 8/26) (Archives)
Atlanta, Georgia, United States

Feed Status: UP
Listen in your browser - HTML5 player(in browser, HTML5)
Click here to listen with your own player(launches your MP3 player)

KATL 061556Z 32006KT 10SM FEW001 FEW250 22/09 A3013 RMK AO2 FU FEW001 FU PLUME S T02170089

KATL Airport Info (Airnav.com)

KATL Flight Activity (Flightaware)

Listeners: 0 out of 3020 total

Atlanta Departure (North,Rwys 8/26): 125.700
Atlanta Departure (North,Rwys 8/26): 135.325

KATL Departure (Rwys 9/27) (Archives)
Atlanta, Georgia, United States

Feed Status: UP
Listen in your browser - HTML5 player(in browser, HTML5)
Click here to listen with your own player(launches your MP3 player)

KATL 061556Z 32006KT 10SM FEW001 FEW250 22/09 A3013 RMK AO2 FU FEW001 FU PLUME S T02170089

KATL Airport Info (Airnav.com)

KATL Flight Activity (Flightaware)

Listeners: 1 out of 3020 total

Atlanta Approach: 128.525
Atlanta Approach (North Satellite): 121.000
Atlanta Approach (SW Satellite): 119.800
Atlanta Departure: 125.650
Atlanta Departure: 135.700

KATL Departure ATIS (Archives)
Atlanta, Georgia, United States

Feed Status: UP
Listen in your browser - HTML5 player(in browser, HTML5)
Click here to listen with your own player(launches your MP3 player)

KATL 061556Z 32006KT 10SM FEW001 FEW250 22/09 A3013 RMK AO2 FU FEW001 FU PLUME S T02170089

KATL Airport Info (Airnav.com)

KATL Flight Activity (Flightaware)

Listeners: 0 out of 3020 total

Atlanta Departure ATIS: 125.550

KATL Ground (Archives)
Atlanta, Georgia, United States

Feed Status: UP
Listen in your browser - HTML5 player(in browser, HTML5)
Click here to listen with your own player(launches your MP3 player)

KATL 061556Z 32006KT 10SM FEW001 FEW250 22/09 A3013 RMK AO2 FU FEW001 FU PLUME S T02170089

KATL Airport Info (Airnav.com)

KATL Flight Activity (Flightaware)

Listeners: 3 out of 3020 total

Atlanta Ground (Rwy 10/28): 121.650
Atlanta Ground (Rwy 8/26): 121.900
Atlanta Ground (Rwy 9/27): 121.750

KATL Ground (Rwys 8/26 9/27) (Archives)
Atlanta, Georgia, United States

Feed Status: UP
Listen in your browser - HTML5 player(in browser, HTML5)
Click here to listen with your own player(launches your MP3 player)

KATL 061556Z 32006KT 10SM FEW001 FEW250 22/09 A3013 RMK AO2 FU FEW001 FU PLUME S T02170089

KATL Airport Info (Airnav.com)

KATL Flight Activity (Flightaware)

Listeners: 0 out of 3020 total

Atlanta Ground (Rwys 8/26): 121.900
Atlanta Ground (Rwys 9/27): 121.750

KATL Ground (Rwys 8/26) (Archives)
Atlanta, Georgia, United States

Feed Status: UP
Listen in your browser - HTML5 player(in browser, HTML5)
Click here to listen with your own player(launches your MP3 player)

KATL 061556Z 32006KT 10SM FEW001 FEW250 22/09 A3013 RMK AO2 FU FEW001 FU PLUME S T02170089

KATL Airport Info (Airnav.com)

KATL Flight Activity (Flightaware)

Listeners: 0 out of 3020 total

Atlanta Ground (Rwys 8/26): 121.900

KATL Ground (Rwys 9/27) (Archives)
Atlanta, Georgia, United States

Feed Status: UP
Listen in your browser - HTML5 player(in browser, HTML5)
Click here to listen with your own player(launches your MP3 player)

KATL 061556Z 32006KT 10SM FEW001 FEW250 22/09 A3013 RMK AO2 FU FEW001 FU PLUME S T02170089

KATL Airport Info (Airnav.com)

KATL Flight Activity (Flightaware)

Listeners: 0 out of 3020 total

Atlanta Ground (Rwys 9/27): 121.750

KATL Ramp (Archives)
Atlanta, Georgia, United States

Feed Status: UP
Listen in your browser - HTML5 player(in browser, HTML5)
Click here to listen with your own player(launches your MP3 player)

KATL 061556Z 32006KT 10SM FEW001 FEW250 22/09 A3013 RMK AO2 FU FEW001 FU PLUME S T02170089

KATL Airport Info (Airnav.com)

KATL Flight Activity (Flightaware)

Listeners: 0 out of 3020 total

Ramp: 128.975
Ramp: 131.875
Ramp 1: 131.450
Ramp 2: 131.850
Ramp 3: 129.275
Ramp 4: 130.075
Ramp 5: 129.375
Ramp 6: 131.375

KATL Tower (Archives)
Atlanta, Georgia, United States

Feed Status: UP
Listen in your browser - HTML5 player(in browser, HTML5)
Click here to listen with your own player(launches your MP3 player)

KATL 061556Z 32006KT 10SM FEW001 FEW250 22/09 A3013 RMK AO2 FU FEW001 FU PLUME S T02170089

KATL Airport Info (Airnav.com)

KATL Flight Activity (Flightaware)

Listeners: 6 out of 3020 total

Atlanta Tower (Rwy 10/28): 119.500
Atlanta Tower (Rwy 8L/26R): 119.100
Atlanta Tower (Rwy 8R/26L): 125.325
Atlanta Tower (Rwy 9L/27R): 123.850
Atlanta Tower (Rwy 9R/27L): 119.300

KATL Tower (Rwy 10/28) (Archives)
Atlanta, Georgia, United States

Feed Status: UP
Listen in your browser - HTML5 player(in browser, HTML5)
Click here to listen with your own player(launches your MP3 player)

KATL 061556Z 32006KT 10SM FEW001 FEW250 22/09 A3013 RMK AO2 FU FEW001 FU PLUME S T02170089

KATL Airport Info (Airnav.com)

KATL Flight Activity (Flightaware)

Listeners: 0 out of 3020 total

Atlanta Tower (Runway 10/28): 119.500

KATL Tower (Rwy 8L/26R) (Archives)
Atlanta, Georgia, United States

Feed Status: UP
Listen in your browser - HTML5 player(in browser, HTML5)
Click here to listen with your own player(launches your MP3 player)

KATL 061556Z 32006KT 10SM FEW001 FEW250 22/09 A3013 RMK AO2 FU FEW001 FU PLUME S T02170089

KATL Airport Info (Airnav.com)

KATL Flight Activity (Flightaware)

Listeners: 2 out of 3020 total

Atlanta Tower (Runway 08L/26R): 119.100

KATL Tower (Rwy 8R/26L) (Archives)
Atlanta, Georgia, United States

Feed Status: UP
Listen in your browser - HTML5 player(in browser, HTML5)
Click here to listen with your own player(launches your MP3 player)

KATL 061556Z 32006KT 10SM FEW001 FEW250 22/09 A3013 RMK AO2 FU FEW001 FU PLUME S T02170089

KATL Airport Info (Airnav.com)

KATL Flight Activity (Flightaware)

Listeners: 0 out of 3020 total

Atlanta Tower (Runway 08R/26L): 125.325

KATL Tower (Rwy 8R/8L/26L/26R) (Archives)
Atlanta, Georgia, United States

Feed Status: UP
Listen in your browser - HTML5 player(in browser, HTML5)
Click here to listen with your own player(launches your MP3 player)

KATL 061556Z 32006KT 10SM FEW001 FEW250 22/09 A3013 RMK AO2 FU FEW001 FU PLUME S T02170089

KATL Airport Info (Airnav.com)

KATL Flight Activity (Flightaware)

Listeners: 2 out of 3020 total

Atlanta Tower (Runway 08L/26R): 119.100
Atlanta Tower (Rwy 8R/26L): 125.325

KATL Tower (Rwy 9L/27R) (Archives)
Atlanta, Georgia, United States

Feed Status: UP
Listen in your browser - HTML5 player(in browser, HTML5)
Click here to listen with your own player(launches your MP3 player)

KATL 061556Z 32006KT 10SM FEW001 FEW250 22/09 A3013 RMK AO2 FU FEW001 FU PLUME S T02170089

KATL Airport Info (Airnav.com)

KATL Flight Activity (Flightaware)

Listeners: 0 out of 3020 total

Atlanta Tower (Runway 09L/27R): 123.850

KATL Tower (Rwy 9R/27L) (Archives)
Atlanta, Georgia, United States

Feed Status: UP
Listen in your browser - HTML5 player(in browser, HTML5)
Click here to listen with your own player(launches your MP3 player)

KATL 061556Z 32006KT 10SM FEW001 FEW250 22/09 A3013 RMK AO2 FU FEW001 FU PLUME S T02170089

KATL Airport Info (Airnav.com)

KATL Flight Activity (Flightaware)

Listeners: 0 out of 3020 total

Atlanta Tower (Runway 09R/27L): 119.300

NORCAL Approach (Elk Horn)
Auburn, California, United States

Feed Status: DOWN
Offline since: 2022-04-02 04:57:39 UTC

KAUN 061615Z AUTO 10006KT 10SM CLR 25/05 A3009 RMK A01

KAUN Airport Info (Airnav.com)

NORCAL Approach (Elk Horn Sector): 125.100

NORCAL Approach (Expo)
Auburn, California, United States

Feed Status: DOWN
Offline since: 2020-08-14 20:00:39 UTC

KAUN 061615Z AUTO 10006KT 10SM CLR 25/05 A3009 RMK A01

KAUN Airport Info (Airnav.com)

NORCAL Approach (EXPO Sector): 127.400

KBDR Del/Gnd/Twr/App (Archives)
Bridgeport, Connecticut, United States

Feed Status: UP
Listen in your browser - HTML5 player(in browser, HTML5)
Click here to listen with your own player(launches your MP3 player)

KBDR 061552Z 22005KT 10SM CLR 21/11 A2996 RMK AO2 SLP145 T02060111

KBDR Airport Info (Airnav.com)

KBDR Flight Activity (Flightaware)

Listeners: 0 out of 3020 total

Bridgeport Clearance/Ground: 121.750
Bridgeport Tower: 120.900
New York Approach (LOVES Sector): 124.075
Sikorsky Heliport: 133.600

New York Approach (LOVES Sector) (Archives)
Bridgeport, Connecticut, United States

Feed Status: UP
Listen in your browser - HTML5 player(in browser, HTML5)
Click here to listen with your own player(launches your MP3 player)

KBDR 061552Z 22005KT 10SM CLR 21/11 A2996 RMK AO2 SLP145 T02060111

KBDR Airport Info (Airnav.com)

KBDR Flight Activity (Flightaware)

Listeners: 0 out of 3020 total

New York Approach (LOVES Sector): 124.075

Boston App/Dep (North Sat) #2 (Archives)
Bedford, Massachusetts, United States

Feed Status: UP
Listen in your browser - HTML5 player(in browser, HTML5)
Click here to listen with your own player(launches your MP3 player)

KBED 061551Z COR VRB03KT 10SM SCT020 21/14 A2993 RMK AO2 SLP146 T02110144

KBED Airport Info (Airnav.com)

KBED Flight Activity (Flightaware)

Listeners: 0 out of 3020 total

Boston Approach (North Satellites, SFC-3500'): 124.400

Boston App/Dep (North Sat) #3 (Archives)
Bedford, Massachusetts, United States

Feed Status: UP
Listen in your browser - HTML5 player(in browser, HTML5)
Click here to listen with your own player(launches your MP3 player)

KBED 061551Z COR VRB03KT 10SM SCT020 21/14 A2993 RMK AO2 SLP146 T02110144

KBED Airport Info (Airnav.com)

KBED Flight Activity (Flightaware)

Listeners: 1 out of 3020 total

Boston Approach (North Satellites, SFC-3500'): 124.400

KBOS App (Final Vector) (Archives)
Boston, Massachusetts, United States

Feed Status: UP
Listen in your browser - HTML5 player(in browser, HTML5)
Click here to listen with your own player(launches your MP3 player)

KBOS 061554Z 03004KT 10SM FEW040 FEW110 FEW200 21/14 A2994 RMK AO2 SLP137 T02060139

KBOS Airport Info (Airnav.com)

KBOS Flight Activity (Flightaware)

Listeners: 3 out of 3020 total

Boston Approach (Final One): 126.500
Boston Approach (Final Two): 119.650

KBOS App (North/Rockport) (Archives)
Boston, Massachusetts, United States

Feed Status: UP
Listen in your browser - HTML5 player(in browser, HTML5)
Click here to listen with your own player(launches your MP3 player)

KBOS 061554Z 03004KT 10SM FEW040 FEW110 FEW200 21/14 A2994 RMK AO2 SLP137 T02060139

KBOS Airport Info (Airnav.com)

KBOS Flight Activity (Flightaware)

Listeners: 1 out of 3020 total

Boston Approach (backup frequency): 126.150
Boston Approach (Rockport Sector, North): 118.250

KBOS App (South/Plymouth) (Archives)
Boston, Massachusetts, United States

Feed Status: UP
Listen in your browser - HTML5 player(in browser, HTML5)
Click here to listen with your own player(launches your MP3 player)

KBOS 061554Z 03004KT 10SM FEW040 FEW110 FEW200 21/14 A2994 RMK AO2 SLP137 T02060139

KBOS Airport Info (Airnav.com)

KBOS Flight Activity (Flightaware)

Listeners: 1 out of 3020 total

Boston Approach (Plymouth Sector, South): 120.600
Boston Approach (South Satellite): 124.100

KBOS Area Heli/Air-to-Air (Archives)
Boston, Massachusetts, United States

Feed Status: UP
Listen in your browser - HTML5 player(in browser, HTML5)
Click here to listen with your own player(launches your MP3 player)

KBOS 061554Z 03004KT 10SM FEW040 FEW110 FEW200 21/14 A2994 RMK AO2 SLP137 T02060139

KBOS Airport Info (Airnav.com)

KBOS Flight Activity (Flightaware)

Listeners: 0 out of 3020 total

Aircraft Air-to-Air: 122.750
Helicopter Air-to-Air: 123.025
Helicopter Air-to-Air: 123.075
KBOS Tower (Skyways): 124.725

KBOS ARINC/Flight Service
Boston, Massachusetts, United States

Feed Status: DOWN
Offline since: 2021-11-02 21:10:05 UTC

KBOS 061554Z 03004KT 10SM FEW040 FEW110 FEW200 21/14 A2994 RMK AO2 SLP137 T02060139

KBOS Airport Info (Airnav.com)

ARINC Long-Range Oceanic VHF: 129.400
ARINC Long-Range Oceanic VHF: 129.900
Bridgeport Flight Service (FSS): 122.200

KBOS Del/Gnd (Archives)
Boston, Massachusetts, United States

Feed Status: UP
Listen in your browser - HTML5 player(in browser, HTML5)
Click here to listen with your own player(launches your MP3 player)

KBOS 061554Z 03004KT 10SM FEW040 FEW110 FEW200 21/14 A2994 RMK AO2 SLP137 T02060139

KBOS Airport Info (Airnav.com)

KBOS Flight Activity (Flightaware)

Listeners: 0 out of 3020 total

Boston Ground: 121.900
Boston Ground: 121.750

KBOS Dep (ID/Lincoln) (Archives)
Boston, Massachusetts, United States

Feed Status: UP
Listen in your browser - HTML5 player(in browser, HTML5)
Click here to listen with your own player(launches your MP3 player)

KBOS 061554Z 03004KT 10SM FEW040 FEW110 FEW200 21/14 A2994 RMK AO2 SLP137 T02060139

KBOS Airport Info (Airnav.com)

KBOS Flight Activity (Flightaware)

Listeners: 1 out of 3020 total

Boston Approach/Dep (Lincoln Sector/SW): 127.200
Boston Initial Departure (ID): 133.000

KBOS Flight Watch (FSS) (Archives)
Boston, Massachusetts, United States

Feed Status: UP
Listen in your browser - HTML5 player(in browser, HTML5)
Click here to listen with your own player(launches your MP3 player)

KBOS 061554Z 03004KT 10SM FEW040 FEW110 FEW200 21/14 A2994 RMK AO2 SLP137 T02060139

KBOS Airport Info (Airnav.com)

KBOS Flight Activity (Flightaware)

Listeners: 0 out of 3020 total

Flight Service/Flight Watch: 122.200

KBOS Ramp (Archives)
Boston, Massachusetts, United States

Feed Status: UP
Listen in your browser - HTML5 player(in browser, HTML5)
Click here to listen with your own player(launches your MP3 player)

KBOS 061554Z 03004KT 10SM FEW040 FEW110 FEW200 21/14 A2994 RMK AO2 SLP137 T02060139

KBOS Airport Info (Airnav.com)

KBOS Flight Activity (Flightaware)

Listeners: 0 out of 3020 total

Delta Ramp: 131.850
Massport Gate Control: 131.100
Ramp Control: 134.050
UNICOM: 122.950

KBOS Tower (Archives)
Boston, Massachusetts, United States

Feed Status: UP
Listen in your browser - HTML5 player(in browser, HTML5)
Click here to listen with your own player(launches your MP3 player)

KBOS 061554Z 03004KT 10SM FEW040 FEW110 FEW200 21/14 A2994 RMK AO2 SLP137 T02060139

KBOS Airport Info (Airnav.com)

KBOS Flight Activity (Flightaware)

Listeners: 12 out of 3020 total

Boston Tower (East): 132.225
Boston Tower (West): 128.800

KWHP/KVNY/KBUR App/Dep (Archives)
Burbank, California, United States

Feed Status: UP
Listen in your browser - HTML5 player(in browser, HTML5)
Click here to listen with your own player(launches your MP3 player)



KWHP Airport Info (Airnav.com)

KWHP Flight Activity (Flightaware)

Listeners: 2 out of 3020 total

SOCAL App (Glendale Sector): 135.050
SOCAL App (Valley Sector): 124.600
SOCAL Approach (Fillmore Sector): 120.400
SOCAL Approach (Moorpark Sector): 128.750
SOCAL Approach (Woodland Sector): 134.200

KBWI ATIS (Archives)
Baltimore, Maryland, United States

Feed Status: UP
Listen in your browser - HTML5 player(in browser, HTML5)
Click here to listen with your own player(launches your MP3 player)

KBWI 061554Z 00000KT 10SM BKN250 23/10 A3002 RMK AO2 SLP165 T02330100

KBWI Airport Info (Airnav.com)

KBWI Flight Activity (Flightaware)

Listeners: 1 out of 3020 total

Baltimore ATIS: 127.800

KBWI Del/Gnd/FBO (Archives)
Baltimore, Maryland, United States

Feed Status: UP
Listen in your browser - HTML5 player(in browser, HTML5)
Click here to listen with your own player(launches your MP3 player)

KBWI 061554Z 00000KT 10SM BKN250 23/10 A3002 RMK AO2 SLP165 T02330100

KBWI Airport Info (Airnav.com)

KBWI Flight Activity (Flightaware)

Listeners: 0 out of 3020 total

Baltimore Clearance Delivery: 118.050
Baltimore Ground: 121.900
Baltimore Ground (alt): 120.200
Signature De-Ice: 131.075
Signature De-Ice: 130.175
Signature Flight Service: 129.000

KBWI Tower (Archives)
Baltimore, Maryland, United States

Feed Status: UP
Listen in your browser - HTML5 player(in browser, HTML5)
Click here to listen with your own player(launches your MP3 player)

KBWI 061554Z 00000KT 10SM BKN250 23/10 A3002 RMK AO2 SLP165 T02330100

KBWI Airport Info (Airnav.com)

KBWI Flight Activity (Flightaware)

Listeners: 3 out of 3020 total

Baltimore Tower: 119.400
Baltimore Tower: 123.750

Potomac App (BELAY) (Archives)
Baltimore, Maryland, United States

Feed Status: UP
Listen in your browser - HTML5 player(in browser, HTML5)
Click here to listen with your own player(launches your MP3 player)

KMRB 061553Z 00000KT 10SM CLR 20/11 A3005 RMK AO2 SLP173 T02000106

KMRB Airport Info (Airnav.com)

KMRB Flight Activity (Flightaware)

Listeners: 0 out of 3020 total

Potomac Approach (BELAY Sector): 125.525

Potomac App (BELAY/BUFFR) (Archives)
Baltimore, Maryland, United States

Feed Status: UP
Listen in your browser - HTML5 player(in browser, HTML5)
Click here to listen with your own player(launches your MP3 player)

KBWI 061554Z 00000KT 10SM BKN250 23/10 A3002 RMK AO2 SLP165 T02330100

KBWI Airport Info (Airnav.com)

KBWI Flight Activity (Flightaware)

Listeners: 0 out of 3020 total

Potomac Approach (BELAY Sector): 125.525
Potomac Approach (BUFFR Sector): 133.850
Potomac Approach (spare): 126.750

Potomac App (DC ADIZ) (Archives)
Baltimore, Maryland, United States

Feed Status: UP
Listen in your browser - HTML5 player(in browser, HTML5)
Click here to listen with your own player(launches your MP3 player)

KBWI 061554Z 00000KT 10SM BKN250 23/10 A3002 RMK AO2 SLP165 T02330100

KBWI Airport Info (Airnav.com)

KBWI Flight Activity (Flightaware)

Listeners: 1 out of 3020 total

ADIZ East Sector: 132.775
Emergency/Guard: 121.500

Potomac App (Final) (Archives)
Baltimore, Maryland, United States

Feed Status: UP
Listen in your browser - HTML5 player(in browser, HTML5)
Click here to listen with your own player(launches your MP3 player)

KBWI 061554Z 00000KT 10SM BKN250 23/10 A3002 RMK AO2 SLP165 T02330100

KBWI Airport Info (Airnav.com)

KBWI Flight Activity (Flightaware)

Listeners: 1 out of 3020 total

Potomac Approach (BWI Final North): 119.000
Potomac Approach (BWI Final South): 119.700

Potomac App (GRACO/PALEO) (Archives)
Baltimore, Maryland, United States

Feed Status: UP
Listen in your browser - HTML5 player(in browser, HTML5)
Click here to listen with your own player(launches your MP3 player)

KBWI 061554Z 00000KT 10SM BKN250 23/10 A3002 RMK AO2 SLP165 T02330100

KBWI Airport Info (Airnav.com)

KBWI Flight Activity (Flightaware)

Listeners: 0 out of 3020 total

Potomac Approach (GRACO Sector): 124.550
Potomac Approach (PALEO Sector): 133.750

Potomac App (WOOLY) #1 (Archives)
Baltimore, Maryland, United States

Feed Status: UP
Listen in your browser - HTML5 player(in browser, HTML5)
Click here to listen with your own player(launches your MP3 player)

KBWI 061554Z 00000KT 10SM BKN250 23/10 A3002 RMK AO2 SLP165 T02330100

KBWI Airport Info (Airnav.com)

KBWI Flight Activity (Flightaware)

Listeners: 0 out of 3020 total

Potomac Approach/Departure (WOOLY Sector): 128.700

Potomac App (WOOLY) #2 (Archives)
Baltimore, Maryland, United States

Feed Status: UP
Listen in your browser - HTML5 player(in browser, HTML5)
Click here to listen with your own player(launches your MP3 player)

KBWI 061554Z 00000KT 10SM BKN250 23/10 A3002 RMK AO2 SLP165 T02330100

KBWI Airport Info (Airnav.com)

KBWI Flight Activity (Flightaware)

Listeners: 0 out of 3020 total

Potomac Approach/Departure (WOOLY Sector): 128.700

Potomac App/Dep (BUFFR) (Archives)
Baltimore, Maryland, United States

Feed Status: UP
Listen in your browser - HTML5 player(in browser, HTML5)
Click here to listen with your own player(launches your MP3 player)

KMRB 061553Z 00000KT 10SM CLR 20/11 A3005 RMK AO2 SLP173 T02000106

KMRB Airport Info (Airnav.com)

KMRB Flight Activity (Flightaware)

Listeners: 0 out of 3020 total

Potomac Approach (BUFFR Sector): 133.850

KATL Approach (South Sat) (Archives)
Atlanta, Georgia, United States

Feed Status: UP
Listen in your browser - HTML5 player(in browser, HTML5)
Click here to listen with your own player(launches your MP3 player)

KCCO 061615Z AUTO 33006KT 10SM CLR 22/06 A3014 RMK AO2 T02180062

KCCO Airport Info (Airnav.com)

KCCO Flight Activity (Flightaware)

Listeners: 0 out of 3020 total

Atlanta Approach (SW Satellite): 119.800

KPHX Approach (East Tempe Sector) (Archives)
Chandler, Arizona, United States

Feed Status: UP
Listen in your browser - HTML5 player(in browser, HTML5)
Click here to listen with your own player(launches your MP3 player)

KPHX 061551Z 10005KT 10SM FEW120 FEW210 FEW240 27/11 A3004 RMK AO2 SLP156 T02670106

KPHX Airport Info (Airnav.com)

KPHX Flight Activity (Flightaware)

Listeners: 0 out of 3020 total

Phoenix Approach (Pima Sector): 123.700

KPHX Approach (Pima/Willy Sectors) (Archives)
Chandler, Arizona, United States

Feed Status: UP
Listen in your browser - HTML5 player(in browser, HTML5)
Click here to listen with your own player(launches your MP3 player)

KPHX 061551Z 10005KT 10SM FEW120 FEW210 FEW240 27/11 A3004 RMK AO2 SLP156 T02670106

KPHX Airport Info (Airnav.com)

KPHX Flight Activity (Flightaware)

Listeners: 0 out of 3020 total

Phoenix Approach (Pima Sector): 123.700
Phoenix Approach (Willy Sector): 124.900

KCLE Approach (Archives)
Cleveland, Ohio, United States

Feed Status: UP
Listen in your browser - HTML5 player(in browser, HTML5)
Click here to listen with your own player(launches your MP3 player)

KCLE 061551Z 22005KT 10SM FEW110 BKN190 BKN250 18/09 A3001 RMK AO2 SLP179 T01830089

KCLE Airport Info (Airnav.com)

KCLE Flight Activity (Flightaware)

Listeners: 0 out of 3020 total

Cleveland Approach: 124.000

KCLE ATIS (Archives)
Cleveland, Ohio, United States

Feed Status: UP
Listen in your browser - HTML5 player(in browser, HTML5)
Click here to listen with your own player(launches your MP3 player)

KCLE 061551Z 22005KT 10SM FEW110 BKN190 BKN250 18/09 A3001 RMK AO2 SLP179 T01830089

KCLE Airport Info (Airnav.com)

KCLE Flight Activity (Flightaware)

Listeners: 0 out of 3020 total

Cleveland ATIS: 127.850

KCLE Clearance Delivery (Archives)
Cleveland, Ohio, United States

Feed Status: UP
Listen in your browser - HTML5 player(in browser, HTML5)
Click here to listen with your own player(launches your MP3 player)

KCLE 061551Z 22005KT 10SM FEW110 BKN190 BKN250 18/09 A3001 RMK AO2 SLP179 T01830089

KCLE Airport Info (Airnav.com)

KCLE Flight Activity (Flightaware)

Listeners: 0 out of 3020 total

Cleveland Clearance Delivery: 125.050

KCLE Departure (Archives)
Cleveland, Ohio, United States

Feed Status: UP
Listen in your browser - HTML5 player(in browser, HTML5)
Click here to listen with your own player(launches your MP3 player)

KCLE 061551Z 22005KT 10SM FEW110 BKN190 BKN250 18/09 A3001 RMK AO2 SLP179 T01830089

KCLE Airport Info (Airnav.com)

KCLE Flight Activity (Flightaware)

Listeners: 0 out of 3020 total

Cleveland Departure: 128.250

KCLE Ground (Archives)
Cleveland, Ohio, United States

Feed Status: UP
Listen in your browser - HTML5 player(in browser, HTML5)
Click here to listen with your own player(launches your MP3 player)

KCLE 061551Z 22005KT 10SM FEW110 BKN190 BKN250 18/09 A3001 RMK AO2 SLP179 T01830089

KCLE Airport Info (Airnav.com)

KCLE Flight Activity (Flightaware)

Listeners: 0 out of 3020 total

Cleveland Ground: 121.700

KCLE Tower (Archives)
Cleveland, Ohio, United States

Feed Status: UP
Listen in your browser - HTML5 player(in browser, HTML5)
Click here to listen with your own player(launches your MP3 player)

KCLE 061551Z 22005KT 10SM FEW110 BKN190 BKN250 18/09 A3001 RMK AO2 SLP179 T01830089

KCLE Airport Info (Airnav.com)

KCLE Flight Activity (Flightaware)

Listeners: 3 out of 3020 total

Cleveland Tower: 124.500

KCLE UNICOM (Archives)
Cleveland, Ohio, United States

Feed Status: UP
Listen in your browser - HTML5 player(in browser, HTML5)
Click here to listen with your own player(launches your MP3 player)

KCLE 061551Z 22005KT 10SM FEW110 BKN190 BKN250 18/09 A3001 RMK AO2 SLP179 T01830089

KCLE Airport Info (Airnav.com)

KCLE Flight Activity (Flightaware)

Listeners: 0 out of 3020 total

Cleveland UNICOM: 122.950

KCLT Approach (Arrival) (Archives)
Charlotte, North Carolina, United States

Feed Status: UP
Listen in your browser - HTML5 player(in browser, HTML5)
Click here to listen with your own player(launches your MP3 player)

KCLT 061552Z VRB04KT 10SM FEW250 23/10 A3010 RMK SLP189 T02280100

KCLT Airport Info (Airnav.com)

KCLT Flight Activity (Flightaware)

Listeners: 0 out of 3020 total

Charlotte Approach (Arrival): 132.700
Charlotte Approach (Arrival/NW): 125.350

KCVG Approach (Class B) (Archives)
Covington, Kentucky, United States

Feed Status: UP
Listen in your browser - HTML5 player(in browser, HTML5)
Click here to listen with your own player(launches your MP3 player)

KCVG 061552Z 20003KT 10SM FEW065 OVC100 18/08 A3008 RMK AO2 SLP182 BINOVC S T01780078

KCVG Airport Info (Airnav.com)

KCVG Flight Activity (Flightaware)

Listeners: 0 out of 3020 total

Cincinnati Approach (Class B): 121.000

KCVG Approach (Final) (Archives)
Covington, Kentucky, United States

Feed Status: UP
Listen in your browser - HTML5 player(in browser, HTML5)
Click here to listen with your own player(launches your MP3 player)

KCVG 061552Z 20003KT 10SM FEW065 OVC100 18/08 A3008 RMK AO2 SLP182 BINOVC S T01780078

KCVG Airport Info (Airnav.com)

KCVG Flight Activity (Flightaware)

Listeners: 0 out of 3020 total

Cincinnati Approach (Final): 124.700

KCVG Approach (North) (Archives)
Covington, Kentucky, United States

Feed Status: UP
Listen in your browser - HTML5 player(in browser, HTML5)
Click here to listen with your own player(launches your MP3 player)

KCVG 061552Z 20003KT 10SM FEW065 OVC100 18/08 A3008 RMK AO2 SLP182 BINOVC S T01780078

KCVG Airport Info (Airnav.com)

KCVG Flight Activity (Flightaware)

Listeners: 0 out of 3020 total

Cincinnati Approach (North): 123.875

KCVG Approach (South) (Archives)
Covington, Kentucky, United States

Feed Status: UP
Listen in your browser - HTML5 player(in browser, HTML5)
Click here to listen with your own player(launches your MP3 player)

KCVG 061552Z 20003KT 10SM FEW065 OVC100 18/08 A3008 RMK AO2 SLP182 BINOVC S T01780078

KCVG Airport Info (Airnav.com)

KCVG Flight Activity (Flightaware)

Listeners: 0 out of 3020 total

Cincinnati Approach (South): 119.700

KCVG ATIS (Arrival) (Archives)
Covington, Kentucky, United States

Feed Status: UP
Listen in your browser - HTML5 player(in browser, HTML5)
Click here to listen with your own player(launches your MP3 player)

KCVG 061552Z 20003KT 10SM FEW065 OVC100 18/08 A3008 RMK AO2 SLP182 BINOVC S T01780078

KCVG Airport Info (Airnav.com)

KCVG Flight Activity (Flightaware)

Listeners: 0 out of 3020 total

Cincinnati ATIS (Arrival): 134.375

KCVG ATIS (Departure) (Archives)
Covington, Kentucky, United States

Feed Status: UP
Listen in your browser - HTML5 player(in browser, HTML5)
Click here to listen with your own player(launches your MP3 player)

KCVG 061552Z 20003KT 10SM FEW065 OVC100 18/08 A3008 RMK AO2 SLP182 BINOVC S T01780078

KCVG Airport Info (Airnav.com)

KCVG Flight Activity (Flightaware)

Listeners: 0 out of 3020 total

Cincinnati ATIS (Departure): 135.300

KCVG Clearance Delivery (Archives)
Covington, Kentucky, United States

Feed Status: UP
Listen in your browser - HTML5 player(in browser, HTML5)
Click here to listen with your own player(launches your MP3 player)

KCVG 061552Z 20003KT 10SM FEW065 OVC100 18/08 A3008 RMK AO2 SLP182 BINOVC S T01780078

KCVG Airport Info (Airnav.com)

KCVG Flight Activity (Flightaware)

Listeners: 0 out of 3020 total

Cincinnati Clearance Delivery: 127.175

KCVG Departure (East) (Archives)
Covington, Kentucky, United States

Feed Status: UP
Listen in your browser - HTML5 player(in browser, HTML5)
Click here to listen with your own player(launches your MP3 player)

KCVG 061552Z 20003KT 10SM FEW065 OVC100 18/08 A3008 RMK AO2 SLP182 BINOVC S T01780078

KCVG Airport Info (Airnav.com)

KCVG Flight Activity (Flightaware)

Listeners: 0 out of 3020 total

Cincinnati Departure (East): 126.650

KCVG Departure (East/West) (Archives)
Covington, Kentucky, United States

Feed Status: UP
Listen in your browser - HTML5 player(in browser, HTML5)
Click here to listen with your own player(launches your MP3 player)

KCVG 061552Z 20003KT 10SM FEW065 OVC100 18/08 A3008 RMK AO2 SLP182 BINOVC S T01780078

KCVG Airport Info (Airnav.com)

KCVG Flight Activity (Flightaware)

Listeners: 1 out of 3020 total

Cincinnati Departure (East): 126.650
Cincinnati Departure (West): 128.700

KCVG Departure (West) (Archives)
Covington, Kentucky, United States

Feed Status: UP
Listen in your browser - HTML5 player(in browser, HTML5)
Click here to listen with your own player(launches your MP3 player)

KCVG 061552Z 20003KT 10SM FEW065 OVC100 18/08 A3008 RMK AO2 SLP182 BINOVC S T01780078

KCVG Airport Info (Airnav.com)

KCVG Flight Activity (Flightaware)

Listeners: 0 out of 3020 total

Cincinnati Departure (West): 128.700

KCVG Ground (Archives)
Covington, Kentucky, United States

Feed Status: UP
Listen in your browser - HTML5 player(in browser, HTML5)
Click here to listen with your own player(launches your MP3 player)

KCVG 061552Z 20003KT 10SM FEW065 OVC100 18/08 A3008 RMK AO2 SLP182 BINOVC S T01780078

KCVG Airport Info (Airnav.com)

KCVG Flight Activity (Flightaware)

Listeners: 1 out of 3020 total

Cincinnati Ground: 121.700

KCVG Ramp/Company (Archives)
Covington, Kentucky, United States

Feed Status: UP
Listen in your browser - HTML5 player(in browser, HTML5)
Click here to listen with your own player(launches your MP3 player)

KCVG 061552Z 20003KT 10SM FEW065 OVC100 18/08 A3008 RMK AO2 SLP182 BINOVC S T01780078

KCVG Airport Info (Airnav.com)

KCVG Flight Activity (Flightaware)

Listeners: 1 out of 3020 total

AmericanConnection Ops: 131.600
Atlanta Radio (Delta): 129.600
Atlanta Radio (Delta): 129.700
Delta Concourse A: 122.975
Delta Concourse A: 122.725
Delta Concourse A: 123.075
Delta Connection Maintenance: 128.825
Delta Maintenance: 131.725
Delta Tower C Ops: 136.675
DHL Ops: 130.875
DHL Ops: 131.225
DHL Ramp: 129.475
Tower C Ramp: 130.975

KCVG Tower (All) (Archives)
Covington, Kentucky, United States

Feed Status: UP
Listen in your browser - HTML5 player(in browser, HTML5)
Click here to listen with your own player(launches your MP3 player)

KCVG 061552Z 20003KT 10SM FEW065 OVC100 18/08 A3008 RMK AO2 SLP182 BINOVC S T01780078

KCVG Airport Info (Airnav.com)

KCVG Flight Activity (Flightaware)

Listeners: 1 out of 3020 total

Cincinnati Tower (Center): 118.300
Cincinnati Tower (East): 118.975
Cincinnati Tower (West): 133.325

KCVG Tower (Center) (Archives)
Covington, Kentucky, United States

Feed Status: UP
Listen in your browser - HTML5 player(in browser, HTML5)
Click here to listen with your own player(launches your MP3 player)

KCVG 061552Z 20003KT 10SM FEW065 OVC100 18/08 A3008 RMK AO2 SLP182 BINOVC S T01780078

KCVG Airport Info (Airnav.com)

KCVG Flight Activity (Flightaware)

Listeners: 0 out of 3020 total

Cincinnati Tower (Center): 118.300

KCVG Tower (East) (Archives)
Covington, Kentucky, United States

Feed Status: UP
Listen in your browser - HTML5 player(in browser, HTML5)
Click here to listen with your own player(launches your MP3 player)

KCVG 061552Z 20003KT 10SM FEW065 OVC100 18/08 A3008 RMK AO2 SLP182 BINOVC S T01780078

KCVG Airport Info (Airnav.com)

KCVG Flight Activity (Flightaware)

Listeners: 0 out of 3020 total

Cincinnati Tower (East): 118.975

KCVG Tower (West) (Archives)
Covington, Kentucky, United States

Feed Status: UP
Listen in your browser - HTML5 player(in browser, HTML5)
Click here to listen with your own player(launches your MP3 player)

KCVG 061552Z 20003KT 10SM FEW065 OVC100 18/08 A3008 RMK AO2 SLP182 BINOVC S T01780078

KCVG Airport Info (Airnav.com)

KCVG Flight Activity (Flightaware)

Listeners: 0 out of 3020 total

Cincinnati Tower (West): 133.325

Houston App/Dep (119.7)
Houston, Texas, United States

Feed Status: DOWN
Offline since: 2022-08-05 16:21:39 UTC

KCXO 061553Z 29004KT 10SM CLR 27/17 A3018 RMK AO2 SLP217 T02670167

KCXO Airport Info (Airnav.com)

Houston Approach/Departure: 119.700

KDAA/KADW Tower (Archives)
Fort Belvoir, Virginia, United States

Feed Status: UP
Listen in your browser - HTML5 player(in browser, HTML5)
Click here to listen with your own player(launches your MP3 player)

KDAA 061555Z AUTO 30005KT 10SM CLR 23/10 A3002 RMK AO2 SLP168 T02260097 $

KDAA Airport Info (Airnav.com)

KDAA Flight Activity (Flightaware)

Listeners: 2 out of 3020 total

Andrews Tower: 118.400
Andrews Tower: 349.000
Davison Tower: 241.000
Davison Tower: 126.300
Davison Tower: 229.400

KDAL App/Dep (East Side North Low) (Archives)
Dallas, Texas, United States

Feed Status: UP
Listen in your browser - HTML5 player(in browser, HTML5)
Click here to listen with your own player(launches your MP3 player)

KDFW 061553Z 01005KT 10SM FEW120 FEW250 26/12 A3019 RMK AO2 SLP215 T02560117

KDFW Airport Info (Airnav.com)

KDFW Flight Activity (Flightaware)

Listeners: 3 out of 3020 total

Regional Approach/Departure (East Side/North Low): 124.300

KDAL ATIS (Archives)
Dallas, Texas, United States

Feed Status: UP
Listen in your browser - HTML5 player(in browser, HTML5)
Click here to listen with your own player(launches your MP3 player)

KDAL 061553Z 00000KT 10SM FEW110 FEW250 26/12 A3020 RMK AO2 SLP219 T02610117

KDAL Airport Info (Airnav.com)

KDAL Flight Activity (Flightaware)

Listeners: 0 out of 3020 total

Love ATIS: 120.150

KDAL Clearance Delivery (Archives)
Dallas, Texas, United States

Feed Status: UP
Listen in your browser - HTML5 player(in browser, HTML5)
Click here to listen with your own player(launches your MP3 player)

KDAL 061553Z 00000KT 10SM FEW110 FEW250 26/12 A3020 RMK AO2 SLP219 T02610117

KDAL Airport Info (Airnav.com)

KDAL Flight Activity (Flightaware)

Listeners: 0 out of 3020 total

Love Clearance Delivery: 127.900

KDAL Emergency/Guard (Archives)
Dallas, Texas, United States

Feed Status: UP
Listen in your browser - HTML5 player(in browser, HTML5)
Click here to listen with your own player(launches your MP3 player)

KDAL 061553Z 00000KT 10SM FEW110 FEW250 26/12 A3020 RMK AO2 SLP219 T02610117

KDAL Airport Info (Airnav.com)

KDAL Flight Activity (Flightaware)

Listeners: 0 out of 3020 total

Emergency/Guard: 121.500

KDAL Ground (Archives)
Dallas, Texas, United States

Feed Status: UP
Listen in your browser - HTML5 player(in browser, HTML5)
Click here to listen with your own player(launches your MP3 player)

KDAL 061553Z 00000KT 10SM FEW110 FEW250 26/12 A3020 RMK AO2 SLP219 T02610117

KDAL Airport Info (Airnav.com)

KDAL Flight Activity (Flightaware)

Listeners: 0 out of 3020 total

Love Ground: 121.750

KDAL Tower (Archives)
Dallas, Texas, United States

Feed Status: UP
Listen in your browser - HTML5 player(in browser, HTML5)
Click here to listen with your own player(launches your MP3 player)

KDAL 061553Z 00000KT 10SM FEW110 FEW250 26/12 A3020 RMK AO2 SLP219 T02610117

KDAL Airport Info (Airnav.com)

KDAL Flight Activity (Flightaware)

Listeners: 2 out of 3020 total

Love Tower: 123.700

KDCA Ground (Archives)
Washington, District of Columbia, United States

Feed Status: UP
Listen in your browser - HTML5 player(in browser, HTML5)
Click here to listen with your own player(launches your MP3 player)

KDCA 061552Z 33007KT 10SM FEW250 23/11 A3004 RMK AO2 SLP171 T02280111 $

KDCA Airport Info (Airnav.com)

KDCA Flight Activity (Flightaware)

Listeners: 0 out of 3020 total

Washington Ground: 121.700

KDCA Potomac App (LURAY) (Archives)
Washington, District of Columbia, United States

Feed Status: UP
Listen in your browser - HTML5 player(in browser, HTML5)
Click here to listen with your own player(launches your MP3 player)

KMRB 061553Z 00000KT 10SM CLR 20/11 A3005 RMK AO2 SLP173 T02000106

KMRB Airport Info (Airnav.com)

KMRB Flight Activity (Flightaware)

Listeners: 0 out of 3020 total

Potomac Approach LURAY Sector (West): 118.675

KDCA Potomac App/Dep (FLUKY) (Archives)
Washington, District of Columbia, United States

Feed Status: UP
Listen in your browser - HTML5 player(in browser, HTML5)
Click here to listen with your own player(launches your MP3 player)

KDCA 061552Z 33007KT 10SM FEW250 23/11 A3004 RMK AO2 SLP171 T02280111 $

KDCA Airport Info (Airnav.com)

KDCA Flight Activity (Flightaware)

Listeners: 0 out of 3020 total

Potomac Approach/Departure: 121.050

KDCA Potomac App/Dep (KRANT) (Archives)
Washington, District of Columbia, United States

Feed Status: UP
Listen in your browser - HTML5 player(in browser, HTML5)
Click here to listen with your own player(launches your MP3 player)

KDCA 061552Z 33007KT 10SM FEW250 23/11 A3004 RMK AO2 SLP171 T02280111 $

KDCA Airport Info (Airnav.com)

KDCA Flight Activity (Flightaware)

Listeners: 1 out of 3020 total

Potomac Approach/Departure (KRANT Sector): 125.650

KDCA Potomac Approach (DCA Final) (Archives)
Washington, District of Columbia, United States

Feed Status: UP
Listen in your browser - HTML5 player(in browser, HTML5)
Click here to listen with your own player(launches your MP3 player)

KDCA 061552Z 33007KT 10SM FEW250 23/11 A3004 RMK AO2 SLP171 T02280111 $

KDCA Airport Info (Airnav.com)

KDCA Flight Activity (Flightaware)

Listeners: 1 out of 3020 total

Potomac Approach (DCA Final Radar): 124.700

KDCA Potomac Departure (Archives)
Washington, District of Columbia, United States

Feed Status: UP
Listen in your browser - HTML5 player(in browser, HTML5)
Click here to listen with your own player(launches your MP3 player)

KDCA 061552Z 33007KT 10SM FEW250 23/11 A3004 RMK AO2 SLP171 T02280111 $

KDCA Airport Info (Airnav.com)

KDCA Flight Activity (Flightaware)

Listeners: 1 out of 3020 total

Potomac Departure (TYSON Sector): 118.950

KDCA Tower #1 (Archives)
Washington, District of Columbia, United States

Feed Status: UP
Listen in your browser - HTML5 player(in browser, HTML5)
Click here to listen with your own player(launches your MP3 player)

KDCA 061552Z 33007KT 10SM FEW250 23/11 A3004 RMK AO2 SLP171 T02280111 $

KDCA Airport Info (Airnav.com)

KDCA Flight Activity (Flightaware)

Listeners: 4 out of 3020 total

Washington Tower: 119.100

KDCA Tower #2 (Archives)
Washington, District of Columbia, United States

Feed Status: UP
Listen in your browser - HTML5 player(in browser, HTML5)
Click here to listen with your own player(launches your MP3 player)

KDCA 061552Z 33007KT 10SM FEW250 23/11 A3004 RMK AO2 SLP171 T02280111 $

KDCA Airport Info (Airnav.com)

KDCA Flight Activity (Flightaware)

Listeners: 0 out of 3020 total

Washington Tower: 119.100

KDCA Tower (Helicopters) (Archives)
Washington, District of Columbia, United States

Feed Status: UP
Listen in your browser - HTML5 player(in browser, HTML5)
Click here to listen with your own player(launches your MP3 player)

KDCA 061552Z 33007KT 10SM FEW250 23/11 A3004 RMK AO2 SLP171 T02280111 $

KDCA Airport Info (Airnav.com)

KDCA Flight Activity (Flightaware)

Listeners: 0 out of 3020 total

Washington Tower (Helicopters): 134.350

KDCA Tower/Approach (Archives)
Washington, District of Columbia, United States

Feed Status: UP
Listen in your browser - HTML5 player(in browser, HTML5)
Click here to listen with your own player(launches your MP3 player)

KDCA 061552Z 33007KT 10SM FEW250 23/11 A3004 RMK AO2 SLP171 T02280111 $

KDCA Airport Info (Airnav.com)

KDCA Flight Activity (Flightaware)

Listeners: 2 out of 3020 total

Emergency/Guard: 121.500
KDCA Final Approach (West): 124.700
Washington Tower: 119.100
Washington Tower (Helicopters): 134.350

KDCA Tower/Heli (Archives)
Washington, District of Columbia, United States

Feed Status: UP
Listen in your browser - HTML5 player(in browser, HTML5)
Click here to listen with your own player(launches your MP3 player)

KDCA 061552Z 33007KT 10SM FEW250 23/11 A3004 RMK AO2 SLP171 T02280111 $

KDCA Airport Info (Airnav.com)

KDCA Flight Activity (Flightaware)

Listeners: 0 out of 3020 total

Washington Tower: 119.100
Washington Tower (Helicopters): 134.350

KDEN Approach (Archives)
Denver, Colorado, United States

Feed Status: UP
Listen in your browser - HTML5 player(in browser, HTML5)
Click here to listen with your own player(launches your MP3 player)

KDEN 061553Z 29003KT 10SM FEW220 15/04 A3039 RMK AO2 SLP252 T01500044

KDEN Airport Info (Airnav.com)

KDEN Flight Activity (Flightaware)

Listeners: 3 out of 3020 total

Denver Approach (Final FR-1): 123.850
Denver Approach (Final FR-2): 120.800
Denver Approach (Final FR-3): 125.750
Denver Approach (NE): 124.950
Denver Approach (NW): 119.300
Denver Approach (SE): 126.550
Denver Approach (SW): 120.350
Denver Approach (W): 133.625
Denver Class B (North): 134.850

KDEN Clearance/Ground (Archives)
Denver, Colorado, United States

Feed Status: UP
Listen in your browser - HTML5 player(in browser, HTML5)
Click here to listen with your own player(launches your MP3 player)

KDEN 061553Z 29003KT 10SM FEW220 15/04 A3039 RMK AO2 SLP252 T01500044

KDEN Airport Info (Airnav.com)

KDEN Flight Activity (Flightaware)

Listeners: 0 out of 3020 total

Denver Clearance Delivery: 118.750
Denver Ground: 121.850
Denver Ground: 127.500
Denver Ground (alternate): 128.750

KDEN Departure (Archives)
Denver, Colorado, United States

Feed Status: UP
Listen in your browser - HTML5 player(in browser, HTML5)
Click here to listen with your own player(launches your MP3 player)

KDEN 061553Z 29003KT 10SM FEW220 15/04 A3039 RMK AO2 SLP252 T01500044

KDEN Airport Info (Airnav.com)

KDEN Flight Activity (Flightaware)

Listeners: 1 out of 3020 total

Denver Class B (North): 134.850
Denver Departure (East): 128.250
Denver Departure (North): 127.050
Denver Departure (South): 128.450
Denver Departure (West): 126.100

KDEN Tower (Archives)
Denver, Colorado, United States

Feed Status: UP
Listen in your browser - HTML5 player(in browser, HTML5)
Click here to listen with your own player(launches your MP3 player)

KDEN 061553Z 29003KT 10SM FEW220 15/04 A3039 RMK AO2 SLP252 T01500044

KDEN Airport Info (Airnav.com)

KDEN Flight Activity (Flightaware)

Listeners: 6 out of 3020 total

Denver Tower (Rwy 16/34): 135.300
Denver Tower (Rwy 17R/35L): 133.300
Denver Tower (Rwy 7/25): 132.350
Denver Tower (Rwy 8/26, 17L/35R): 124.300

KDFW ATIS (Arrival) (Archives)
Dallas, Texas, United States

Feed Status: UP
Listen in your browser - HTML5 player(in browser, HTML5)
Click here to listen with your own player(launches your MP3 player)

KDFW 061553Z 01005KT 10SM FEW120 FEW250 26/12 A3019 RMK AO2 SLP215 T02560117

KDFW Airport Info (Airnav.com)

KDFW Flight Activity (Flightaware)

Listeners: 0 out of 3020 total

DFW Arrival ATIS: 123.775

KDFW Clearance Delivery (Archives)
Dallas, Texas, United States

Feed Status: UP
Listen in your browser - HTML5 player(in browser, HTML5)
Click here to listen with your own player(launches your MP3 player)

KDFW 061553Z 01005KT 10SM FEW120 FEW250 26/12 A3019 RMK AO2 SLP215 T02560117

KDFW Airport Info (Airnav.com)

KDFW Flight Activity (Flightaware)

Listeners: 0 out of 3020 total

DFW Clearance Delivery: 128.250

KDFW Ground (East/121.65) (Archives)
Dallas, Texas, United States

Feed Status: UP
Listen in your browser - HTML5 player(in browser, HTML5)
Click here to listen with your own player(launches your MP3 player)

KDFW 061553Z 01005KT 10SM FEW120 FEW250 26/12 A3019 RMK AO2 SLP215 T02560117

KDFW Airport Info (Airnav.com)

KDFW Flight Activity (Flightaware)

Listeners: 1 out of 3020 total

DFW Ground (East): 121.650

KDFW Ground (East/121.8) (Archives)
Dallas, Texas, United States

Feed Status: UP
Listen in your browser - HTML5 player(in browser, HTML5)
Click here to listen with your own player(launches your MP3 player)

KDFW 061553Z 01005KT 10SM FEW120 FEW250 26/12 A3019 RMK AO2 SLP215 T02560117

KDFW Airport Info (Airnav.com)

KDFW Flight Activity (Flightaware)

Listeners: 0 out of 3020 total

DFW Ground (East): 121.800

KDFW Ground (West) (Archives)
Dallas, Texas, United States

Feed Status: UP
Listen in your browser - HTML5 player(in browser, HTML5)
Click here to listen with your own player(launches your MP3 player)

KDFW 061553Z 01005KT 10SM FEW120 FEW250 26/12 A3019 RMK AO2 SLP215 T02560117

KDFW Airport Info (Airnav.com)

KDFW Flight Activity (Flightaware)

Listeners: 0 out of 3020 total

DFW Ground (West): 121.850

KDFW Reg App 17/35C Final (Archives)
Dallas, Texas, United States

Feed Status: UP
Listen in your browser - HTML5 player(in browser, HTML5)
Click here to listen with your own player(launches your MP3 player)

KDFW 061553Z 01005KT 10SM FEW120 FEW250 26/12 A3019 RMK AO2 SLP215 T02560117

KDFW Airport Info (Airnav.com)

KDFW Flight Activity (Flightaware)

Listeners: 0 out of 3020 total

Regional Approach (Rwy 17C Final): 127.075

KDFW Reg App 17L/35R Final (Archives)
Dallas, Texas, United States

Feed Status: UP
Listen in your browser - HTML5 player(in browser, HTML5)
Click here to listen with your own player(launches your MP3 player)

KDFW 061553Z 01005KT 10SM FEW120 FEW250 26/12 A3019 RMK AO2 SLP215 T02560117

KDFW Airport Info (Airnav.com)

KDFW Flight Activity (Flightaware)

Listeners: 0 out of 3020 total

Regional Approach (Rwy 17L Final): 119.400

KDFW Reg App 18R/36L Final (Archives)
Dallas, Texas, United States

Feed Status: UP
Listen in your browser - HTML5 player(in browser, HTML5)
Click here to listen with your own player(launches your MP3 player)

KDFW 061553Z 01005KT 10SM FEW120 FEW250 26/12 A3019 RMK AO2 SLP215 T02560117

KDFW Airport Info (Airnav.com)

KDFW Flight Activity (Flightaware)

Listeners: 0 out of 3020 total

Regional Approach (Rwy 18R Final): 118.425

KDFW Reg App Feeder (East) (Archives)
Dallas, Texas, United States

Feed Status: UP
Listen in your browser - HTML5 player(in browser, HTML5)
Click here to listen with your own player(launches your MP3 player)

KDFW 061553Z 01005KT 10SM FEW120 FEW250 26/12 A3019 RMK AO2 SLP215 T02560117

KDFW Airport Info (Airnav.com)

KDFW Flight Activity (Flightaware)

Listeners: 0 out of 3020 total

Regional Approach (Feeder East): 125.025

KDFW Reg App Feeder (West) (Archives)
Dallas, Texas, United States

Feed Status: UP
Listen in your browser - HTML5 player(in browser, HTML5)
Click here to listen with your own player(launches your MP3 player)

KDFW 061553Z 01005KT 10SM FEW120 FEW250 26/12 A3019 RMK AO2 SLP215 T02560117

KDFW Airport Info (Airnav.com)

KDFW Flight Activity (Flightaware)

Listeners: 0 out of 3020 total

Regional Approach (DFW Feeder West): 119.875

KDFW Reg Dep (East) (Archives)
Dallas, Texas, United States

Feed Status: UP
Listen in your browser - HTML5 player(in browser, HTML5)
Click here to listen with your own player(launches your MP3 player)

KDFW 061553Z 01005KT 10SM FEW120 FEW250 26/12 A3019 RMK AO2 SLP215 T02560117

KDFW Airport Info (Airnav.com)

KDFW Flight Activity (Flightaware)

Listeners: 0 out of 3020 total

Regional Departure (East): 118.550

KDFW Reg Dep (North/South) (Archives)
Dallas, Texas, United States

Feed Status: UP
Listen in your browser - HTML5 player(in browser, HTML5)
Click here to listen with your own player(launches your MP3 player)

KDFW 061553Z 01005KT 10SM FEW120 FEW250 26/12 A3019 RMK AO2 SLP215 T02560117

KDFW Airport Info (Airnav.com)

KDFW Flight Activity (Flightaware)

Listeners: 0 out of 3020 total

Regional Departure (North/South): 125.125

KDFW Reg Dep (West) (Archives)
Dallas, Texas, United States

Feed Status: UP
Listen in your browser - HTML5 player(in browser, HTML5)
Click here to listen with your own player(launches your MP3 player)

KDFW 061553Z 01005KT 10SM FEW120 FEW250 26/12 A3019 RMK AO2 SLP215 T02560117

KDFW Airport Info (Airnav.com)

KDFW Flight Activity (Flightaware)

Listeners: 0 out of 3020 total

Regional Departure (West): 126.475

KDFW Tower (East) (Archives)
Dallas, Texas, United States

Feed Status: UP
Listen in your browser - HTML5 player(in browser, HTML5)
Click here to listen with your own player(launches your MP3 player)

KDFW 061553Z 01005KT 10SM FEW120 FEW250 26/12 A3019 RMK AO2 SLP215 T02560117

KDFW Airport Info (Airnav.com)

KDFW Flight Activity (Flightaware)

Listeners: 0 out of 3020 total

DFW Tower (East): 126.550
DFW Tower (East): 127.500

KDFW Tower (East/126.55) (Archives)
Dallas, Texas, United States

Feed Status: UP
Listen in your browser - HTML5 player(in browser, HTML5)
Click here to listen with your own player(launches your MP3 player)

KDFW 061553Z 01005KT 10SM FEW120 FEW250 26/12 A3019 RMK AO2 SLP215 T02560117

KDFW Airport Info (Airnav.com)

KDFW Flight Activity (Flightaware)

Listeners: 0 out of 3020 total

DFW Tower (East): 126.550

KDFW Tower (East/127.5) (Archives)
Dallas, Texas, United States

Feed Status: UP
Listen in your browser - HTML5 player(in browser, HTML5)
Click here to listen with your own player(launches your MP3 player)

KDFW 061553Z 01005KT 10SM FEW120 FEW250 26/12 A3019 RMK AO2 SLP215 T02560117

KDFW Airport Info (Airnav.com)

KDFW Flight Activity (Flightaware)

Listeners: 0 out of 3020 total

DFW Tower (East): 127.500

KDFW Tower (Emergency) (Archives)
Dallas, Texas, United States

Feed Status: UP
Listen in your browser - HTML5 player(in browser, HTML5)
Click here to listen with your own player(launches your MP3 player)

KDFW 061553Z 01005KT 10SM FEW120 FEW250 26/12 A3019 RMK AO2 SLP215 T02560117

KDFW Airport Info (Airnav.com)

KDFW Flight Activity (Flightaware)

Listeners: 0 out of 3020 total

DFW Tower (Emergency/Discrete): 135.700

KDFW Tower (West) (Archives)
Dallas, Texas, United States

Feed Status: UP
Listen in your browser - HTML5 player(in browser, HTML5)
Click here to listen with your own player(launches your MP3 player)

KDFW 061553Z 01005KT 10SM FEW120 FEW250 26/12 A3019 RMK AO2 SLP215 T02560117

KDFW Airport Info (Airnav.com)

KDFW Flight Activity (Flightaware)

Listeners: 0 out of 3020 total

DFW Tower (West): 124.150

KDFW Tower (West/Rwy 13R/31L) (Archives)
Dallas, Texas, United States

Feed Status: UP
Listen in your browser - HTML5 player(in browser, HTML5)
Click here to listen with your own player(launches your MP3 player)

KDFW 061553Z 01005KT 10SM FEW120 FEW250 26/12 A3019 RMK AO2 SLP215 T02560117

KDFW Airport Info (Airnav.com)

KDFW Flight Activity (Flightaware)

Listeners: 0 out of 3020 total

DFW Tower (Rwy 13R): 134.900

KDPA Chicago Approach (Archives)
Chicago, Illinois, United States

Feed Status: UP
Listen in your browser - HTML5 player(in browser, HTML5)
Click here to listen with your own player(launches your MP3 player)

KORD 061551Z 26006KT 10SM FEW080 SCT095 BKN250 19/09 A3001 RMK AO2 SLP161 T01940094

KORD Airport Info (Airnav.com)

KORD Flight Activity (Flightaware)

Listeners: 0 out of 3020 total

Chicago Approach/Departure: 133.500

KEWR ATIS (Archives)
Newark, New York, United States

Feed Status: UP
Listen in your browser - HTML5 player(in browser, HTML5)
Click here to listen with your own player(launches your MP3 player)

KEWR 061551Z 00000KT 10SM SCT250 20/09 A2998 RMK SLP153 T02000089

KEWR Airport Info (Airnav.com)

KEWR Flight Activity (Flightaware)

Listeners: 0 out of 3020 total

Newark ATIS: 134.825

KEWR Clearance Delivery (Archives)
Newark, New Jersey, United States

Feed Status: UP
Listen in your browser - HTML5 player(in browser, HTML5)
Click here to listen with your own player(launches your MP3 player)

KEWR 061551Z 00000KT 10SM SCT250 20/09 A2998 RMK SLP153 T02000089

KEWR Airport Info (Airnav.com)

KEWR Flight Activity (Flightaware)

Listeners: 0 out of 3020 total

Newark Clearance Delivery: 118.850

KEWR Ground (Archives)
Newark, New Jersey, United States

Feed Status: UP
Listen in your browser - HTML5 player(in browser, HTML5)
Click here to listen with your own player(launches your MP3 player)

KEWR 061551Z 00000KT 10SM SCT250 20/09 A2998 RMK SLP153 T02000089

KEWR Airport Info (Airnav.com)

KEWR Flight Activity (Flightaware)

Listeners: 5 out of 3020 total

Newark Ground (Primary): 121.800

KEWR Ground (Pre-Taxi)
Newark, New Jersey, United States

Feed Status: DOWN
Offline since: 2022-02-24 04:01:21 UTC

KEWR 061551Z 00000KT 10SM SCT250 20/09 A2998 RMK SLP153 T02000089

KEWR Airport Info (Airnav.com)

Newark Ground (Pre-Taxi): 126.150

KEWR NY App (ARD Sector) (Archives)
Newark, New York, United States

Feed Status: UP
Listen in your browser - HTML5 player(in browser, HTML5)
Click here to listen with your own player(launches your MP3 player)

KEWR 061551Z 00000KT 10SM SCT250 20/09 A2998 RMK SLP153 T02000089

KEWR Airport Info (Airnav.com)

KEWR Flight Activity (Flightaware)

Listeners: 0 out of 3020 total

New York Approach (ARD Sector): 128.550

KEWR NY App (EWR Final) (Archives)
Newark, New Jersey, United States

Feed Status: UP
Listen in your browser - HTML5 player(in browser, HTML5)
Click here to listen with your own player(launches your MP3 player)

KEWR 061551Z 00000KT 10SM SCT250 20/09 A2998 RMK SLP153 T02000089

KEWR Airport Info (Airnav.com)

KEWR Flight Activity (Flightaware)

Listeners: 0 out of 3020 total

New York Approach (EWR Final): 125.500

KEWR NY App (EWR Satellite)
Newark, New Jersey, United States

Feed Status: DOWN
Offline since: 2022-02-24 04:01:21 UTC

KEWR 061551Z 00000KT 10SM SCT250 20/09 A2998 RMK SLP153 T02000089

KEWR Airport Info (Airnav.com)

New York Approach (EWR Satellite): 126.700

KEWR NY App (MUGZY Sector) (Archives)
Newark, New Jersey, United States

Feed Status: UP
Listen in your browser - HTML5 player(in browser, HTML5)
Click here to listen with your own player(launches your MP3 player)

KEWR 061551Z 00000KT 10SM SCT250 20/09 A2998 RMK SLP153 T02000089

KEWR Airport Info (Airnav.com)

KEWR Flight Activity (Flightaware)

Listeners: 0 out of 3020 total

New York Approach (MUGZY Sector): 127.600

KEWR NY App (N. Arrival) (Archives)
Newark, New Jersey, United States

Feed Status: UP
Listen in your browser - HTML5 player(in browser, HTML5)
Click here to listen with your own player(launches your MP3 player)

KEWR 061551Z 00000KT 10SM SCT250 20/09 A2998 RMK SLP153 T02000089

KEWR Airport Info (Airnav.com)

KEWR Flight Activity (Flightaware)

Listeners: 3 out of 3020 total

New York Approach (North Arrival): 120.150

KEWR NY Departure (Archives)
Newark, New Jersey, United States

Feed Status: UP
Listen in your browser - HTML5 player(in browser, HTML5)
Click here to listen with your own player(launches your MP3 player)

KEWR 061551Z 00000KT 10SM SCT250 20/09 A2998 RMK SLP153 T02000089

KEWR Airport Info (Airnav.com)

KEWR Flight Activity (Flightaware)

Listeners: 0 out of 3020 total

New York Departure: 119.200

KEWR Ramp/Company/Misc (Archives)
Newark, New Jersey, United States

Feed Status: UP
Listen in your browser - HTML5 player(in browser, HTML5)
Click here to listen with your own player(launches your MP3 player)

KEWR 061551Z 00000KT 10SM SCT250 20/09 A2998 RMK SLP153 T02000089

KEWR Airport Info (Airnav.com)

KEWR Flight Activity (Flightaware)

Listeners: 0 out of 3020 total

Ramp/Company Channels: MISC

KEWR Tower (Archives)
Newark, New Jersey, United States

Feed Status: UP
Listen in your browser - HTML5 player(in browser, HTML5)
Click here to listen with your own player(launches your MP3 player)

KEWR 061551Z 00000KT 10SM SCT250 20/09 A2998 RMK SLP153 T02000089

KEWR Airport Info (Airnav.com)

KEWR Flight Activity (Flightaware)

Listeners: 7 out of 3020 total

Newark Tower: 118.300

KEWR Tower (TCA) (Archives)
Newark, New Jersey, United States

Feed Status: UP
Listen in your browser - HTML5 player(in browser, HTML5)
Click here to listen with your own player(launches your MP3 player)

KEWR 061551Z 00000KT 10SM SCT250 20/09 A2998 RMK SLP153 T02000089

KEWR Airport Info (Airnav.com)

KEWR Flight Activity (Flightaware)

Listeners: 1 out of 3020 total

Newark Tower (TCA/2000' and below): 127.850

KEWR Tower/TCA/Backup (Archives)
Newark, New Jersey, United States

Feed Status: UP
Listen in your browser - HTML5 player(in browser, HTML5)
Click here to listen with your own player(launches your MP3 player)

KEWR 061551Z 00000KT 10SM SCT250 20/09 A2998 RMK SLP153 T02000089

KEWR Airport Info (Airnav.com)

KEWR Flight Activity (Flightaware)

Listeners: 2 out of 3020 total

Newark Tower: 118.300
Newark Tower (Backup/Secondary): 134.050
Newark Tower (TCA/Helicopter): 127.850

KLGA NY App (EMPYR) (Archives)
Newark, New Jersey, United States

Feed Status: UP
Listen in your browser - HTML5 player(in browser, HTML5)
Click here to listen with your own player(launches your MP3 player)

KEWR 061551Z 00000KT 10SM SCT250 20/09 A2998 RMK SLP153 T02000089

KEWR Airport Info (Airnav.com)

KEWR Flight Activity (Flightaware)

Listeners: 2 out of 3020 total

New York Approach (EMPYR Sector): 127.300

NY Departure (Liberty South) (Archives)
Newark, New Jersey, United States

Feed Status: UP
Listen in your browser - HTML5 player(in browser, HTML5)
Click here to listen with your own player(launches your MP3 player)

KEWR 061551Z 00000KT 10SM SCT250 20/09 A2998 RMK SLP153 T02000089

KEWR Airport Info (Airnav.com)

KEWR Flight Activity (Flightaware)

Listeners: 0 out of 3020 total

New York Departure (Liberty South): 124.750

NY Departure (Liberty West) (Archives)
Newark, New Jersey, United States

Feed Status: UP
Listen in your browser - HTML5 player(in browser, HTML5)
Click here to listen with your own player(launches your MP3 player)

KEWR 061551Z 00000KT 10SM SCT250 20/09 A2998 RMK SLP153 T02000089

KEWR Airport Info (Airnav.com)

KEWR Flight Activity (Flightaware)

Listeners: 0 out of 3020 total

New York Departure (Liberty West): 120.850

KFLL Departure (Archives)
Fort Lauderdale, Florida, United States

Feed Status: UP
Listen in your browser - HTML5 player(in browser, HTML5)
Click here to listen with your own player(launches your MP3 player)

KMIA 061553Z 04005KT 10SM SCT035 BKN065 BKN080 28/19 A3007 RMK AO2 SLP181 T02830194

KMIA Airport Info (Airnav.com)

KMIA Flight Activity (Flightaware)

Listeners: 0 out of 3020 total

Miami Departure (FLL): 126.050

KMIA Approach (KFLL) (Archives)
Miami, Florida, United States

Feed Status: UP
Listen in your browser - HTML5 player(in browser, HTML5)
Click here to listen with your own player(launches your MP3 player)

KMIA 061553Z 04005KT 10SM SCT035 BKN065 BKN080 28/19 A3007 RMK AO2 SLP181 T02830194

KMIA Airport Info (Airnav.com)

KMIA Flight Activity (Flightaware)

Listeners: 2 out of 3020 total

Miami Approach (KFLL): 133.775

Atlanta Approach (N. Sat) (Archives)
Atlanta, Georgia, United States

Feed Status: UP
Listen in your browser - HTML5 player(in browser, HTML5)
Click here to listen with your own player(launches your MP3 player)

KRYY 061550Z 29004KT 10SM CLR 21/09 A3014 RMK AO2 SLP200 T02110094 $

KRYY Airport Info (Airnav.com)

KRYY Flight Activity (Flightaware)

Listeners: 1 out of 3020 total

Atlanta Approach (North Satellite): 121.000

KHOU Gnd/Twr/App (Archives)
Houston, Texas, United States

Feed Status: UP
Listen in your browser - HTML5 player(in browser, HTML5)
Click here to listen with your own player(launches your MP3 player)

KHOU 061553Z 34006KT 10SM FEW250 27/17 A3016 RMK AO2 SLP218 T02720172

KHOU Airport Info (Airnav.com)

KHOU Flight Activity (Flightaware)

Listeners: 0 out of 3020 total

Hobby Approach (Final): 133.050
Hobby Ground: 121.900
Hobby Tower: 118.700

NY Approach (NOBBI/NYACK/HAARP) (Archives)
New York, New York, United States

Feed Status: UP
Listen in your browser - HTML5 player(in browser, HTML5)
Click here to listen with your own player(launches your MP3 player)

KHPN 061556Z 36008KT 10SM CLR 18/10 A2999

KHPN Airport Info (Airnav.com)

KHPN Flight Activity (Flightaware)

Listeners: 1 out of 3020 total

New York Approach (HAARP Sector): 135.350
New York Approach (HAARP Sector): 120.800
New York Approach (NOBBI Sector): 126.400
New York Approach (NYACK Sector): 120.550

KIAD App (Final Center) (Archives)
Washington, District of Columbia, United States

Feed Status: UP
Listen in your browser - HTML5 player(in browser, HTML5)
Click here to listen with your own player(launches your MP3 player)

KIAD 061552Z 32007KT 10SM FEW250 23/10 A3004 RMK AO2 SLP170 T02280100

KIAD Airport Info (Airnav.com)

KIAD Flight Activity (Flightaware)

Listeners: 0 out of 3020 total

Potomac Approach (IADFC, Final Center): 134.200

KIAD App (Final East) (Archives)
Washington, District of Columbia, United States

Feed Status: UP
Listen in your browser - HTML5 player(in browser, HTML5)
Click here to listen with your own player(launches your MP3 player)

KIAD 061552Z 32007KT 10SM FEW250 23/10 A3004 RMK AO2 SLP170 T02280100

KIAD Airport Info (Airnav.com)

KIAD Flight Activity (Flightaware)

Listeners: 2 out of 3020 total

Potomac Approach (IADFE KIAD Final East): 125.800

KIAD App (North Arr Hi) (Archives)
Washington, District of Columbia, United States

Feed Status: UP
Listen in your browser - HTML5 player(in browser, HTML5)
Click here to listen with your own player(launches your MP3 player)

KMRB 061553Z 00000KT 10SM CLR 20/11 A3005 RMK AO2 SLP173 T02000106

KMRB Airport Info (Airnav.com)

KMRB Flight Activity (Flightaware)

Listeners: 0 out of 3020 total

Potomac Approach (BINNS, North Arrival High): 133.000

KIAD App (South Arrival) (Archives)
Washington, District of Columbia, United States

Feed Status: UP
Listen in your browser - HTML5 player(in browser, HTML5)
Click here to listen with your own player(launches your MP3 player)

KIAD 061552Z 32007KT 10SM FEW250 23/10 A3004 RMK AO2 SLP170 T02280100

KIAD Airport Info (Airnav.com)

KIAD Flight Activity (Flightaware)

Listeners: 0 out of 3020 total

Potomac Approach (BARIN Sector, South Arrival): 128.525
Potomac Approach (BRISTO Sector, South Satellite): 120.825

KIAD App (West Arrival MANNE) (Archives)
Washington, District of Columbia, United States

Feed Status: UP
Listen in your browser - HTML5 player(in browser, HTML5)
Click here to listen with your own player(launches your MP3 player)

KIAD 061552Z 32007KT 10SM FEW250 23/10 A3004 RMK AO2 SLP170 T02280100

KIAD Airport Info (Airnav.com)

KIAD Flight Activity (Flightaware)

Listeners: 0 out of 3020 total

Potomac Approach (MANNE Sector, West Arrival): 120.450

KIAD Approach (North Arrival MULRR) (Archives)
Washington, District of Columbia, United States

Feed Status: UP
Listen in your browser - HTML5 player(in browser, HTML5)
Click here to listen with your own player(launches your MP3 player)

KIAD 061552Z 32007KT 10SM FEW250 23/10 A3004 RMK AO2 SLP170 T02280100

KIAD Airport Info (Airnav.com)

KIAD Flight Activity (Flightaware)

Listeners: 0 out of 3020 total

Potomac Approach (North Arrival MULLR): 126.100

KIAD Area - SFRA West (Archives)
Washington, District of Columbia, United States

Feed Status: UP
Listen in your browser - HTML5 player(in browser, HTML5)
Click here to listen with your own player(launches your MP3 player)

KIAD 061552Z 32007KT 10SM FEW250 23/10 A3004 RMK AO2 SLP170 T02280100

KIAD Airport Info (Airnav.com)

KIAD Flight Activity (Flightaware)

Listeners: 0 out of 3020 total

Potomac Approach (SFRA West): 127.325

KIAD Del/Gnd (Archives)
Washington, District of Columbia, United States

Feed Status: UP
Listen in your browser - HTML5 player(in browser, HTML5)
Click here to listen with your own player(launches your MP3 player)

KIAD 061552Z 32007KT 10SM FEW250 23/10 A3004 RMK AO2 SLP170 T02280100

KIAD Airport Info (Airnav.com)

KIAD Flight Activity (Flightaware)

Listeners: 1 out of 3020 total

Dulles Clearance Delivery: 135.700
Dulles Ground (East): 121.900
Dulles Ground (West): 121.625
Dulles Ground (West): 132.450

KIAD Departure (Archives)
Washington, District of Columbia, United States

Feed Status: UP
Listen in your browser - HTML5 player(in browser, HTML5)
Click here to listen with your own player(launches your MP3 player)

KIAD 061552Z 32007KT 10SM FEW250 23/10 A3004 RMK AO2 SLP170 T02280100

KIAD Airport Info (Airnav.com)

KIAD Flight Activity (Flightaware)

Listeners: 1 out of 3020 total

Potomac Departure (KIAD North Dep ASPER): 125.050
Potomac Departure (KIAD South Dep ASPER): 126.650

KIAD Twr (Rwy 1C/19C) (Archives)
Washington, District of Columbia, United States

Feed Status: UP
Listen in your browser - HTML5 player(in browser, HTML5)
Click here to listen with your own player(launches your MP3 player)

KIAD 061552Z 32007KT 10SM FEW250 23/10 A3004 RMK AO2 SLP170 T02280100

KIAD Airport Info (Airnav.com)

KIAD Flight Activity (Flightaware)

Listeners: 0 out of 3020 total

Dulles Tower (Rwy 1C/19C): 120.250

KIAD Twr (Rwy 1L/19R/12/30) (Archives)
Washington, District of Columbia, United States

Feed Status: UP
Listen in your browser - HTML5 player(in browser, HTML5)
Click here to listen with your own player(launches your MP3 player)

KIAD 061552Z 32007KT 10SM FEW250 23/10 A3004 RMK AO2 SLP170 T02280100

KIAD Airport Info (Airnav.com)

KIAD Flight Activity (Flightaware)

Listeners: 3 out of 3020 total

Dulles Tower (Rwys 1L/19R/12/30): 134.425

KIAD Twr (Rwy 1L/1C/19R/19C) (Archives)
Washington, District of Columbia, United States

Feed Status: UP
Listen in your browser - HTML5 player(in browser, HTML5)
Click here to listen with your own player(launches your MP3 player)

KIAD 061552Z 32007KT 10SM FEW250 23/10 A3004 RMK AO2 SLP170 T02280100

KIAD Airport Info (Airnav.com)

KIAD Flight Activity (Flightaware)

Listeners: 2 out of 3020 total

Dulles Tower (Rwy 1C/19C): 120.250
Dulles Tower (Rwys 1L/19R/12/30): 134.425

KIAD Twr (Rwy 1R/19L) (Archives)
Washington, District of Columbia, United States

Feed Status: UP
Listen in your browser - HTML5 player(in browser, HTML5)
Click here to listen with your own player(launches your MP3 player)

KIAD 061552Z 32007KT 10SM FEW250 23/10 A3004 RMK AO2 SLP170 T02280100

KIAD Airport Info (Airnav.com)

KIAD Flight Activity (Flightaware)

Listeners: 1 out of 3020 total

Dulles Tower (Rwy 1R/19L): 120.100

KIAH Approach (Archives)
Houston, Texas, United States

Feed Status: UP
Listen in your browser - HTML5 player(in browser, HTML5)
Click here to listen with your own player(launches your MP3 player)

KIAH 061553Z 36004KT 10SM FEW250 27/17 A3017 RMK AO2 SLP215 T02720167

KIAH Airport Info (Airnav.com)

KIAH Flight Activity (Flightaware)

Listeners: 3 out of 3020 total

Houston Approach (backup): 121.250
Houston Approach (NE): 120.050
Houston Approach (NW): 124.350
Houston Approach (SE): 119.625
Houston Approach (SW): 119.175
Houston Departure (East, Low): 133.600
Houston Departure (NE High): 132.250
Houston Departure (North, Low): 119.700
Houston Departure (South High): 127.125
Houston Departure (South, Low): 134.450
Houston Departure (West High): 126.675
Houston Departure (West, Low): 123.800
Houston Final (8L/26R): 119.100
Houston Final (8R/26L): 120.650
Houston Final (9/27): 134.000

KIAH ATIS (Construction) (Archives)
Houston, Texas, United States

Feed Status: UP
Listen in your browser - HTML5 player(in browser, HTML5)
Click here to listen with your own player(launches your MP3 player)

KIAH 061553Z 36004KT 10SM FEW250 27/17 A3017 RMK AO2 SLP215 T02720167

KIAH Airport Info (Airnav.com)

KIAH Flight Activity (Flightaware)

Listeners: 0 out of 3020 total

Houston ATIS (Construction): 126.225

KIAH ATIS (Main) (Archives)
Houston, Texas, United States

Feed Status: UP
Listen in your browser - HTML5 player(in browser, HTML5)
Click here to listen with your own player(launches your MP3 player)

KIAH 061553Z 36004KT 10SM FEW250 27/17 A3017 RMK AO2 SLP215 T02720167

KIAH Airport Info (Airnav.com)

KIAH Flight Activity (Flightaware)

Listeners: 0 out of 3020 total

Houston D-ATIS: 124.050

KIAH Clearance Delivery (Archives)
Houston, Texas, United States

Feed Status: UP
Listen in your browser - HTML5 player(in browser, HTML5)
Click here to listen with your own player(launches your MP3 player)

KIAH 061553Z 36004KT 10SM FEW250 27/17 A3017 RMK AO2 SLP215 T02720167

KIAH Airport Info (Airnav.com)

KIAH Flight Activity (Flightaware)

Listeners: 0 out of 3020 total

Houston Clearance Delivery: 128.100

KIAH Gnd (North/Rwys 8/26LR) (Archives)
Houston, Texas, United States

Feed Status: UP
Listen in your browser - HTML5 player(in browser, HTML5)
Click here to listen with your own player(launches your MP3 player)

KIAH 061553Z 36004KT 10SM FEW250 27/17 A3017 RMK AO2 SLP215 T02720167

KIAH Airport Info (Airnav.com)

KIAH Flight Activity (Flightaware)

Listeners: 0 out of 3020 total

Houston Ground (North/Runways 8/26RL): 121.700

KIAH Gnd (South/Rwy 9/27) (Archives)
Houston, Texas, United States

Feed Status: UP
Listen in your browser - HTML5 player(in browser, HTML5)
Click here to listen with your own player(launches your MP3 player)

KIAH 061553Z 36004KT 10SM FEW250 27/17 A3017 RMK AO2 SLP215 T02720167

KIAH Airport Info (Airnav.com)

KIAH Flight Activity (Flightaware)

Listeners: 0 out of 3020 total

Houston Ground (South): 119.825

KIAH Gnd (West/Rwys 15/33LR) (Archives)
Houston, Texas, United States

Feed Status: UP
Listen in your browser - HTML5 player(in browser, HTML5)
Click here to listen with your own player(launches your MP3 player)

KIAH 061553Z 36004KT 10SM FEW250 27/17 A3017 RMK AO2 SLP215 T02720167

KIAH Airport Info (Airnav.com)

KIAH Flight Activity (Flightaware)

Listeners: 0 out of 3020 total

Houston Ground (West): 118.575

KIAH Metering (Archives)
Houston, Texas, United States

Feed Status: UP
Listen in your browser - HTML5 player(in browser, HTML5)
Click here to listen with your own player(launches your MP3 player)

KIAH 061553Z 36004KT 10SM FEW250 27/17 A3017 RMK AO2 SLP215 T02720167

KIAH Airport Info (Airnav.com)

KIAH Flight Activity (Flightaware)

Listeners: 0 out of 3020 total

Houston Metering: 119.950

KIAH Ramp (North) (Archives)
Houston, Texas, United States

Feed Status: UP
Listen in your browser - HTML5 player(in browser, HTML5)
Click here to listen with your own player(launches your MP3 player)

KIAH 061553Z 36004KT 10SM FEW250 27/17 A3017 RMK AO2 SLP215 T02720167

KIAH Airport Info (Airnav.com)

KIAH Flight Activity (Flightaware)

Listeners: 0 out of 3020 total

Houston Ramp (North): 130.825

KIAH Ramp (South) (Archives)
Houston, Texas, United States

Feed Status: UP
Listen in your browser - HTML5 player(in browser, HTML5)
Click here to listen with your own player(launches your MP3 player)

KIAH 061553Z 36004KT 10SM FEW250 27/17 A3017 RMK AO2 SLP215 T02720167

KIAH Airport Info (Airnav.com)

KIAH Flight Activity (Flightaware)

Listeners: 0 out of 3020 total

Houston Ramp (South): 131.275

KIAH Ramp (West) (Archives)
Houston, Texas, United States

Feed Status: UP
Listen in your browser - HTML5 player(in browser, HTML5)
Click here to listen with your own player(launches your MP3 player)

KIAH 061553Z 36004KT 10SM FEW250 27/17 A3017 RMK AO2 SLP215 T02720167

KIAH Airport Info (Airnav.com)

KIAH Flight Activity (Flightaware)

Listeners: 0 out of 3020 total

Houston Ramp (West): 121.625

KIAH Tower (Archives)
Houston, Texas, United States

Feed Status: UP
Listen in your browser - HTML5 player(in browser, HTML5)
Click here to listen with your own player(launches your MP3 player)

KIAH 061553Z 36004KT 10SM FEW250 27/17 A3017 RMK AO2 SLP215 T02720167

KIAH Airport Info (Airnav.com)

KIAH Flight Activity (Flightaware)

Listeners: 2 out of 3020 total

Houston Tower: 119.825
Houston Tower: 120.725
Houston Tower (15L/33R & 15R/33L): 127.300
Houston Tower (8R/26L): 125.350
Houston Tower (9/27): 135.150

KIAH Twr (Rwy 8L/26R) (Archives)
Houston, Texas, United States

Feed Status: UP
Listen in your browser - HTML5 player(in browser, HTML5)
Click here to listen with your own player(launches your MP3 player)

KIAH 061553Z 36004KT 10SM FEW250 27/17 A3017 RMK AO2 SLP215 T02720167

KIAH Airport Info (Airnav.com)

KIAH Flight Activity (Flightaware)

Listeners: 0 out of 3020 total

Houston Tower (Runway 8L/26R): 120.725

KIAH Twr (Rwy 8R/26L) (Archives)
Houston, Texas, United States

Feed Status: UP
Listen in your browser - HTML5 player(in browser, HTML5)
Click here to listen with your own player(launches your MP3 player)

KIAH 061553Z 36004KT 10SM FEW250 27/17 A3017 RMK AO2 SLP215 T02720167

KIAH Airport Info (Airnav.com)

KIAH Flight Activity (Flightaware)

Listeners: 0 out of 3020 total

Houston Tower (Runway 8R/26L): 125.350

KIAH Twr (Rwy 9/27) (Archives)
Houston, Texas, United States

Feed Status: UP
Listen in your browser - HTML5 player(in browser, HTML5)
Click here to listen with your own player(launches your MP3 player)

KIAH 061553Z 36004KT 10SM FEW250 27/17 A3017 RMK AO2 SLP215 T02720167

KIAH Airport Info (Airnav.com)

KIAH Flight Activity (Flightaware)

Listeners: 0 out of 3020 total

Houston Tower (Rwy 09/27): 135.150

KIAH Twr (Rwys 15/33RL) (Archives)
Houston, Texas, United States

Feed Status: UP
Listen in your browser - HTML5 player(in browser, HTML5)
Click here to listen with your own player(launches your MP3 player)

KIAH 061553Z 36004KT 10SM FEW250 27/17 A3017 RMK AO2 SLP215 T02720167

KIAH Airport Info (Airnav.com)

KIAH Flight Activity (Flightaware)

Listeners: 0 out of 3020 total

Houston Tower (Runways 15/33LR): 127.300

KPHX Approach (Pima/Willy Sectors) (Archives)
Chandler, Arizona, United States

Feed Status: UP
Listen in your browser - HTML5 player(in browser, HTML5)
Click here to listen with your own player(launches your MP3 player)

KPHX 061551Z 10005KT 10SM FEW120 FEW210 FEW240 27/11 A3004 RMK AO2 SLP156 T02670106

KPHX Airport Info (Airnav.com)

KPHX Flight Activity (Flightaware)

Listeners: 0 out of 3020 total

Phoenix Approach (Pima Sector): 123.700
Phoenix Approach (Willy Sector): 124.900

ARINC (JFK/LGA Area) (Archives)
New York, New York, United States

Feed Status: UP
Listen in your browser - HTML5 player(in browser, HTML5)
Click here to listen with your own player(launches your MP3 player)

KJFK 061551Z 34006KT 10SM SCT250 21/08 A2998 RMK AO2 SLP153 T02060083

KJFK Airport Info (Airnav.com)

KJFK Flight Activity (Flightaware)

Listeners: 2 out of 3020 total

ARINC (KJFK Ground Station): 129.900
ARINC (KLGA Ground Station): 129.400

KJFK Clearance Delivery
New York, New York, United States

Feed Status: DOWN
Offline since: 2022-10-01 17:33:06 UTC

KJFK 061551Z 34006KT 10SM SCT250 21/08 A2998 RMK AO2 SLP153 T02060083

KJFK Airport Info (Airnav.com)

JFK Clearance Delivery: 135.050

KJFK Company/Ramp (Archives)
New York, New York, United States

Feed Status: UP
Listen in your browser - HTML5 player(in browser, HTML5)
Click here to listen with your own player(launches your MP3 player)

KJFK 061551Z 34006KT 10SM SCT250 21/08 A2998 RMK AO2 SLP153 T02060083

KJFK Airport Info (Airnav.com)

KJFK Flight Activity (Flightaware)

Listeners: 2 out of 3020 total

Cargoitalia: 131.400
Delta: 129.650
JetBlue: 129.825
JetBlue: 129.100
JetBlue: 136.550
Sun Country: 131.950
United: 131.500

KJFK D-ATIS (Archives)
New York, New York, United States

Feed Status: UP
Listen in your browser - HTML5 player(in browser, HTML5)
Click here to listen with your own player(launches your MP3 player)

KJFK 061551Z 34006KT 10SM SCT250 21/08 A2998 RMK AO2 SLP153 T02060083

KJFK Airport Info (Airnav.com)

KJFK Flight Activity (Flightaware)

Listeners: 0 out of 3020 total

KJFK D-ATIS: 128.725

KJFK Gnd/Twr #1
New York, New York, United States

Feed Status: DOWN
Offline since: 2022-10-01 17:32:40 UTC

KJFK 061551Z 34006KT 10SM SCT250 21/08 A2998 RMK AO2 SLP153 T02060083

KJFK Airport Info (Airnav.com)

JFK Ground: 121.900
JFK Ground: 121.650
JFK Tower (4L/22R, 13R/31L): 123.900
JFK Tower (4R/22L, 13L/31R): 119.100
TCA (Class B 2000ft/below within 8nm): 125.250

KJFK Gnd/Twr #2 (Archives)
New York, New York, United States

Feed Status: UP
Listen in your browser - HTML5 player(in browser, HTML5)
Click here to listen with your own player(launches your MP3 player)

KJFK 061551Z 34006KT 10SM SCT250 21/08 A2998 RMK AO2 SLP153 T02060083

KJFK Airport Info (Airnav.com)

KJFK Flight Activity (Flightaware)

Listeners: 5 out of 3020 total

JFK Ground: 121.650
JFK Ground: 121.900
JFK Tower (4L/22R, 13R/31L): 123.900
JFK Tower (4R/22L, 13L/31R): 119.100
TCA (Class B 2000ft/below within 8nm): 125.250

KJFK Ground
New York, New York, United States

Feed Status: DOWN
Offline since: 2022-10-01 17:33:06 UTC

KJFK 061551Z 34006KT 10SM SCT250 21/08 A2998 RMK AO2 SLP153 T02060083

KJFK Airport Info (Airnav.com)

JFK Ground: 121.900
JFK Ground: 121.650

KJFK Ground #2 (Archives)
New York, New York, United States

Feed Status: UP
Listen in your browser - HTML5 player(in browser, HTML5)
Click here to listen with your own player(launches your MP3 player)

KJFK 061551Z 34006KT 10SM SCT250 21/08 A2998 RMK AO2 SLP153 T02060083

KJFK Airport Info (Airnav.com)

KJFK Flight Activity (Flightaware)

Listeners: 5 out of 3020 total

JFK Ground: 121.650
JFK Ground: 121.900

KJFK Tower (Archives)
New York, New York, United States

Feed Status: UP
Listen in your browser - HTML5 player(in browser, HTML5)
Click here to listen with your own player(launches your MP3 player)

KJFK 061551Z 34006KT 10SM SCT250 21/08 A2998 RMK AO2 SLP153 T02060083

KJFK Airport Info (Airnav.com)

KJFK Flight Activity (Flightaware)

Listeners: 8 out of 3020 total

JFK Tower (4R/22L, 13L/31R): 119.100

KJFK Tower #2 (Archives)
New York, New York, United States

Feed Status: UP
Listen in your browser - HTML5 player(in browser, HTML5)
Click here to listen with your own player(launches your MP3 player)

KJFK 061551Z 34006KT 10SM SCT250 21/08 A2998 RMK AO2 SLP153 T02060083

KJFK Airport Info (Airnav.com)

KJFK Flight Activity (Flightaware)

Listeners: 1 out of 3020 total

JFK Tower (4L/22R, 13R/31L): 123.900
JFK Tower (4R/22L, 13L/31R): 119.100

KJFK Tower #3 (Archives)
New York, New York, United States

Feed Status: UP
Listen in your browser - HTML5 player(in browser, HTML5)
Click here to listen with your own player(launches your MP3 player)

KJFK 061551Z 34006KT 10SM SCT250 21/08 A2998 RMK AO2 SLP153 T02060083

KJFK Airport Info (Airnav.com)

KJFK Flight Activity (Flightaware)

Listeners: 2 out of 3020 total

JFK Tower (4L/22R, 13R/31L): 123.900
JFK Tower (4R/22L, 13L/31R): 119.100
TCA (Class B 2000ft/below within 8nm): 125.250

KJFK Tower 119.1 (Archives)
New York, New York, United States

Feed Status: UP
Listen in your browser - HTML5 player(in browser, HTML5)
Click here to listen with your own player(launches your MP3 player)

KJFK 061551Z 34006KT 10SM SCT250 21/08 A2998 RMK AO2 SLP153 T02060083

KJFK Airport Info (Airnav.com)

KJFK Flight Activity (Flightaware)

Listeners: 1 out of 3020 total

JFK Tower (4R/22L, 13L/31R): 119.100

KJFK Tower 123.9 (Archives)
New York, New York, United States

Feed Status: UP
Listen in your browser - HTML5 player(in browser, HTML5)
Click here to listen with your own player(launches your MP3 player)

KJFK 061551Z 34006KT 10SM SCT250 21/08 A2998 RMK AO2 SLP153 T02060083

KJFK Airport Info (Airnav.com)

KJFK Flight Activity (Flightaware)

Listeners: 1 out of 3020 total

JFK Tower (4L/22R, 13R/31L): 123.900

NY Approach (CAMRN/JFK) #1 (Archives)
New York, New York, United States

Feed Status: UP
Listen in your browser - HTML5 player(in browser, HTML5)
Click here to listen with your own player(launches your MP3 player)

KJFK 061551Z 34006KT 10SM SCT250 21/08 A2998 RMK AO2 SLP153 T02060083

KJFK Airport Info (Airnav.com)

KJFK Flight Activity (Flightaware)

Listeners: 2 out of 3020 total

New York Approach (CAMRN Sector): 128.125

NY Approach (CAMRN/JFK) #2 (Archives)
New York, New York, United States

Feed Status: UP
Listen in your browser - HTML5 player(in browser, HTML5)
Click here to listen with your own player(launches your MP3 player)

KJFK 061551Z 34006KT 10SM SCT250 21/08 A2998 RMK AO2 SLP153 T02060083

KJFK Airport Info (Airnav.com)

KJFK Flight Activity (Flightaware)

Listeners: 1 out of 3020 total

New York Approach (CAMRN Sector): 128.125

NY Approach (CAMRN/JFK) #3 (Archives)
New York, New York, United States

Feed Status: UP
Listen in your browser - HTML5 player(in browser, HTML5)
Click here to listen with your own player(launches your MP3 player)

KJFK 061551Z 34006KT 10SM SCT250 21/08 A2998 RMK AO2 SLP153 T02060083

KJFK Airport Info (Airnav.com)

KJFK Flight Activity (Flightaware)

Listeners: 0 out of 3020 total

New York Approach (CAMRN Sector): 127.400

NY Approach (Final/JFK) #1 (Archives)
New York, New York, United States

Feed Status: UP
Listen in your browser - HTML5 player(in browser, HTML5)
Click here to listen with your own player(launches your MP3 player)

KJFK 061551Z 34006KT 10SM SCT250 21/08 A2998 RMK AO2 SLP153 T02060083

KJFK Airport Info (Airnav.com)

KJFK Flight Activity (Flightaware)

Listeners: 1 out of 3020 total

NY Approach (JFK Final Vector): 132.400

NY Approach (Final/JFK) #2 (Archives)
New York, New York, United States

Feed Status: UP
Listen in your browser - HTML5 player(in browser, HTML5)
Click here to listen with your own player(launches your MP3 player)

KJFK 061551Z 34006KT 10SM SCT250 21/08 A2998 RMK AO2 SLP153 T02060083

KJFK Airport Info (Airnav.com)

KJFK Flight Activity (Flightaware)

Listeners: 1 out of 3020 total

NY Approach (JFK Final Vector): 132.400

NY Approach (ROBER/JFK #1) (Archives)
New York, New York, United States

Feed Status: UP
Listen in your browser - HTML5 player(in browser, HTML5)
Click here to listen with your own player(launches your MP3 player)

KJFK 061551Z 34006KT 10SM SCT250 21/08 A2998 RMK AO2 SLP153 T02060083

KJFK Airport Info (Airnav.com)

KJFK Flight Activity (Flightaware)

Listeners: 2 out of 3020 total

NY Approach (ROBER Sector): 125.700

NY Approach (ROBER/JFK #2)
New York, New York, United States

Feed Status: DOWN
Offline since: 2022-10-01 17:33:06 UTC

KJFK 061551Z 34006KT 10SM SCT250 21/08 A2998 RMK AO2 SLP153 T02060083

KJFK Airport Info (Airnav.com)

NY Approach (ROBER sector): 125.700

NY Dep (Liberty North) #1 (Archives)
New York, New York, United States

Feed Status: UP
Listen in your browser - HTML5 player(in browser, HTML5)
Click here to listen with your own player(launches your MP3 player)

KHPN 061556Z 36008KT 10SM CLR 18/10 A2999

KHPN Airport Info (Airnav.com)

KHPN Flight Activity (Flightaware)

Listeners: 0 out of 3020 total

New York Departure (Liberty/North): 118.175

NY Dep (Liberty North) #2 (Archives)
New York, New York, United States

Feed Status: UP
Listen in your browser - HTML5 player(in browser, HTML5)
Click here to listen with your own player(launches your MP3 player)


Listeners: 0 out of 3020 total

New York Departure (Liberty/North): 118.175

NY Departure (JFK) (Archives)
New York, New York, United States

Feed Status: UP
Listen in your browser - HTML5 player(in browser, HTML5)
Click here to listen with your own player(launches your MP3 player)

KJFK 061551Z 34006KT 10SM SCT250 21/08 A2998 RMK AO2 SLP153 T02060083

KJFK Airport Info (Airnav.com)

KJFK Flight Activity (Flightaware)

Listeners: 0 out of 3020 total

NY Departure (JFK): 135.900

Regional Approach (South/RBD)
Midlothian/Waxahachie, Texas, United States

Feed Status: DOWN
Offline since: 2020-03-29 19:10:05 UTC

KRBD 061553Z 02003KT 10SM CLR 26/12 A3020 RMK AO2 SLP218 T02610117

KRBD Airport Info (Airnav.com)

Regional Approach (South): 125.200

KTPA App/Dep (East Low) (Archives)
Lakeland, Florida, United States

Feed Status: UP
Listen in your browser - HTML5 player(in browser, HTML5)
Click here to listen with your own player(launches your MP3 player)

KLAL 061550Z 08005KT 10SM SCT040 27/16 A3011

KLAL Airport Info (Airnav.com)

KLAL Flight Activity (Flightaware)

Listeners: 0 out of 3020 total

Tampa Approach (East of TPA 4000'/below): 119.900
Tampa Approach (Lakeland Area): 120.650

KLAS Approach (Final) (Archives)
Las Vegas, Nevada, United States

Feed Status: UP
Listen in your browser - HTML5 player(in browser, HTML5)
Click here to listen with your own player(launches your MP3 player)

KLAS 061556Z 00000KT 10SM FEW140 25/02 A3015 RMK AO2 SLP186 T02500017

KLAS Airport Info (Airnav.com)

KLAS Flight Activity (Flightaware)

Listeners: 1 out of 3020 total

Las Vegas Approach (Final): 135.000

KLAS Approach (NE) (Archives)
Las Vegas, Nevada, United States

Feed Status: UP
Listen in your browser - HTML5 player(in browser, HTML5)
Click here to listen with your own player(launches your MP3 player)

KLAS 061556Z 00000KT 10SM FEW140 25/02 A3015 RMK AO2 SLP186 T02500017

KLAS Airport Info (Airnav.com)

KLAS Flight Activity (Flightaware)

Listeners: 0 out of 3020 total

Las Vegas Approach (Northeast): 119.400

KLAS Approach (NW) (Archives)
Las Vegas, Nevada, United States

Feed Status: UP
Listen in your browser - HTML5 player(in browser, HTML5)
Click here to listen with your own player(launches your MP3 player)

KLAS 061556Z 00000KT 10SM FEW140 25/02 A3015 RMK AO2 SLP186 T02500017

KLAS Airport Info (Airnav.com)

KLAS Flight Activity (Flightaware)

Listeners: 0 out of 3020 total

Las Vegas Approach (Northwest): 125.025

KLAS Approach (SE) (Archives)
Las Vegas, Nevada, United States

Feed Status: UP
Listen in your browser - HTML5 player(in browser, HTML5)
Click here to listen with your own player(launches your MP3 player)

KLAS 061556Z 00000KT 10SM FEW140 25/02 A3015 RMK AO2 SLP186 T02500017

KLAS Airport Info (Airnav.com)

KLAS Flight Activity (Flightaware)

Listeners: 0 out of 3020 total

Las Vegas Approach (Southeast): 118.400

KLAS Approach (SW) (Archives)
Las Vegas, Nevada, United States

Feed Status: UP
Listen in your browser - HTML5 player(in browser, HTML5)
Click here to listen with your own player(launches your MP3 player)

KLAS 061556Z 00000KT 10SM FEW140 25/02 A3015 RMK AO2 SLP186 T02500017

KLAS Airport Info (Airnav.com)

KLAS Flight Activity (Flightaware)

Listeners: 0 out of 3020 total

Las Vegas Approach (SouthWEST): 119.775

KLAS ATIS (Archives)
Las Vegas, Nevada, United States

Feed Status: UP
Listen in your browser - HTML5 player(in browser, HTML5)
Click here to listen with your own player(launches your MP3 player)

KLAS 061556Z 00000KT 10SM FEW140 25/02 A3015 RMK AO2 SLP186 T02500017

KLAS Airport Info (Airnav.com)

KLAS Flight Activity (Flightaware)

Listeners: 0 out of 3020 total

Las Vegas ATIS: 132.400

KLAS Clearance Delivery (Archives)
Las Vegas, Nevada, United States

Feed Status: UP
Listen in your browser - HTML5 player(in browser, HTML5)
Click here to listen with your own player(launches your MP3 player)

KLAS 061556Z 00000KT 10SM FEW140 25/02 A3015 RMK AO2 SLP186 T02500017

KLAS Airport Info (Airnav.com)

KLAS Flight Activity (Flightaware)

Listeners: 0 out of 3020 total

Las Vegas Clearance Delivery: 118.000

KLAS Departure (Rwys 01/08) (Archives)
Las Vegas, Nevada, United States

Feed Status: UP
Listen in your browser - HTML5 player(in browser, HTML5)
Click here to listen with your own player(launches your MP3 player)

KLAS 061556Z 00000KT 10SM FEW140 25/02 A3015 RMK AO2 SLP186 T02500017

KLAS Airport Info (Airnav.com)

KLAS Flight Activity (Flightaware)

Listeners: 0 out of 3020 total

Las Vegas Departure (Rwys 01/08): 133.950

KLAS Departure (Rwys 19/26) (Archives)
Las Vegas, Nevada, United States

Feed Status: UP
Listen in your browser - HTML5 player(in browser, HTML5)
Click here to listen with your own player(launches your MP3 player)

KLAS 061556Z 00000KT 10SM FEW140 25/02 A3015 RMK AO2 SLP186 T02500017

KLAS Airport Info (Airnav.com)

KLAS Flight Activity (Flightaware)

Listeners: 0 out of 3020 total

Las Vegas Departure (Rwys 19/26): 125.900

KLAS Ground (East) (Archives)
Las Vegas, Nevada, United States

Feed Status: UP
Listen in your browser - HTML5 player(in browser, HTML5)
Click here to listen with your own player(launches your MP3 player)

KLAS 061556Z 00000KT 10SM FEW140 25/02 A3015 RMK AO2 SLP186 T02500017

KLAS Airport Info (Airnav.com)

KLAS Flight Activity (Flightaware)

Listeners: 0 out of 3020 total

Las Vegas Ground (East of 1R/19L): 121.100

KLAS Ground (West) (Archives)
Las Vegas, Nevada, United States

Feed Status: UP
Listen in your browser - HTML5 player(in browser, HTML5)
Click here to listen with your own player(launches your MP3 player)

KLAS 061556Z 00000KT 10SM FEW140 25/02 A3015 RMK AO2 SLP186 T02500017

KLAS Airport Info (Airnav.com)

KLAS Flight Activity (Flightaware)

Listeners: 0 out of 3020 total

Las Vegas Ground (West of 1R/19L): 121.900

KLAS Helicopter Control (Archives)
Las Vegas, Nevada, United States

Feed Status: UP
Listen in your browser - HTML5 player(in browser, HTML5)
Click here to listen with your own player(launches your MP3 player)

KLAS 061556Z 00000KT 10SM FEW140 25/02 A3015 RMK AO2 SLP186 T02500017

KLAS Airport Info (Airnav.com)

KLAS Flight Activity (Flightaware)

Listeners: 0 out of 3020 total

Las Vegas Helicopter Control: 123.825

KLAS Ramp Control (Archives)
Las Vegas, Nevada, United States

Feed Status: UP
Listen in your browser - HTML5 player(in browser, HTML5)
Click here to listen with your own player(launches your MP3 player)

KLAS 061556Z 00000KT 10SM FEW140 25/02 A3015 RMK AO2 SLP186 T02500017

KLAS Airport Info (Airnav.com)

KLAS Flight Activity (Flightaware)

Listeners: 0 out of 3020 total

Las Vegas Ramp Control A/B/C Gates/Int'l Charter: 124.400
Las Vegas Ramp Control D/E Gates/Cargo Ramp: 127.900

KLAS Ramp Control (Archives)
Las Vegas, Nevada, United States

Feed Status: UP
Listen in your browser - HTML5 player(in browser, HTML5)
Click here to listen with your own player(launches your MP3 player)

KLAS 061556Z 00000KT 10SM FEW140 25/02 A3015 RMK AO2 SLP186 T02500017

KLAS Airport Info (Airnav.com)

KLAS Flight Activity (Flightaware)

Listeners: 0 out of 3020 total

Las Vegas Ramp Control A/B/C Gates/Int'l Charter: 124.400
Las Vegas Ramp Control D/E Gates/Cargo Ramp: 127.900

KLAS Tower (Both) (Archives)
Las Vegas, Nevada, United States

Feed Status: UP
Listen in your browser - HTML5 player(in browser, HTML5)
Click here to listen with your own player(launches your MP3 player)

KLAS 061556Z 00000KT 10SM FEW140 25/02 A3015 RMK AO2 SLP186 T02500017

KLAS Airport Info (Airnav.com)

KLAS Flight Activity (Flightaware)

Listeners: 2 out of 3020 total

Las Vegas Tower (Rwy 01L/19R, 01R/19L): 118.750
Las Vegas Tower (Rwy 08L/26R,08R/26L): 119.900

KLAS Tower (Emergency/Discrete) (Archives)
Las Vegas, Nevada, United States

Feed Status: UP
Listen in your browser - HTML5 player(in browser, HTML5)
Click here to listen with your own player(launches your MP3 player)

KLAS 061556Z 00000KT 10SM FEW140 25/02 A3015 RMK AO2 SLP186 T02500017

KLAS Airport Info (Airnav.com)

KLAS Flight Activity (Flightaware)

Listeners: 0 out of 3020 total

ARFF Ground-to-Aircraft Emergency Frequency : 126.975

KLAS Tower (Rwys 01/19) (Archives)
Las Vegas, Nevada, United States

Feed Status: UP
Listen in your browser - HTML5 player(in browser, HTML5)
Click here to listen with your own player(launches your MP3 player)

KLAS 061556Z 00000KT 10SM FEW140 25/02 A3015 RMK AO2 SLP186 T02500017

KLAS Airport Info (Airnav.com)

KLAS Flight Activity (Flightaware)

Listeners: 2 out of 3020 total

Las Vegas Tower (Rwy 01L/19R, 01R/19L): 118.750

KLAS Tower (Rwys 08/26) (Archives)
Las Vegas, Nevada, United States

Feed Status: UP
Listen in your browser - HTML5 player(in browser, HTML5)
Click here to listen with your own player(launches your MP3 player)

KLAS 061556Z 00000KT 10SM FEW140 25/02 A3015 RMK AO2 SLP186 T02500017

KLAS Airport Info (Airnav.com)

KLAS Flight Activity (Flightaware)

Listeners: 0 out of 3020 total

Las Vegas Tower (Rwy 08L/26R,08R/26L): 119.900

KLAX App (East Feeder) (Archives)
Los Angeles, California, United States

Feed Status: UP
Listen in your browser - HTML5 player(in browser, HTML5)
Click here to listen with your own player(launches your MP3 player)

KPOC 061547Z 00000KT 2SM BR OVC005 18/16 A3006

KPOC Airport Info (Airnav.com)

KPOC Flight Activity (Flightaware)

Listeners: 2 out of 3020 total

SOCAL Approach East LAX Arrival Feeder, 10000-17000) : 124.050

KLAX App (Zuma/NW Arr) (Archives)
Los Angeles, California, United States

Feed Status: UP
Listen in your browser - HTML5 player(in browser, HTML5)
Click here to listen with your own player(launches your MP3 player)

KLAX 061553Z VRB04KT 4SM HZ OVC012 21/17 A3003 RMK AO2 SLP169 T02060172

KLAX Airport Info (Airnav.com)

KLAX Flight Activity (Flightaware)

Listeners: 0 out of 3020 total

SOCAL Approach Zuma Sector (Northwest LAX Arrival Feeder, 7000-13000) : 124.500

KLAX ARFF/Emergency (Archives)
Los Angeles, California, United States

Feed Status: UP
Listen in your browser - HTML5 player(in browser, HTML5)
Click here to listen with your own player(launches your MP3 player)

KLAX 061553Z VRB04KT 4SM HZ OVC012 21/17 A3003 RMK AO2 SLP169 T02060172

KLAX Airport Info (Airnav.com)

KLAX Flight Activity (Flightaware)

Listeners: 0 out of 3020 total

Los Angeles ARFF/Emergency/Discrete: 127.850

KLAX ARINC 128.9 (Archives)
Los Angeles, California, United States

Feed Status: UP
Listen in your browser - HTML5 player(in browser, HTML5)
Click here to listen with your own player(launches your MP3 player)

KLAX 061553Z VRB04KT 4SM HZ OVC012 21/17 A3003 RMK AO2 SLP169 T02060172

KLAX Airport Info (Airnav.com)

KLAX Flight Activity (Flightaware)

Listeners: 0 out of 3020 total

ARINC Voice Service: 128.900

KLAX ATIS (Arrival) (Archives)
Los Angeles, California, United States

Feed Status: UP
Listen in your browser - HTML5 player(in browser, HTML5)
Click here to listen with your own player(launches your MP3 player)

KLAX 061553Z VRB04KT 4SM HZ OVC012 21/17 A3003 RMK AO2 SLP169 T02060172

KLAX Airport Info (Airnav.com)

KLAX Flight Activity (Flightaware)

Listeners: 0 out of 3020 total

Los Angeles ATIS (Arrival): 133.800

KLAX ATIS (Departure) (Archives)
Los Angeles, California, United States

Feed Status: UP
Listen in your browser - HTML5 player(in browser, HTML5)
Click here to listen with your own player(launches your MP3 player)

KLAX 061553Z VRB04KT 4SM HZ OVC012 21/17 A3003 RMK AO2 SLP169 T02060172

KLAX Airport Info (Airnav.com)

KLAX Flight Activity (Flightaware)

Listeners: 0 out of 3020 total

Los Angeles ATIS (Departure): 135.650

KLAX Clearance Delivery (Archives)
Los Angeles, California, United States

Feed Status: UP
Listen in your browser - HTML5 player(in browser, HTML5)
Click here to listen with your own player(launches your MP3 player)

KLAX 061553Z VRB04KT 4SM HZ OVC012 21/17 A3003 RMK AO2 SLP169 T02060172

KLAX Airport Info (Airnav.com)

KLAX Flight Activity (Flightaware)

Listeners: 0 out of 3020 total

Los Angeles Clearance Delivery: 120.350

KLAX Dep/West App (Archives)
Los Angeles, California, United States

Feed Status: UP
Listen in your browser - HTML5 player(in browser, HTML5)
Click here to listen with your own player(launches your MP3 player)

KLAX 061553Z VRB04KT 4SM HZ OVC012 21/17 A3003 RMK AO2 SLP169 T02060172

KLAX Airport Info (Airnav.com)

KLAX Flight Activity (Flightaware)

Listeners: 2 out of 3020 total

SOCAL Approach Zuma Sector (Northwest LAX Arrival Feeder, 7000-13000) : 124.500
SoCal Departure (SW->NE): 124.300
SoCal Departure (W->N): 125.200

KLAX Final App (North) (Archives)
Los Angeles, California, United States

Feed Status: UP
Listen in your browser - HTML5 player(in browser, HTML5)
Click here to listen with your own player(launches your MP3 player)

KLAX 061553Z VRB04KT 4SM HZ OVC012 21/17 A3003 RMK AO2 SLP169 T02060172

KLAX Airport Info (Airnav.com)

KLAX Flight Activity (Flightaware)

Listeners: 1 out of 3020 total

SOCAL Approach (Stadium/North Final): 128.500

KLAX Final App (North/South) (Archives)
Los Angeles, California, United States

Feed Status: UP
Listen in your browser - HTML5 player(in browser, HTML5)
Click here to listen with your own player(launches your MP3 player)

KLAX 061553Z VRB04KT 4SM HZ OVC012 21/17 A3003 RMK AO2 SLP169 T02060172

KLAX Airport Info (Airnav.com)

KLAX Flight Activity (Flightaware)

Listeners: 11 out of 3020 total

SOCAL Approach (Downey Sector, South Final): 132.375
SoCal Approach (Downey/South Final): 124.900
SoCal Approach (Stadium/North Final): 128.500

KLAX Final App (South) (Archives)
Los Angeles, California, United States

Feed Status: UP
Listen in your browser - HTML5 player(in browser, HTML5)
Click here to listen with your own player(launches your MP3 player)

KLAX 061553Z VRB04KT 4SM HZ OVC012 21/17 A3003 RMK AO2 SLP169 T02060172

KLAX Airport Info (Airnav.com)

KLAX Flight Activity (Flightaware)

Listeners: 0 out of 3020 total

SOCAL Approach (Downey Sector, South Final): 124.900

KLAX Ground (Metering) (Archives)
Los Angeles, California, United States

Feed Status: UP
Listen in your browser - HTML5 player(in browser, HTML5)
Click here to listen with your own player(launches your MP3 player)

KLAX 061553Z VRB04KT 4SM HZ OVC012 21/17 A3003 RMK AO2 SLP169 T02060172

KLAX Airport Info (Airnav.com)

KLAX Flight Activity (Flightaware)

Listeners: 0 out of 3020 total

Los Angeles Ground (Metering): 121.400

KLAX Ground (North) (Archives)
Los Angeles, California, United States

Feed Status: UP
Listen in your browser - HTML5 player(in browser, HTML5)
Click here to listen with your own player(launches your MP3 player)

KLAX 061553Z VRB04KT 4SM HZ OVC012 21/17 A3003 RMK AO2 SLP169 T02060172

KLAX Airport Info (Airnav.com)

KLAX Flight Activity (Flightaware)

Listeners: 1 out of 3020 total

Los Angeles Ground (North Complex): 121.650

KLAX Ground (North/South) (Archives)
Los Angeles, California, United States

Feed Status: UP
Listen in your browser - HTML5 player(in browser, HTML5)
Click here to listen with your own player(launches your MP3 player)

KLAX 061553Z VRB04KT 4SM HZ OVC012 21/17 A3003 RMK AO2 SLP169 T02060172

KLAX Airport Info (Airnav.com)

KLAX Flight Activity (Flightaware)

Listeners: 0 out of 3020 total

Los Angeles Ground (North Complex): 121.650
Los Angeles Ground (South Complex): 121.750
Los Angeles Ground (West): 121.400

KLAX Ground (South) (Archives)
Los Angeles, California, United States

Feed Status: UP
Listen in your browser - HTML5 player(in browser, HTML5)
Click here to listen with your own player(launches your MP3 player)

KLAX 061553Z VRB04KT 4SM HZ OVC012 21/17 A3003 RMK AO2 SLP169 T02060172

KLAX Airport Info (Airnav.com)

KLAX Flight Activity (Flightaware)

Listeners: 3 out of 3020 total

Los Angeles Ground (South Complex): 121.750
Los Angeles Ground (West): 121.400

KLAX SFRA (Archives)
Los Angeles, California, United States

Feed Status: UP
Listen in your browser - HTML5 player(in browser, HTML5)
Click here to listen with your own player(launches your MP3 player)

KLAX 061553Z VRB04KT 4SM HZ OVC012 21/17 A3003 RMK AO2 SLP169 T02060172

KLAX Airport Info (Airnav.com)

KLAX Flight Activity (Flightaware)

Listeners: 0 out of 3020 total

LAX SFRA (Special Rules Flight Area aka VFR Corridor): 128.550

KLAX Tower (Helicopters) (Archives)
Los Angeles, California, United States

Feed Status: UP
Listen in your browser - HTML5 player(in browser, HTML5)
Click here to listen with your own player(launches your MP3 player)

KLAX 061553Z VRB04KT 4SM HZ OVC012 21/17 A3003 RMK AO2 SLP169 T02060172

KLAX Airport Info (Airnav.com)

KLAX Flight Activity (Flightaware)

Listeners: 0 out of 3020 total

Los Angles Tower (Helicopters): 119.800

KLAX Tower (North) (Archives)
Los Angeles, California, United States

Feed Status: UP
Listen in your browser - HTML5 player(in browser, HTML5)
Click here to listen with your own player(launches your MP3 player)

KLAX 061553Z VRB04KT 4SM HZ OVC012 21/17 A3003 RMK AO2 SLP169 T02060172

KLAX Airport Info (Airnav.com)

KLAX Flight Activity (Flightaware)

Listeners: 1 out of 3020 total

Los Angeles Tower (North): 133.900

KLAX Tower (North/South) (Archives)
Los Angeles, California, United States

Feed Status: UP
Listen in your browser - HTML5 player(in browser, HTML5)
Click here to listen with your own player(launches your MP3 player)

KLAX 061553Z VRB04KT 4SM HZ OVC012 21/17 A3003 RMK AO2 SLP169 T02060172

KLAX Airport Info (Airnav.com)

KLAX Flight Activity (Flightaware)

Listeners: 15 out of 3020 total

Los Angeles Tower (North): 133.900
Los Angeles Tower (South): 120.950
Los Angeles Tower (South): 119.800

KLAX Tower (South) (Archives)
Los Angeles, California, United States

Feed Status: UP
Listen in your browser - HTML5 player(in browser, HTML5)
Click here to listen with your own player(launches your MP3 player)

KLAX 061553Z VRB04KT 4SM HZ OVC012 21/17 A3003 RMK AO2 SLP169 T02060172

KLAX Airport Info (Airnav.com)

KLAX Flight Activity (Flightaware)

Listeners: 4 out of 3020 total

Los Angeles Tower (South): 120.950
Los Angeles Tower (South): 119.800

SOCAL Dep (Malibu Sector W/NW Dep) #1 (Archives)
Los Angeles, California, United States

Feed Status: UP
Listen in your browser - HTML5 player(in browser, HTML5)
Click here to listen with your own player(launches your MP3 player)

KLAX 061553Z VRB04KT 4SM HZ OVC012 21/17 A3003 RMK AO2 SLP169 T02060172

KLAX Airport Info (Airnav.com)

KLAX Flight Activity (Flightaware)

Listeners: 0 out of 3020 total

SOCAL Departure (Malibu Sector - LAX West/NW Departures, SMO Departures) : 125.200

SOCAL Dep (Manhattan Sector SW-NE) (Archives)
Los Angeles, California, United States

Feed Status: UP
Listen in your browser - HTML5 player(in browser, HTML5)
Click here to listen with your own player(launches your MP3 player)

KLAX 061553Z VRB04KT 4SM HZ OVC012 21/17 A3003 RMK AO2 SLP169 T02060172

KLAX Airport Info (Airnav.com)

KLAX Flight Activity (Flightaware)

Listeners: 0 out of 3020 total

SOCAL Departure (Manhattan Sector) SW-NE: 124.300

KLEE App/Dep (Archives)
Leesburg, Florida, United States

Feed Status: UP
Listen in your browser - HTML5 player(in browser, HTML5)
Click here to listen with your own player(launches your MP3 player)

KLEE 061553Z 14003KT 10SM CLR 27/13 A3013 RMK AO2 SLP200 T02720133

KLEE Airport Info (Airnav.com)

KLEE Flight Activity (Flightaware)

Listeners: 0 out of 3020 total

Orlando Approach: 135.300
Orlando Approach: 120.225

KLGA ATIS (Archives)
New York, New York, United States

Feed Status: UP
Listen in your browser - HTML5 player(in browser, HTML5)
Click here to listen with your own player(launches your MP3 player)

KLGA 061551Z 36005KT 10SM SCT250 20/07 A2998 RMK AO2 SLP151 T02000067

KLGA Airport Info (Airnav.com)

KLGA Flight Activity (Flightaware)

Listeners: 0 out of 3020 total

LaGuardia ATIS: 127.050

KLGA Del/ARINC/TCA (Archives)
New York, New York, United States

Feed Status: UP
Listen in your browser - HTML5 player(in browser, HTML5)
Click here to listen with your own player(launches your MP3 player)

KLGA 061551Z 36005KT 10SM SCT250 20/07 A2998 RMK AO2 SLP151 T02000067

KLGA Airport Info (Airnav.com)

KLGA Flight Activity (Flightaware)

Listeners: 0 out of 3020 total

ARINC: 129.400
LaGuardia Clearance Delivery: 135.200
LaGuardia Clearance Delivery (Helicopters): 121.875
LaGuardia Tower (TCA): 126.050

KLGA Ground #1 (Archives)
New York, New York, United States

Feed Status: UP
Listen in your browser - HTML5 player(in browser, HTML5)
Click here to listen with your own player(launches your MP3 player)

KLGA 061551Z 36005KT 10SM SCT250 20/07 A2998 RMK AO2 SLP151 T02000067

KLGA Airport Info (Airnav.com)

KLGA Flight Activity (Flightaware)

Listeners: 6 out of 3020 total

LaGuardia Ground: 121.700
LaGuardia Ground: 121.850
LaGuardia Ground: 127.675

KLGA Ground #2 (Archives)
New York, New York, United States

Feed Status: UP
Listen in your browser - HTML5 player(in browser, HTML5)
Click here to listen with your own player(launches your MP3 player)

KLGA 061551Z 36005KT 10SM SCT250 20/07 A2998 RMK AO2 SLP151 T02000067

KLGA Airport Info (Airnav.com)

KLGA Flight Activity (Flightaware)

Listeners: 2 out of 3020 total

LaGuardia Ground: 121.700

KLGA NY App (EMPYR) (Archives)
New York, New York, United States

Feed Status: UP
Listen in your browser - HTML5 player(in browser, HTML5)
Click here to listen with your own player(launches your MP3 player)

KEWR 061551Z 00000KT 10SM SCT250 20/09 A2998 RMK SLP153 T02000089

KEWR Airport Info (Airnav.com)

KEWR Flight Activity (Flightaware)

Listeners: 2 out of 3020 total

New York Approach (EMPYR Sector): 127.300

KLGA NY App (Final) #1
New York, New York, United States

Feed Status: DOWN
Offline since: 2022-10-01 17:33:06 UTC

KLGA 061551Z 36005KT 10SM SCT250 20/07 A2998 RMK AO2 SLP151 T02000067

KLGA Airport Info (Airnav.com)

New York Approach (LGA Final): 134.900

KLGA NY App (Final) #2 (Archives)
New York, New York, United States

Feed Status: UP
Listen in your browser - HTML5 player(in browser, HTML5)
Click here to listen with your own player(launches your MP3 player)

KLGA 061551Z 36005KT 10SM SCT250 20/07 A2998 RMK AO2 SLP151 T02000067

KLGA Airport Info (Airnav.com)

KLGA Flight Activity (Flightaware)

Listeners: 0 out of 3020 total

New York Approach (LGA Final): 134.900

KLGA NY App (HAARP) (Archives)
New York, New York, United States

Feed Status: UP
Listen in your browser - HTML5 player(in browser, HTML5)
Click here to listen with your own player(launches your MP3 player)

KLGA 061551Z 36005KT 10SM SCT250 20/07 A2998 RMK AO2 SLP151 T02000067

KLGA Airport Info (Airnav.com)

KLGA Flight Activity (Flightaware)

Listeners: 1 out of 3020 total

New York Approach: 124.950
New York Approach (HAARP Sector): 120.800
New York Approach (HAARP Sector): 124.650

KLGA NY Dep (Archives)
New York, New York, United States

Feed Status: UP
Listen in your browser - HTML5 player(in browser, HTML5)
Click here to listen with your own player(launches your MP3 player)

KLGA 061551Z 36005KT 10SM SCT250 20/07 A2998 RMK AO2 SLP151 T02000067

KLGA Airport Info (Airnav.com)

KLGA Flight Activity (Flightaware)

Listeners: 1 out of 3020 total

New York Departure (LGA): 120.400

KLGA NY Dep 135.35 (Archives)
New York, New York, United States

Feed Status: UP
Listen in your browser - HTML5 player(in browser, HTML5)
Click here to listen with your own player(launches your MP3 player)

KLGA 061551Z 36005KT 10SM SCT250 20/07 A2998 RMK AO2 SLP151 T02000067

KLGA Airport Info (Airnav.com)

KLGA Flight Activity (Flightaware)

Listeners: 0 out of 3020 total

New York Departure (LGA): 135.350

KLGA Tower #1 (Archives)
New York, New York, United States

Feed Status: UP
Listen in your browser - HTML5 player(in browser, HTML5)
Click here to listen with your own player(launches your MP3 player)

KLGA 061551Z 36005KT 10SM SCT250 20/07 A2998 RMK AO2 SLP151 T02000067

KLGA Airport Info (Airnav.com)

KLGA Flight Activity (Flightaware)

Listeners: 1 out of 3020 total

LaGuardia Tower: 118.700

KLGA Tower #2 (Archives)
New York, New York, United States

Feed Status: UP
Listen in your browser - HTML5 player(in browser, HTML5)
Click here to listen with your own player(launches your MP3 player)

KLGA 061551Z 36005KT 10SM SCT250 20/07 A2998 RMK AO2 SLP151 T02000067

KLGA Airport Info (Airnav.com)

KLGA Flight Activity (Flightaware)

Listeners: 0 out of 3020 total

LaGuardia Tower: 118.700

KLGA Tower (TCA/Heli) (Archives)
New York, New York, United States

Feed Status: UP
Listen in your browser - HTML5 player(in browser, HTML5)
Click here to listen with your own player(launches your MP3 player)

KLGA 061551Z 36005KT 10SM SCT250 20/07 A2998 RMK AO2 SLP151 T02000067

KLGA Airport Info (Airnav.com)

KLGA Flight Activity (Flightaware)

Listeners: 1 out of 3020 total

LaGuardia Tower (TCA/Heli): 126.050

NY Dep (Liberty North) #1 (Archives)
New York, New York, United States

Feed Status: UP
Listen in your browser - HTML5 player(in browser, HTML5)
Click here to listen with your own player(launches your MP3 player)

KHPN 061556Z 36008KT 10SM CLR 18/10 A2999

KHPN Airport Info (Airnav.com)

KHPN Flight Activity (Flightaware)

Listeners: 0 out of 3020 total

New York Departure (Liberty/North): 118.175

NY Dep (Liberty North) #2 (Archives)
New York, New York, United States

Feed Status: UP
Listen in your browser - HTML5 player(in browser, HTML5)
Click here to listen with your own player(launches your MP3 player)


Listeners: 0 out of 3020 total

New York Departure (Liberty/North): 118.175

Atlanta App/Dep (SAT-P) (Archives)
Lawrenceville, Georgia, United States

Feed Status: UP
Listen in your browser - HTML5 player(in browser, HTML5)
Click here to listen with your own player(launches your MP3 player)

KLZU 061556Z 00000KT 10SM CLR 23/09 A3012 RMK AO2 SLP206 T02280094

KLZU Airport Info (Airnav.com)

KLZU Flight Activity (Flightaware)

Listeners: 0 out of 3020 total

Atlanta Approach/Departure (SAT-P): 126.975

KMCI App/Dep (Archives)
Kansas City, Missouri, United States

Feed Status: UP
Listen in your browser - HTML5 player(in browser, HTML5)
Click here to listen with your own player(launches your MP3 player)

KMCI 061553Z VRB06KT 9SM FEW200 22/12 A3018 RMK AO2 SLP212 T02170122

KMCI Airport Info (Airnav.com)

KMCI Flight Activity (Flightaware)

Listeners: 1 out of 3020 total

Kanasa City Approach: 118.900
Kansas City Approach: 118.400
Kansas City Approach (Primary): 120.950
Kansas City Departure (010-190): 123.950
Kansas City Departure (191-009): 124.700

KMCI Del/Gnd/Twr (Archives)
Kansas City, Missouri, United States

Feed Status: UP
Listen in your browser - HTML5 player(in browser, HTML5)
Click here to listen with your own player(launches your MP3 player)

KMCI 061553Z VRB06KT 9SM FEW200 22/12 A3018 RMK AO2 SLP212 T02170122

KMCI Airport Info (Airnav.com)

KMCI Flight Activity (Flightaware)

Listeners: 0 out of 3020 total

KMCI Clearance Delivery: 135.700
KMCI Ground: 121.650
KMCI Ground: 121.800
KMCI Tower: 125.750
KMCI Tower (Primary): 128.200
KMCI UNICOM: 122.950

KMCI Del/Gnd/Twr/App (Archives)
Kansas City, Missouri, United States

Feed Status: UP
Listen in your browser - HTML5 player(in browser, HTML5)
Click here to listen with your own player(launches your MP3 player)

KMCI 061553Z VRB06KT 9SM FEW200 22/12 A3018 RMK AO2 SLP212 T02170122

KMCI Airport Info (Airnav.com)

KMCI Flight Activity (Flightaware)

Listeners: 0 out of 3020 total

Kanasa City Approach (Primary): 120.950
Kansas City Approach: 118.400
Kansas City Approach: 118.900
Kansas City Departure (010-190): 123.950
Kansas City Departure (191-009): 124.700
KMCI Clearance Delivery: 135.700
KMCI Ground: 121.650
KMCI Ground: 121.800
KMCI Tower: 125.750
KMCI Tower (Primary): 128.200
KMCI UNICOM: 122.950

KMCO App/Dep (120.15) (Archives)
Orlando, Florida, United States

Feed Status: UP
Listen in your browser - HTML5 player(in browser, HTML5)
Click here to listen with your own player(launches your MP3 player)

KORL 061553Z 06006KT 10SM CLR 27/13 A3011 RMK AO2 SLP199 T02720133 $

KORL Airport Info (Airnav.com)

KORL Flight Activity (Flightaware)

Listeners: 0 out of 3020 total

Orlando Departure (West): 120.150

KMCO App/Dep (124.8) (Archives)
Orlando, Florida, United States

Feed Status: UP
Listen in your browser - HTML5 player(in browser, HTML5)
Click here to listen with your own player(launches your MP3 player)

KORL 061553Z 06006KT 10SM CLR 27/13 A3011 RMK AO2 SLP199 T02720133 $

KORL Airport Info (Airnav.com)

KORL Flight Activity (Flightaware)

Listeners: 0 out of 3020 total

Orlando Approach (000-180deg >5,500 feet/Jaguar/McCoy Departures): 124.800

KMCO App/Dep (128.375) (Archives)
Orlando, Florida, United States

Feed Status: UP
Listen in your browser - HTML5 player(in browser, HTML5)
Click here to listen with your own player(launches your MP3 player)

KORL 061553Z 06006KT 10SM CLR 27/13 A3011 RMK AO2 SLP199 T02720133 $

KORL Airport Info (Airnav.com)

KORL Flight Activity (Flightaware)

Listeners: 1 out of 3020 total

Orlando Approach: 128.375

KMCO App/Dep (Disney Sector) (Archives)
Orlando, Florida, United States

Feed Status: UP
Listen in your browser - HTML5 player(in browser, HTML5)
Click here to listen with your own player(launches your MP3 player)

KORL 061553Z 06006KT 10SM CLR 27/13 A3011 RMK AO2 SLP199 T02720133 $

KORL Airport Info (Airnav.com)

KORL Flight Activity (Flightaware)

Listeners: 0 out of 3020 total

Orlando Approach (Disney Satellite Sector): 119.400

KMCO App/Dep (North Satellite) (Archives)
Orlando, Florida, United States

Feed Status: UP
Listen in your browser - HTML5 player(in browser, HTML5)
Click here to listen with your own player(launches your MP3 player)

KORL 061553Z 06006KT 10SM CLR 27/13 A3011 RMK AO2 SLP199 T02720133 $

KORL Airport Info (Airnav.com)

KORL Flight Activity (Flightaware)

Listeners: 0 out of 3020 total

Orlando Approach (North Satellite): 135.300

KMCO App/Dep (OVIDO Sector) (Archives)
Orlando, Florida, United States

Feed Status: UP
Listen in your browser - HTML5 player(in browser, HTML5)
Click here to listen with your own player(launches your MP3 player)

KORL 061553Z 06006KT 10SM CLR 27/13 A3011 RMK AO2 SLP199 T02720133 $

KORL Airport Info (Airnav.com)

KORL Flight Activity (Flightaware)

Listeners: 0 out of 3020 total

Orlando Approach (OVIDO Satellite Sector): 119.775

KMCO Approach (Final) (Archives)
Orlando, Florida, United States

Feed Status: UP
Listen in your browser - HTML5 player(in browser, HTML5)
Click here to listen with your own player(launches your MP3 player)

KORL 061553Z 06006KT 10SM CLR 27/13 A3011 RMK AO2 SLP199 T02720133 $

KORL Airport Info (Airnav.com)

KORL Flight Activity (Flightaware)

Listeners: 1 out of 3020 total

Orlando Approach (MCO Final): 127.750

KMCO Ground (East)
Orlando, Florida, United States

Feed Status: DOWN
Offline since: 2022-05-24 11:55:22 UTC

KORL 061553Z 06006KT 10SM CLR 27/13 A3011 RMK AO2 SLP199 T02720133 $

KORL Airport Info (Airnav.com)

Orlando Ground (East): 126.400

KMCO Ground (West)
Orlando, Florida, United States

Feed Status: DOWN
Offline since: 2022-05-24 11:59:05 UTC

KORL 061553Z 06006KT 10SM CLR 27/13 A3011 RMK AO2 SLP199 T02720133 $

KORL Airport Info (Airnav.com)

Orlando Ground (West): 121.800

KMCO Tower (Both)
Orlando, Florida, United States

Feed Status: DOWN
Offline since: 2022-05-20 06:05:22 UTC

KORL 061553Z 06006KT 10SM CLR 27/13 A3011 RMK AO2 SLP199 T02720133 $

KORL Airport Info (Airnav.com)

Orlando Tower (East/Rwys 17L-35R, 17R-35L): 118.450
Orlando Tower (West/Rwys 18L-36R, 18R-36L): 124.300

KMCO Tower (East) #1 (Archives)
Orlando, Florida, United States

Feed Status: UP
Listen in your browser - HTML5 player(in browser, HTML5)
Click here to listen with your own player(launches your MP3 player)

KORL 061553Z 06006KT 10SM CLR 27/13 A3011 RMK AO2 SLP199 T02720133 $

KORL Airport Info (Airnav.com)

KORL Flight Activity (Flightaware)

Listeners: 2 out of 3020 total

Orlando Tower (East/Rwys 17L-35R, 17R-35L): 118.450

KMCO Tower (West) #1
Orlando, Florida, United States

Feed Status: DOWN
Offline since: 2022-05-24 11:55:22 UTC

KORL 061553Z 06006KT 10SM CLR 27/13 A3011 RMK AO2 SLP199 T02720133 $

KORL Airport Info (Airnav.com)

Orlando Tower (West/Rwys 18L-36R, 18R-36L): 124.300

KMCO Tower (West) #2 (Archives)
Orlando, Florida, United States

Feed Status: UP
Listen in your browser - HTML5 player(in browser, HTML5)
Click here to listen with your own player(launches your MP3 player)

KORL 061553Z 06006KT 10SM CLR 27/13 A3011 RMK AO2 SLP199 T02720133 $

KORL Airport Info (Airnav.com)

KORL Flight Activity (Flightaware)

Listeners: 3 out of 3020 total

Orlando Tower (West/Rwys 18L-36R, 18R-36L): 124.300

KMEM Approach (Archives)
Memphis, Tennessee, United States

Feed Status: UP
Listen in your browser - HTML5 player(in browser, HTML5)
Click here to listen with your own player(launches your MP3 player)

KMEM 061554Z 24007KT 10SM CLR 24/07 A3012 RMK AO2 SLP197 T02440072

KMEM Airport Info (Airnav.com)

KMEM Flight Activity (Flightaware)

Listeners: 4 out of 3020 total

Emergency/Guard: 121.500
Memphis Approach (East): 125.800
Memphis Approach (West): 119.100
Memphis Departure (East): 124.150
Memphis Departure (West): 124.650

KMEM Emergency/Guard (Archives)
Memphis, Tennessee, United States

Feed Status: UP
Listen in your browser - HTML5 player(in browser, HTML5)
Click here to listen with your own player(launches your MP3 player)

KMEM 061554Z 24007KT 10SM CLR 24/07 A3012 RMK AO2 SLP197 T02440072

KMEM Airport Info (Airnav.com)

KMEM Flight Activity (Flightaware)

Listeners: 0 out of 3020 total

Emergency/Guard: 121.500

KMEM Ground (All) (Archives)
Memphis, Tennessee, United States

Feed Status: UP
Listen in your browser - HTML5 player(in browser, HTML5)
Click here to listen with your own player(launches your MP3 player)

KMEM 061554Z 24007KT 10SM CLR 24/07 A3012 RMK AO2 SLP197 T02440072

KMEM Airport Info (Airnav.com)

KMEM Flight Activity (Flightaware)

Listeners: 0 out of 3020 total

Memphis Ground (Rwy 18L/36R): 121.900
Memphis Ground (Rwy 18R/36L): 121.650
Memphis Ground (Rwy 9/27): 121.000

KMEM Ground (Rwy 09/27) (Archives)
Memphis, Tennessee, United States

Feed Status: UP
Listen in your browser - HTML5 player(in browser, HTML5)
Click here to listen with your own player(launches your MP3 player)

KMEM 061554Z 24007KT 10SM CLR 24/07 A3012 RMK AO2 SLP197 T02440072

KMEM Airport Info (Airnav.com)

KMEM Flight Activity (Flightaware)

Listeners: 0 out of 3020 total

Memphis Ground (Rwy 9/27): 121.000

KMEM Ground (Rwy 18L/36R) (Archives)
Memphis, Tennessee, United States

Feed Status: UP
Listen in your browser - HTML5 player(in browser, HTML5)
Click here to listen with your own player(launches your MP3 player)

KMEM 061554Z 24007KT 10SM CLR 24/07 A3012 RMK AO2 SLP197 T02440072

KMEM Airport Info (Airnav.com)

KMEM Flight Activity (Flightaware)

Listeners: 0 out of 3020 total

Memphis Ground (Rwy 18L/36R): 121.900

KMEM Ground (Rwy 18R/36L) (Archives)
Memphis, Tennessee, United States

Feed Status: UP
Listen in your browser - HTML5 player(in browser, HTML5)
Click here to listen with your own player(launches your MP3 player)

KMEM 061554Z 24007KT 10SM CLR 24/07 A3012 RMK AO2 SLP197 T02440072

KMEM Airport Info (Airnav.com)

KMEM Flight Activity (Flightaware)

Listeners: 0 out of 3020 total

Memphis Ground (Rwy 18R/36L): 121.650

KMEM Tower (Archives)
Memphis, Tennessee, United States

Feed Status: UP
Listen in your browser - HTML5 player(in browser, HTML5)
Click here to listen with your own player(launches your MP3 player)

KMEM 061554Z 24007KT 10SM CLR 24/07 A3012 RMK AO2 SLP197 T02440072

KMEM Airport Info (Airnav.com)

KMEM Flight Activity (Flightaware)

Listeners: 1 out of 3020 total

Memphis Tower (Rwy 18C/36C, 18L/36R): 119.700
Memphis Tower (Rwy 18R/36L): 128.425
Memphis Tower (Rwy 9/27): 118.300

Atlanta Approach (N. Sat) (Archives)
Marietta, Georgia, United States

Feed Status: UP
Listen in your browser - HTML5 player(in browser, HTML5)
Click here to listen with your own player(launches your MP3 player)

KRYY 061550Z 29004KT 10SM CLR 21/09 A3014 RMK AO2 SLP200 T02110094 $

KRYY Airport Info (Airnav.com)

KRYY Flight Activity (Flightaware)

Listeners: 1 out of 3020 total

Atlanta Approach (North Satellite): 121.000

KMIA Approach #2 (Archives)
Miami, Florida, United States

Feed Status: UP
Listen in your browser - HTML5 player(in browser, HTML5)
Click here to listen with your own player(launches your MP3 player)

KMIA 061553Z 04005KT 10SM SCT035 BKN065 BKN080 28/19 A3007 RMK AO2 SLP181 T02830194

KMIA Airport Info (Airnav.com)

KMIA Flight Activity (Flightaware)

Listeners: 0 out of 3020 total

Miami Approach (KFLL Final): 133.725
Miami Approach (KFXE/KPMP): 119.700

KMIA Approach (KFLL) (Archives)
Miami, Florida, United States

Feed Status: UP
Listen in your browser - HTML5 player(in browser, HTML5)
Click here to listen with your own player(launches your MP3 player)

KMIA 061553Z 04005KT 10SM SCT035 BKN065 BKN080 28/19 A3007 RMK AO2 SLP181 T02830194

KMIA Airport Info (Airnav.com)

KMIA Flight Activity (Flightaware)

Listeners: 2 out of 3020 total

Miami Approach (KFLL): 133.775

KMIA Approach (North Arr Backup) (Archives)
Miami, Florida, United States

Feed Status: UP
Listen in your browser - HTML5 player(in browser, HTML5)
Click here to listen with your own player(launches your MP3 player)

KMIA 061553Z 04005KT 10SM SCT035 BKN065 BKN080 28/19 A3007 RMK AO2 SLP181 T02830194

KMIA Airport Info (Airnav.com)

KMIA Flight Activity (Flightaware)

Listeners: 0 out of 3020 total

Miami Approach (North arrivals backup): 125.750

KMIA Approach (North Arr) (Archives)
Miami, Florida, United States

Feed Status: UP
Listen in your browser - HTML5 player(in browser, HTML5)
Click here to listen with your own player(launches your MP3 player)

KMIA 061553Z 04005KT 10SM SCT035 BKN065 BKN080 28/19 A3007 RMK AO2 SLP181 T02830194

KMIA Airport Info (Airnav.com)

KMIA Flight Activity (Flightaware)

Listeners: 0 out of 3020 total

Miami Approach (North Arrivals): 124.850

KMIA Approach (South Arr) (Archives)
Miami, Florida, United States

Feed Status: UP
Listen in your browser - HTML5 player(in browser, HTML5)
Click here to listen with your own player(launches your MP3 player)

KMIA 061553Z 04005KT 10SM SCT035 BKN065 BKN080 28/19 A3007 RMK AO2 SLP181 T02830194

KMIA Airport Info (Airnav.com)

KMIA Flight Activity (Flightaware)

Listeners: 1 out of 3020 total

Miami Approach (South Arrivals): 120.500

KMIA ATIS (Arrival) (Archives)
Miami, Florida, United States

Feed Status: UP
Listen in your browser - HTML5 player(in browser, HTML5)
Click here to listen with your own player(launches your MP3 player)

KMIA 061553Z 04005KT 10SM SCT035 BKN065 BKN080 28/19 A3007 RMK AO2 SLP181 T02830194

KMIA Airport Info (Airnav.com)

KMIA Flight Activity (Flightaware)

Listeners: 0 out of 3020 total

Miami Arrival ATIS: 119.150

KMIA ATIS (Departure) (Archives)
Miami, Florida, United States

Feed Status: UP
Listen in your browser - HTML5 player(in browser, HTML5)
Click here to listen with your own player(launches your MP3 player)

KMIA 061553Z 04005KT 10SM SCT035 BKN065 BKN080 28/19 A3007 RMK AO2 SLP181 T02830194

KMIA Airport Info (Airnav.com)

KMIA Flight Activity (Flightaware)

Listeners: 0 out of 3020 total

Miami Departure ATIS: 133.675

KMIA Clearance Delivery (Archives)
Miami, Florida, United States

Feed Status: UP
Listen in your browser - HTML5 player(in browser, HTML5)
Click here to listen with your own player(launches your MP3 player)

KMIA 061553Z 04005KT 10SM SCT035 BKN065 BKN080 28/19 A3007 RMK AO2 SLP181 T02830194

KMIA Airport Info (Airnav.com)

KMIA Flight Activity (Flightaware)

Listeners: 0 out of 3020 total

Miami Clearance Delivery: 135.350

KMIA Departure (North) (Archives)
Miami, Florida, United States

Feed Status: UP
Listen in your browser - HTML5 player(in browser, HTML5)
Click here to listen with your own player(launches your MP3 player)

KMIA 061553Z 04005KT 10SM SCT035 BKN065 BKN080 28/19 A3007 RMK AO2 SLP181 T02830194

KMIA Airport Info (Airnav.com)

KMIA Flight Activity (Flightaware)

Listeners: 0 out of 3020 total

Miami Departure North (primary night freq): 119.450

KMIA Departure (South) (Archives)
Miami, Florida, United States

Feed Status: UP
Listen in your browser - HTML5 player(in browser, HTML5)
Click here to listen with your own player(launches your MP3 player)

KMIA 061553Z 04005KT 10SM SCT035 BKN065 BKN080 28/19 A3007 RMK AO2 SLP181 T02830194

KMIA Airport Info (Airnav.com)

KMIA Flight Activity (Flightaware)

Listeners: 0 out of 3020 total

Miami Departure South: 125.500

KMIA Emergency/Guard (Archives)
Miami, Florida, United States

Feed Status: UP
Listen in your browser - HTML5 player(in browser, HTML5)
Click here to listen with your own player(launches your MP3 player)

KMIA 061553Z 04005KT 10SM SCT035 BKN065 BKN080 28/19 A3007 RMK AO2 SLP181 T02830194

KMIA Airport Info (Airnav.com)

KMIA Flight Activity (Flightaware)

Listeners: 0 out of 3020 total

Emergency/Guard: 121.500

KMIA Gate Hold (Archives)
Miami, Florida, United States

Feed Status: UP
Listen in your browser - HTML5 player(in browser, HTML5)
Click here to listen with your own player(launches your MP3 player)

KMIA 061553Z 04005KT 10SM SCT035 BKN065 BKN080 28/19 A3007 RMK AO2 SLP181 T02830194

KMIA Airport Info (Airnav.com)

KMIA Flight Activity (Flightaware)

Listeners: 0 out of 3020 total

KMIA Gate Hold: 120.350

KMIA Ground (8L/8R/12/26L/26R) (Archives)
Miami, Florida, United States

Feed Status: UP
Listen in your browser - HTML5 player(in browser, HTML5)
Click here to listen with your own player(launches your MP3 player)

KMIA 061553Z 04005KT 10SM SCT035 BKN065 BKN080 28/19 A3007 RMK AO2 SLP181 T02830194

KMIA Airport Info (Airnav.com)

KMIA Flight Activity (Flightaware)

Listeners: 0 out of 3020 total

Miami Ground (Rwys 8L/8R/12/26L/26R): 121.800

KMIA Tower #2 (Archives)
Miami, Florida, United States

Feed Status: UP
Listen in your browser - HTML5 player(in browser, HTML5)
Click here to listen with your own player(launches your MP3 player)

KMIA 061553Z 04005KT 10SM SCT035 BKN065 BKN080 28/19 A3007 RMK AO2 SLP181 T02830194

KMIA Airport Info (Airnav.com)

KMIA Flight Activity (Flightaware)

Listeners: 1 out of 3020 total

Miami Tower (North): 118.300
Miami Tower (South): 123.900

KMIA Tower (North) (Archives)
Miami, Florida, United States

Feed Status: UP
Listen in your browser - HTML5 player(in browser, HTML5)
Click here to listen with your own player(launches your MP3 player)

KMIA 061553Z 04005KT 10SM SCT035 BKN065 BKN080 28/19 A3007 RMK AO2 SLP181 T02830194

KMIA Airport Info (Airnav.com)

KMIA Flight Activity (Flightaware)

Listeners: 2 out of 3020 total

Miami Tower (North): 118.300

KMIA Tower (South) (Archives)
Miami, Florida, United States

Feed Status: UP
Listen in your browser - HTML5 player(in browser, HTML5)
Click here to listen with your own player(launches your MP3 player)

KMIA 061553Z 04005KT 10SM SCT035 BKN065 BKN080 28/19 A3007 RMK AO2 SLP181 T02830194

KMIA Airport Info (Airnav.com)

KMIA Flight Activity (Flightaware)

Listeners: 0 out of 3020 total

Miami Tower (South): 123.900

Miami FSS/Misc (Archives)
Miami, Florida, United States

Feed Status: UP
Listen in your browser - HTML5 player(in browser, HTML5)
Click here to listen with your own player(launches your MP3 player)

KMIA 061553Z 04005KT 10SM SCT035 BKN065 BKN080 28/19 A3007 RMK AO2 SLP181 T02830194

KMIA Airport Info (Airnav.com)

KMIA Flight Activity (Flightaware)

Listeners: 0 out of 3020 total

Miami Flight Service Station (FSS): 122.400
Miami Flight Service Station (FSS): 122.600
Miami Flight Service Station (FSS): 123.650
Miami Flight Service Station (FSS): 122.550
Miami Flight Service Station (FSS): 126.900
Miami Flight Service Station (FSS): 126.700
Miami Flight Service Station (FSS): 122.300
Miami Flight Service Station (FSS): 122.650
Miami Flight Watch (High): 132.725
Miami Flight Watch (Low): 122.000
Misc Company Frequencies:

Miami FSS/Misc/App (Archives)
Miami, Florida, United States

Feed Status: UP
Listen in your browser - HTML5 player(in browser, HTML5)
Click here to listen with your own player(launches your MP3 player)

KMIA 061553Z 04005KT 10SM SCT035 BKN065 BKN080 28/19 A3007 RMK AO2 SLP181 T02830194

KMIA Airport Info (Airnav.com)

KMIA Flight Activity (Flightaware)

Listeners: 0 out of 3020 total

Miami Approach (KFLL Final): 133.725
Miami Approach (KFXE/KPMP): 119.700
Miami Flight Service Station (FSS): 123.650
Miami Flight Service Station (FSS): 122.650
Miami Flight Service Station (FSS): 122.600
Miami Flight Service Station (FSS): 122.550
Miami Flight Service Station (FSS): 122.400
Miami Flight Service Station (FSS): 122.300
Miami Flight Watch (Low): 122.000
Misc Company Frequencies:

KMRB Potomac App/Dep (LUCKE) (Archives)
Martinsburg, West Virginia, United States

Feed Status: UP
Listen in your browser - HTML5 player(in browser, HTML5)
Click here to listen with your own player(launches your MP3 player)

KMRB 061553Z 00000KT 10SM CLR 20/11 A3005 RMK AO2 SLP173 T02000106

KMRB Airport Info (Airnav.com)

KMRB Flight Activity (Flightaware)

Listeners: 1 out of 3020 total

Potomac Approach (LUCKE Sector): 126.825

Potomac App/Dep (BUFFR) (Archives)
Martinsburg, West Virginia, United States

Feed Status: UP
Listen in your browser - HTML5 player(in browser, HTML5)
Click here to listen with your own player(launches your MP3 player)

KMRB 061553Z 00000KT 10SM CLR 20/11 A3005 RMK AO2 SLP173 T02000106

KMRB Airport Info (Airnav.com)

KMRB Flight Activity (Flightaware)

Listeners: 0 out of 3020 total

Potomac Approach (BUFFR Sector): 133.850

KMSP Approach (121.2) (Archives)
Minneapolis, Minnesota, United States

Feed Status: UP
Listen in your browser - HTML5 player(in browser, HTML5)
Click here to listen with your own player(launches your MP3 player)

KMSP 061553Z 36016G24KT 10SM FEW033 BKN047 12/03 A3022 RMK AO2 PK WND 36029/1543 SLP236 T01220028

KMSP Airport Info (Airnav.com)

KMSP Flight Activity (Flightaware)

Listeners: 0 out of 3020 total

Minneapolis Approach: 121.200

KMSP Approach (Feeder North) (Archives)
Minneapolis, Minnesota, United States

Feed Status: UP
Listen in your browser - HTML5 player(in browser, HTML5)
Click here to listen with your own player(launches your MP3 player)

KMSP 061553Z 36016G24KT 10SM FEW033 BKN047 12/03 A3022 RMK AO2 PK WND 36029/1543 SLP236 T01220028

KMSP Airport Info (Airnav.com)

KMSP Flight Activity (Flightaware)

Listeners: 0 out of 3020 total

Minneapolis Approach (Feeder North): 126.350

KMSP Approach (Feeder South) (Archives)
Minneapolis, Minnesota, United States

Feed Status: UP
Listen in your browser - HTML5 player(in browser, HTML5)
Click here to listen with your own player(launches your MP3 player)

KMSP 061553Z 36016G24KT 10SM FEW033 BKN047 12/03 A3022 RMK AO2 PK WND 36029/1543 SLP236 T01220028

KMSP Airport Info (Airnav.com)

KMSP Flight Activity (Flightaware)

Listeners: 0 out of 3020 total

Minneapolis Approach (Feeder South): 135.475

KMSP Approach (North Low) (Archives)
Minneapolis, Minnesota, United States

Feed Status: UP
Listen in your browser - HTML5 player(in browser, HTML5)
Click here to listen with your own player(launches your MP3 player)

KMSP 061553Z 36016G24KT 10SM FEW033 BKN047 12/03 A3022 RMK AO2 PK WND 36029/1543 SLP236 T01220028

KMSP Airport Info (Airnav.com)

KMSP Flight Activity (Flightaware)

Listeners: 0 out of 3020 total

Minneapolis Approach (North/Low <4500'): 126.500

KMSP Approach (North/East) (Archives)
Minneapolis, Minnesota, United States

Feed Status: UP
Listen in your browser - HTML5 player(in browser, HTML5)
Click here to listen with your own player(launches your MP3 player)

KMSP 061553Z 36016G24KT 10SM FEW033 BKN047 12/03 A3022 RMK AO2 PK WND 36029/1543 SLP236 T01220028

KMSP Airport Info (Airnav.com)

KMSP Flight Activity (Flightaware)

Listeners: 1 out of 3020 total

Minneapolis Approach (North/East): 119.300

KMSP Approach (South/West) (Archives)
Minneapolis, Minnesota, United States

Feed Status: UP
Listen in your browser - HTML5 player(in browser, HTML5)
Click here to listen with your own player(launches your MP3 player)

KMSP 061553Z 36016G24KT 10SM FEW033 BKN047 12/03 A3022 RMK AO2 PK WND 36029/1543 SLP236 T01220028

KMSP Airport Info (Airnav.com)

KMSP Flight Activity (Flightaware)

Listeners: 0 out of 3020 total

Minneapolis Approach (South/West): 126.950

KMSP ATIS (Arrival) (Archives)
Minneapolis, Minnesota, United States

Feed Status: UP
Listen in your browser - HTML5 player(in browser, HTML5)
Click here to listen with your own player(launches your MP3 player)

KMSP 061553Z 36016G24KT 10SM FEW033 BKN047 12/03 A3022 RMK AO2 PK WND 36029/1543 SLP236 T01220028

KMSP Airport Info (Airnav.com)

KMSP Flight Activity (Flightaware)

Listeners: 0 out of 3020 total

Minneapolis ATIS (Arrival): 135.350

KMSP ATIS (Departure) (Archives)
Minneapolis, Minnesota, United States

Feed Status: UP
Listen in your browser - HTML5 player(in browser, HTML5)
Click here to listen with your own player(launches your MP3 player)

KMSP 061553Z 36016G24KT 10SM FEW033 BKN047 12/03 A3022 RMK AO2 PK WND 36029/1543 SLP236 T01220028

KMSP Airport Info (Airnav.com)

KMSP Flight Activity (Flightaware)

Listeners: 0 out of 3020 total

Minneapolis ATIS (Departure): 120.800

KMSP Clearance Delivery (Archives)
Minneapolis, Minnesota, United States

Feed Status: UP
Listen in your browser - HTML5 player(in browser, HTML5)
Click here to listen with your own player(launches your MP3 player)

KMSP 061553Z 36016G24KT 10SM FEW033 BKN047 12/03 A3022 RMK AO2 PK WND 36029/1543 SLP236 T01220028

KMSP Airport Info (Airnav.com)

KMSP Flight Activity (Flightaware)

Listeners: 0 out of 3020 total

Minneapolis Clearance Delivery: 133.200

KMSP Departure (North/East) (Archives)
Minneapolis, Minnesota, United States

Feed Status: UP
Listen in your browser - HTML5 player(in browser, HTML5)
Click here to listen with your own player(launches your MP3 player)

KMSP 061553Z 36016G24KT 10SM FEW033 BKN047 12/03 A3022 RMK AO2 PK WND 36029/1543 SLP236 T01220028

KMSP Airport Info (Airnav.com)

KMSP Flight Activity (Flightaware)

Listeners: 0 out of 3020 total

Minneapolis Departure (North/East): 125.750

KMSP Departure (South/West) (Archives)
Minneapolis, Minnesota, United States

Feed Status: UP
Listen in your browser - HTML5 player(in browser, HTML5)
Click here to listen with your own player(launches your MP3 player)

KMSP 061553Z 36016G24KT 10SM FEW033 BKN047 12/03 A3022 RMK AO2 PK WND 36029/1543 SLP236 T01220028

KMSP Airport Info (Airnav.com)

KMSP Flight Activity (Flightaware)

Listeners: 0 out of 3020 total

Minneapolis Departure (South/West): 124.700

KMSP Emergency/Guard (Archives)
Minneapolis, Minnesota, United States

Feed Status: UP
Listen in your browser - HTML5 player(in browser, HTML5)
Click here to listen with your own player(launches your MP3 player)

KMSP 061553Z 36016G24KT 10SM FEW033 BKN047 12/03 A3022 RMK AO2 PK WND 36029/1543 SLP236 T01220028

KMSP Airport Info (Airnav.com)

KMSP Flight Activity (Flightaware)

Listeners: 0 out of 3020 total

Emergency/Guard: 121.500

KMSP Ground (North) (Archives)
Minneapolis, Minnesota, United States

Feed Status: UP
Listen in your browser - HTML5 player(in browser, HTML5)
Click here to listen with your own player(launches your MP3 player)

KMSP 061553Z 36016G24KT 10SM FEW033 BKN047 12/03 A3022 RMK AO2 PK WND 36029/1543 SLP236 T01220028

KMSP Airport Info (Airnav.com)

KMSP Flight Activity (Flightaware)

Listeners: 0 out of 3020 total

Minneapolis Ground (North): 121.800

KMSP Ground (South) (Archives)
Minneapolis, Minnesota, United States

Feed Status: UP
Listen in your browser - HTML5 player(in browser, HTML5)
Click here to listen with your own player(launches your MP3 player)

KMSP 061553Z 36016G24KT 10SM FEW033 BKN047 12/03 A3022 RMK AO2 PK WND 36029/1543 SLP236 T01220028

KMSP Airport Info (Airnav.com)

KMSP Flight Activity (Flightaware)

Listeners: 0 out of 3020 total

Minneapolis Ground (South): 121.900

KMSP Ground (West) (Archives)
Minneapolis, Minnesota, United States

Feed Status: UP
Listen in your browser - HTML5 player(in browser, HTML5)
Click here to listen with your own player(launches your MP3 player)

KMSP 061553Z 36016G24KT 10SM FEW033 BKN047 12/03 A3022 RMK AO2 PK WND 36029/1543 SLP236 T01220028

KMSP Airport Info (Airnav.com)

KMSP Flight Activity (Flightaware)

Listeners: 0 out of 3020 total

Minneapolis Ground (West): 127.925

KMSP Metering (Archives)
Minneapolis, Minnesota, United States

Feed Status: UP
Listen in your browser - HTML5 player(in browser, HTML5)
Click here to listen with your own player(launches your MP3 player)

KMSP 061553Z 36016G24KT 10SM FEW033 BKN047 12/03 A3022 RMK AO2 PK WND 36029/1543 SLP236 T01220028

KMSP Airport Info (Airnav.com)

KMSP Flight Activity (Flightaware)

Listeners: 1 out of 3020 total

Minneapolis Metering: 133.575

KMSP Tower (Rwy 12L/30R) (Archives)
Minneapolis, Minnesota, United States

Feed Status: UP
Listen in your browser - HTML5 player(in browser, HTML5)
Click here to listen with your own player(launches your MP3 player)

KMSP 061553Z 36016G24KT 10SM FEW033 BKN047 12/03 A3022 RMK AO2 PK WND 36029/1543 SLP236 T01220028

KMSP Airport Info (Airnav.com)

KMSP Flight Activity (Flightaware)

Listeners: 1 out of 3020 total

Minneapolis Tower (Runway 12L/30R): 123.950

KMSP Tower (Rwy 17/35) (Archives)
Minneapolis, Minnesota, United States

Feed Status: UP
Listen in your browser - HTML5 player(in browser, HTML5)
Click here to listen with your own player(launches your MP3 player)

KMSP 061553Z 36016G24KT 10SM FEW033 BKN047 12/03 A3022 RMK AO2 PK WND 36029/1543 SLP236 T01220028

KMSP Airport Info (Airnav.com)

KMSP Flight Activity (Flightaware)

Listeners: 0 out of 3020 total

Minneapolis Tower (Rwy 17/35): 123.675

KMSP Tower (Rwys 12R/30L,4/22) (Archives)
Minneapolis, Minnesota, United States

Feed Status: UP
Listen in your browser - HTML5 player(in browser, HTML5)
Click here to listen with your own player(launches your MP3 player)

KMSP 061553Z 36016G24KT 10SM FEW033 BKN047 12/03 A3022 RMK AO2 PK WND 36029/1543 SLP236 T01220028

KMSP Airport Info (Airnav.com)

KMSP Flight Activity (Flightaware)

Listeners: 4 out of 3020 total

Minneapolis Tower (Runways 12R/30L, 4/22): 126.700

KMSY App/Dep (Archives)
New Orleans, Louisiana, United States

Feed Status: UP
Listen in your browser - HTML5 player(in browser, HTML5)
Click here to listen with your own player(launches your MP3 player)

KMSY 061553Z 33006KT 10SM FEW020 FEW070 26/16 A3015 RMK AO2 SLP211 T02610161

KMSY Airport Info (Airnav.com)

KMSY Flight Activity (Flightaware)

Listeners: 1 out of 3020 total

New Orleans Approach (Final/Spare): 120.100
New Orleans Approach (North-East): 133.150
New Orleans Approach (SE-South): 123.850
New Orleans Approach (West): 125.500

KMSY Del/Gnd (Archives)
New Orleans, Louisiana, United States

Feed Status: UP
Listen in your browser - HTML5 player(in browser, HTML5)
Click here to listen with your own player(launches your MP3 player)

KMSY 061553Z 33006KT 10SM FEW020 FEW070 26/16 A3015 RMK AO2 SLP211 T02610161

KMSY Airport Info (Airnav.com)

KMSY Flight Activity (Flightaware)

Listeners: 0 out of 3020 total

New Orleans Clearance Delivery: 127.200
New Orleans Ground: 121.900

KMSY Tower (Archives)
New Orleans, Louisiana, United States

Feed Status: UP
Listen in your browser - HTML5 player(in browser, HTML5)
Click here to listen with your own player(launches your MP3 player)

KMSY 061553Z 33006KT 10SM FEW020 FEW070 26/16 A3015 RMK AO2 SLP211 T02610161

KMSY Airport Info (Airnav.com)

KMSY Flight Activity (Flightaware)

Listeners: 0 out of 3020 total

Emergency/Guard: 121.500
New Orleans Tower: 119.500

Seattle App/Dep (Archives)
Olympia, Washington, United States

Feed Status: UP
Listen in your browser - HTML5 player(in browser, HTML5)
Click here to listen with your own player(launches your MP3 player)

KOLM 061554Z 02005KT 3/4SM BR OVC002 12/12 A3018 RMK AO2 SLP218 T01170117

KOLM Airport Info (Airnav.com)

KOLM Flight Activity (Flightaware)

Listeners: 0 out of 3020 total

Seattle Approach/Departure: 121.100

KORD App (10R/28C) (Archives)
Chicago, Illinois, United States

Feed Status: UP
Listen in your browser - HTML5 player(in browser, HTML5)
Click here to listen with your own player(launches your MP3 player)

KORD 061551Z 26006KT 10SM FEW080 SCT095 BKN250 19/09 A3001 RMK AO2 SLP161 T01940094

KORD Airport Info (Airnav.com)

KORD Flight Activity (Flightaware)

Listeners: 6 out of 3020 total

Chicago Approach (NW Feeder): 135.075
Chicago Approach (SE Feeder) : 118.925
Chicago Approach (W Arrival): 133.625

KORD App (27L/09R/10C) (Archives)
Chicago, Illinois, United States

Feed Status: UP
Listen in your browser - HTML5 player(in browser, HTML5)
Click here to listen with your own player(launches your MP3 player)

KORD 061551Z 26006KT 10SM FEW080 SCT095 BKN250 19/09 A3001 RMK AO2 SLP161 T01940094

KORD Airport Info (Airnav.com)

KORD Flight Activity (Flightaware)

Listeners: 2 out of 3020 total

Chicago Approach (Z Arrival): 119.000

KORD App (27R/9L) (Archives)
Chicago, Illinois, United States

Feed Status: UP
Listen in your browser - HTML5 player(in browser, HTML5)
Click here to listen with your own player(launches your MP3 player)

KORD 061551Z 26006KT 10SM FEW080 SCT095 BKN250 19/09 A3001 RMK AO2 SLP161 T01940094

KORD Airport Info (Airnav.com)

KORD Flight Activity (Flightaware)

Listeners: 1 out of 3020 total

Chicago Approach (F Arrival): 124.350
Chicago Approach (NE Feeder): 125.700
Chicago Approach (SW Feeder): 135.025

KORD App (28C) (Archives)
Chicago, Illinois, United States

Feed Status: UP
Listen in your browser - HTML5 player(in browser, HTML5)
Click here to listen with your own player(launches your MP3 player)

KORD 061551Z 26006KT 10SM FEW080 SCT095 BKN250 19/09 A3001 RMK AO2 SLP161 T01940094

KORD Airport Info (Airnav.com)

KORD Flight Activity (Flightaware)

Listeners: 0 out of 3020 total

Chicago Approach: 132.175

KORD ATIS (Archives)
Chicago, Illinois, United States

Feed Status: UP
Listen in your browser - HTML5 player(in browser, HTML5)
Click here to listen with your own player(launches your MP3 player)

KORD 061551Z 26006KT 10SM FEW080 SCT095 BKN250 19/09 A3001 RMK AO2 SLP161 T01940094

KORD Airport Info (Airnav.com)

KORD Flight Activity (Flightaware)

Listeners: 0 out of 3020 total

O'Hare D-ATIS: 135.400

KORD Clearance/Metering (Archives)
Chicago, Illinois, United States

Feed Status: UP
Listen in your browser - HTML5 player(in browser, HTML5)
Click here to listen with your own player(launches your MP3 player)

KORD 061551Z 26006KT 10SM FEW080 SCT095 BKN250 19/09 A3001 RMK AO2 SLP161 T01940094

KORD Airport Info (Airnav.com)

KORD Flight Activity (Flightaware)

Listeners: 1 out of 3020 total

American Airlines Ramp: 131.875
O'Hare Clearance: 121.600
O'Hare Clearance: 119.250
O'Hare Concourse C: 129.075
O'Hare Concourse C: 128.900
O'Hare Concourse H & K: 129.675
O'Hare F Alley: 130.375
O'Hare H Alley: 128.975
O'Hare Ramp/Metering: 121.675
O'Hare Ramp/Metering (North/South): 131.300
O'Hare Y Alley Concourse E & F: 130.375

KORD Dep (125.0) #1 (Archives)
Chicago, Illinois, United States

Feed Status: UP
Listen in your browser - HTML5 player(in browser, HTML5)
Click here to listen with your own player(launches your MP3 player)

KORD 061551Z 26006KT 10SM FEW080 SCT095 BKN250 19/09 A3001 RMK AO2 SLP161 T01940094

KORD Airport Info (Airnav.com)

KORD Flight Activity (Flightaware)

Listeners: 0 out of 3020 total

Chicago Departure (East Departure): 125.000

KORD Dep (125.0) #2 (Archives)
Chicago, Illinois, United States

Feed Status: UP
Listen in your browser - HTML5 player(in browser, HTML5)
Click here to listen with your own player(launches your MP3 player)

KORD 061551Z 26006KT 10SM FEW080 SCT095 BKN250 19/09 A3001 RMK AO2 SLP161 T01940094

KORD Airport Info (Airnav.com)

KORD Flight Activity (Flightaware)

Listeners: 0 out of 3020 total

Chicago Departure (East Departure): 125.000

KORD Dep (125.4) (Archives)
Chicago, Illinois, United States

Feed Status: UP
Listen in your browser - HTML5 player(in browser, HTML5)
Click here to listen with your own player(launches your MP3 player)

KORD 061551Z 26006KT 10SM FEW080 SCT095 BKN250 19/09 A3001 RMK AO2 SLP161 T01940094

KORD Airport Info (Airnav.com)

KORD Flight Activity (Flightaware)

Listeners: 0 out of 3020 total

Chicago Departure (West): 125.400

KORD Departure (Archives)
Chicago, Illinois, United States

Feed Status: UP
Listen in your browser - HTML5 player(in browser, HTML5)
Click here to listen with your own player(launches your MP3 player)

KORD 061551Z 26006KT 10SM FEW080 SCT095 BKN250 19/09 A3001 RMK AO2 SLP161 T01940094

KORD Airport Info (Airnav.com)

KORD Flight Activity (Flightaware)

Listeners: 1 out of 3020 total

Chicago Departure (N/E Backup): 134.400
Chicago Departure (N/E/Loop, combined w/ 125.0): 118.275
Chicago Departure (South): 126.625
Chicago Departure (West): 125.400
Chicago Departure (West): 135.275

KORD Ground (Archives)
Chicago, Illinois, United States

Feed Status: UP
Listen in your browser - HTML5 player(in browser, HTML5)
Click here to listen with your own player(launches your MP3 player)

KORD 061551Z 26006KT 10SM FEW080 SCT095 BKN250 19/09 A3001 RMK AO2 SLP161 T01940094

KORD Airport Info (Airnav.com)

KORD Flight Activity (Flightaware)

Listeners: 3 out of 3020 total

O'Hare Ground (Center): 134.150
O'Hare Ground (Inbound): 121.900
O'Hare Ground (North Twr): 124.125
O'Hare Ground (Outbound): 121.750

KORD Ground (Inbound) (Archives)
Chicago, Illinois, United States

Feed Status: UP
Listen in your browser - HTML5 player(in browser, HTML5)
Click here to listen with your own player(launches your MP3 player)

KORD 061551Z 26006KT 10SM FEW080 SCT095 BKN250 19/09 A3001 RMK AO2 SLP161 T01940094

KORD Airport Info (Airnav.com)

KORD Flight Activity (Flightaware)

Listeners: 0 out of 3020 total

O'Hare Ground (Inbound): 121.900

KORD Ground (Outbound) (Archives)
Chicago, Illinois, United States

Feed Status: UP
Listen in your browser - HTML5 player(in browser, HTML5)
Click here to listen with your own player(launches your MP3 player)

KORD 061551Z 26006KT 10SM FEW080 SCT095 BKN250 19/09 A3001 RMK AO2 SLP161 T01940094

KORD Airport Info (Airnav.com)

KORD Flight Activity (Flightaware)

Listeners: 0 out of 3020 total

O'Hare Ground (Outbound): 121.750

KORD Tower (Archives)
Chicago, Illinois, United States

Feed Status: UP
Listen in your browser - HTML5 player(in browser, HTML5)
Click here to listen with your own player(launches your MP3 player)

KORD 061551Z 26006KT 10SM FEW080 SCT095 BKN250 19/09 A3001 RMK AO2 SLP161 T01940094

KORD Airport Info (Airnav.com)

KORD Flight Activity (Flightaware)

Listeners: 7 out of 3020 total

O'Hare Tower (Aux - Runway Switch): 118.450
O'Hare Tower (Aux): 127.925
O'Hare Tower (Center): 132.700
O'Hare Tower (Center): 121.150
O'Hare Tower (Emergency): 119.250
O'Hare Tower (North): 126.900
O'Hare Tower (North): 128.150
O'Hare Tower (South 10R/28L): 133.000
O'Hare Tower (South): 120.750

KORD Tower (Center) (Archives)
Chicago, Illinois, United States

Feed Status: UP
Listen in your browser - HTML5 player(in browser, HTML5)
Click here to listen with your own player(launches your MP3 player)

KORD 061551Z 26006KT 10SM FEW080 SCT095 BKN250 19/09 A3001 RMK AO2 SLP161 T01940094

KORD Airport Info (Airnav.com)

KORD Flight Activity (Flightaware)

Listeners: 1 out of 3020 total

O'Hare Tower (Center): 132.700
O'Hare Tower (Center): 121.150
O'Hare Tower (Center/Aux): 127.925

KORD Tower (North) (Archives)
Chicago, Illinois, United States

Feed Status: UP
Listen in your browser - HTML5 player(in browser, HTML5)
Click here to listen with your own player(launches your MP3 player)

KORD 061551Z 26006KT 10SM FEW080 SCT095 BKN250 19/09 A3001 RMK AO2 SLP161 T01940094

KORD Airport Info (Airnav.com)

KORD Flight Activity (Flightaware)

Listeners: 1 out of 3020 total

O'Hare Tower (North): 128.150
O'Hare Tower (North): 126.900

KORD Tower (South) (Archives)
Chicago, Illinois, United States

Feed Status: UP
Listen in your browser - HTML5 player(in browser, HTML5)
Click here to listen with your own player(launches your MP3 player)

KORD 061551Z 26006KT 10SM FEW080 SCT095 BKN250 19/09 A3001 RMK AO2 SLP161 T01940094

KORD Airport Info (Airnav.com)

KORD Flight Activity (Flightaware)

Listeners: 1 out of 3020 total

O'Hare Tower (South 10R/28L): 133.000
O'Hare Tower (South): 120.750

KMCO App/Dep (Disney Sector) (Archives)
Orlando, Florida, United States

Feed Status: UP
Listen in your browser - HTML5 player(in browser, HTML5)
Click here to listen with your own player(launches your MP3 player)

KORL 061553Z 06006KT 10SM CLR 27/13 A3011 RMK AO2 SLP199 T02720133 $

KORL Airport Info (Airnav.com)

KORL Flight Activity (Flightaware)

Listeners: 0 out of 3020 total

Orlando Approach (Disney Satellite Sector): 119.400

KMCO App/Dep (Disney/OVIDO Sectors) #1 (Archives)
Orlando, Florida, United States

Feed Status: UP
Listen in your browser - HTML5 player(in browser, HTML5)
Click here to listen with your own player(launches your MP3 player)

KORL 061553Z 06006KT 10SM CLR 27/13 A3011 RMK AO2 SLP199 T02720133 $

KORL Airport Info (Airnav.com)

KORL Flight Activity (Flightaware)

Listeners: 0 out of 3020 total

Orlando Approach (Disney Satellite Sector): 119.400
Orlando Approach (OVIDO Satellite Sector): 119.775

KMCO App/Dep (Disney/OVIDO Sectors) #2 (Archives)
Orlando, Florida, United States

Feed Status: UP
Listen in your browser - HTML5 player(in browser, HTML5)
Click here to listen with your own player(launches your MP3 player)

KORL 061553Z 06006KT 10SM CLR 27/13 A3011 RMK AO2 SLP199 T02720133 $

KORL Airport Info (Airnav.com)

KORL Flight Activity (Flightaware)

Listeners: 0 out of 3020 total

Orlando Approach (Disney Satellite Sector): 119.400
Orlando Approach (OVIDO Satellite Sector): 119.775

KMCO App/Dep (North Satellite) (Archives)
Orlando, Florida, United States

Feed Status: UP
Listen in your browser - HTML5 player(in browser, HTML5)
Click here to listen with your own player(launches your MP3 player)

KORL 061553Z 06006KT 10SM CLR 27/13 A3011 RMK AO2 SLP199 T02720133 $

KORL Airport Info (Airnav.com)

KORL Flight Activity (Flightaware)

Listeners: 0 out of 3020 total

Orlando Approach (North Satellite): 135.300

KMCO App/Dep (OVIDO Sector) (Archives)
Orlando, Florida, United States

Feed Status: UP
Listen in your browser - HTML5 player(in browser, HTML5)
Click here to listen with your own player(launches your MP3 player)

KORL 061553Z 06006KT 10SM CLR 27/13 A3011 RMK AO2 SLP199 T02720133 $

KORL Airport Info (Airnav.com)

KORL Flight Activity (Flightaware)

Listeners: 0 out of 3020 total

Orlando Approach (OVIDO Satellite Sector): 119.775

Atlanta App/Dep (SAT-P) (Archives)
Atlanta, Georgia, United States

Feed Status: UP
Listen in your browser - HTML5 player(in browser, HTML5)
Click here to listen with your own player(launches your MP3 player)

KLZU 061556Z 00000KT 10SM CLR 23/09 A3012 RMK AO2 SLP206 T02280094

KLZU Airport Info (Airnav.com)

KLZU Flight Activity (Flightaware)

Listeners: 0 out of 3020 total

Atlanta Approach/Departure (SAT-P): 126.975

KPHL App (Final) (Archives)
Philadelphia, Pennsylvania, United States

Feed Status: UP
Listen in your browser - HTML5 player(in browser, HTML5)
Click here to listen with your own player(launches your MP3 player)

KPHL 061554Z 19005KT 10SM SCT260 21/09 A3001 RMK AO2 SLP160 T02060089 $

KPHL Airport Info (Airnav.com)

KPHL Flight Activity (Flightaware)

Listeners: 0 out of 3020 total

Philly Approach (Final): 125.400
Philly Approach (Final2 - Landing Rwy 27L): 132.675

KPHL App (N. Arrival) #1 (Archives)
Philadelphia, Pennsylvania, United States

Feed Status: UP
Listen in your browser - HTML5 player(in browser, HTML5)
Click here to listen with your own player(launches your MP3 player)

KPHL 061554Z 19005KT 10SM SCT260 21/09 A3001 RMK AO2 SLP160 T02060089 $

KPHL Airport Info (Airnav.com)

KPHL Flight Activity (Flightaware)

Listeners: 1 out of 3020 total

Philadelphia Approach (North Arrival) : 128.400

KPHL App (N. Arrival) #2 (Archives)
Philadelphia, Pennsylvania, United States

Feed Status: UP
Listen in your browser - HTML5 player(in browser, HTML5)
Click here to listen with your own player(launches your MP3 player)

KPHL 061554Z 19005KT 10SM SCT260 21/09 A3001 RMK AO2 SLP160 T02060089 $

KPHL Airport Info (Airnav.com)

KPHL Flight Activity (Flightaware)

Listeners: 0 out of 3020 total

Philadelphia Approach (North Arrival) : 128.400

KPHL App (N/S Arrival) (Archives)
Philadelphia, Pennsylvania, United States

Feed Status: UP
Listen in your browser - HTML5 player(in browser, HTML5)
Click here to listen with your own player(launches your MP3 player)

KPHL 061554Z 19005KT 10SM SCT260 21/09 A3001 RMK AO2 SLP160 T02060089 $

KPHL Airport Info (Airnav.com)

KPHL Flight Activity (Flightaware)

Listeners: 1 out of 3020 total

Philadelphia Approach (North Arrival) : 128.400
Philadelphia Approach (South Arrival): 133.875
Philly Approach (Woodstown - Rwy 35 Final) : 127.350

KPHL App (S. Arrival) #1 (Archives)
Philadelphia, Pennsylvania, United States

Feed Status: UP
Listen in your browser - HTML5 player(in browser, HTML5)
Click here to listen with your own player(launches your MP3 player)

KPHL 061554Z 19005KT 10SM SCT260 21/09 A3001 RMK AO2 SLP160 T02060089 $

KPHL Airport Info (Airnav.com)

KPHL Flight Activity (Flightaware)

Listeners: 3 out of 3020 total

Philadelphia Approach (South Arrival): 133.875
Philly Approach (Woodstown - Rwy 35 Final) : 127.350

KPHL App (S. Arrival) #2 (Archives)
Philadelphia, Pennsylvania, United States

Feed Status: UP
Listen in your browser - HTML5 player(in browser, HTML5)
Click here to listen with your own player(launches your MP3 player)

KPHL 061554Z 19005KT 10SM SCT260 21/09 A3001 RMK AO2 SLP160 T02060089 $

KPHL Airport Info (Airnav.com)

KPHL Flight Activity (Flightaware)

Listeners: 0 out of 3020 total

Philadelphia Approach (South Arrival): 133.875

KPHL App/Dep (South) (Archives)
Philadelphia, Pennsylvania, United States

Feed Status: UP
Listen in your browser - HTML5 player(in browser, HTML5)
Click here to listen with your own player(launches your MP3 player)

KPHL 061554Z 19005KT 10SM SCT260 21/09 A3001 RMK AO2 SLP160 T02060089 $

KPHL Airport Info (Airnav.com)

KPHL Flight Activity (Flightaware)

Listeners: 0 out of 3020 total

Philly Approach/Departure (South): 119.750

KPHL ATIS (Arrival) (Archives)
Philadelphia, Pennsylvania, United States

Feed Status: UP
Listen in your browser - HTML5 player(in browser, HTML5)
Click here to listen with your own player(launches your MP3 player)

KPHL 061554Z 19005KT 10SM SCT260 21/09 A3001 RMK AO2 SLP160 T02060089 $

KPHL Airport Info (Airnav.com)

KPHL Flight Activity (Flightaware)

Listeners: 0 out of 3020 total

Philadelphia ATIS (Arrival): 133.400

KPHL Clearance Delivery #1 (Archives)
Philadelphia, Pennsylvania, United States

Feed Status: UP
Listen in your browser - HTML5 player(in browser, HTML5)
Click here to listen with your own player(launches your MP3 player)

KPHL 061554Z 19005KT 10SM SCT260 21/09 A3001 RMK AO2 SLP160 T02060089 $

KPHL Airport Info (Airnav.com)

KPHL Flight Activity (Flightaware)

Listeners: 0 out of 3020 total

Emergency (Guard): 121.500
Philly Clearance Delivery: 118.850

KPHL Clearance Delivery #2 (Archives)
Philadelphia, Pennsylvania, United States

Feed Status: UP
Listen in your browser - HTML5 player(in browser, HTML5)
Click here to listen with your own player(launches your MP3 player)

KPHL 061554Z 19005KT 10SM SCT260 21/09 A3001 RMK AO2 SLP160 T02060089 $

KPHL Airport Info (Airnav.com)

KPHL Flight Activity (Flightaware)

Listeners: 0 out of 3020 total

Philly Clearance Delivery: 118.850

KPHL Dep (N. Departure) (Archives)
Philadelphia, Pennsylvania, United States

Feed Status: UP
Listen in your browser - HTML5 player(in browser, HTML5)
Click here to listen with your own player(launches your MP3 player)

KPHL 061554Z 19005KT 10SM SCT260 21/09 A3001 RMK AO2 SLP160 T02060089 $

KPHL Airport Info (Airnav.com)

KPHL Flight Activity (Flightaware)

Listeners: 1 out of 3020 total

Philadelpha Approach (Pottstown - summer or Rwy 17 Final): 126.850
Philadelpha Approach (Yardley Sector, North Satellite): 123.800
Philadelphia Departure (North High Departure): 126.075
Philly Departure (North Departure): 124.350

KPHL Dep (N/S Dep) (Archives)
Philadelphia, Pennsylvania, United States

Feed Status: UP
Listen in your browser - HTML5 player(in browser, HTML5)
Click here to listen with your own player(launches your MP3 player)

KPHL 061554Z 19005KT 10SM SCT260 21/09 A3001 RMK AO2 SLP160 T02060089 $

KPHL Airport Info (Airnav.com)

KPHL Flight Activity (Flightaware)

Listeners: 4 out of 3020 total

Philadelpha Approach (Pottstown - summer or Rwy 17 Final): 126.850
Philadelpha Approach (Yardley Sector, North Satellite): 123.800
Philadelphia Approach (Dupont): 118.350
Philadelphia Departure (North High Departure): 126.075
Philly Departure (North Departure): 124.350
Philly Departure (South Departure): 119.750

KPHL Dep (S. Departure) (Archives)
Philadelphia, Pennsylvania, United States

Feed Status: UP
Listen in your browser - HTML5 player(in browser, HTML5)
Click here to listen with your own player(launches your MP3 player)

KPHL 061554Z 19005KT 10SM SCT260 21/09 A3001 RMK AO2 SLP160 T02060089 $

KPHL Airport Info (Airnav.com)

KPHL Flight Activity (Flightaware)

Listeners: 0 out of 3020 total

Philadelphia Approach (Dupont): 118.350
Philly Departure (South Departure): 119.750

KPHL Ground/Ramp Control (Archives)
Philadelphia, Pennsylvania, United States

Feed Status: UP
Listen in your browser - HTML5 player(in browser, HTML5)
Click here to listen with your own player(launches your MP3 player)

KPHL 061554Z 19005KT 10SM SCT260 21/09 A3001 RMK AO2 SLP160 T02060089 $

KPHL Airport Info (Airnav.com)

KPHL Flight Activity (Flightaware)

Listeners: 2 out of 3020 total

Philly Ground: 121.650
Philly Ground: 121.900
US Airways (Ramp Control): 130.050

KPHL Tower (East) #1 (Archives)
Philadelphia, Pennsylvania, United States

Feed Status: UP
Listen in your browser - HTML5 player(in browser, HTML5)
Click here to listen with your own player(launches your MP3 player)

KPHL 061554Z 19005KT 10SM SCT260 21/09 A3001 RMK AO2 SLP160 T02060089 $

KPHL Airport Info (Airnav.com)

KPHL Flight Activity (Flightaware)

Listeners: 2 out of 3020 total

Philadelphia Tower (East): 118.500

KPHL Tower (East) #2 (Archives)
Philadelphia, Pennsylvania, United States

Feed Status: UP
Listen in your browser - HTML5 player(in browser, HTML5)
Click here to listen with your own player(launches your MP3 player)

KPHL 061554Z 19005KT 10SM SCT260 21/09 A3001 RMK AO2 SLP160 T02060089 $

KPHL Airport Info (Airnav.com)

KPHL Flight Activity (Flightaware)

Listeners: 0 out of 3020 total

Philadelphia Tower (East): 118.500

KPHL Tower (East/West) #1 (Archives)
Philadelphia, Pennsylvania, United States

Feed Status: UP
Listen in your browser - HTML5 player(in browser, HTML5)
Click here to listen with your own player(launches your MP3 player)

KPHL 061554Z 19005KT 10SM SCT260 21/09 A3001 RMK AO2 SLP160 T02060089 $

KPHL Airport Info (Airnav.com)

KPHL Flight Activity (Flightaware)

Listeners: 0 out of 3020 total

Philadelphia Tower (East): 118.500
Philadelphia Tower (West): 135.100

KPHL Tower (East/West) #2 (Archives)
Philadelphia, Pennsylvania, United States

Feed Status: UP
Listen in your browser - HTML5 player(in browser, HTML5)
Click here to listen with your own player(launches your MP3 player)

KPHL 061554Z 19005KT 10SM SCT260 21/09 A3001 RMK AO2 SLP160 T02060089 $

KPHL Airport Info (Airnav.com)

KPHL Flight Activity (Flightaware)

Listeners: 0 out of 3020 total

Philadelphia Tower (East): 118.500
Philadelphia Tower (West): 135.100
Tower (Sequencer during SWAP): 123.600

KPHL Tower (West) #1 (Archives)
Philadelphia, Pennsylvania, United States

Feed Status: UP
Listen in your browser - HTML5 player(in browser, HTML5)
Click here to listen with your own player(launches your MP3 player)

KPHL 061554Z 19005KT 10SM SCT260 21/09 A3001 RMK AO2 SLP160 T02060089 $

KPHL Airport Info (Airnav.com)

KPHL Flight Activity (Flightaware)

Listeners: 0 out of 3020 total

Philadelphia Tower (West): 135.100

KPHL Tower (West) #2 (Archives)
Philadelphia, Pennsylvania, United States

Feed Status: UP
Listen in your browser - HTML5 player(in browser, HTML5)
Click here to listen with your own player(launches your MP3 player)

KPHL 061554Z 19005KT 10SM SCT260 21/09 A3001 RMK AO2 SLP160 T02060089 $

KPHL Airport Info (Airnav.com)

KPHL Flight Activity (Flightaware)

Listeners: 0 out of 3020 total

Philadelphia Tower (West): 135.100
Tower (Sequencer during SWAP): 123.600

KPHX Approach (N/S)/S Final (Archives)
Phoenix, Arizona, United States

Feed Status: UP
Listen in your browser - HTML5 player(in browser, HTML5)
Click here to listen with your own player(launches your MP3 player)

KPHX 061551Z 10005KT 10SM FEW120 FEW210 FEW240 27/11 A3004 RMK AO2 SLP156 T02670106

KPHX Airport Info (Airnav.com)

KPHX Flight Activity (Flightaware)

Listeners: 2 out of 3020 total

Phoenix Approach (North Arrival): 128.650
Phoenix Approach (Rwy 7R/L/25L/R Final): 120.400
Phoenix Approach (South Arrival): 124.100

KPHX Approach (North Final) (Archives)
Phoenix, Arizona, United States

Feed Status: UP
Listen in your browser - HTML5 player(in browser, HTML5)
Click here to listen with your own player(launches your MP3 player)

KPHX 061551Z 10005KT 10SM FEW120 FEW210 FEW240 27/11 A3004 RMK AO2 SLP156 T02670106

KPHX Airport Info (Airnav.com)

KPHX Flight Activity (Flightaware)

Listeners: 1 out of 3020 total

Phoenix Approach (Rwy 8/26 Final): 126.600

KPHX Approach (Pima Sector) (Archives)
Phoenix, Arizona, United States

Feed Status: UP
Listen in your browser - HTML5 player(in browser, HTML5)
Click here to listen with your own player(launches your MP3 player)

KPHX 061551Z 10005KT 10SM FEW120 FEW210 FEW240 27/11 A3004 RMK AO2 SLP156 T02670106

KPHX Airport Info (Airnav.com)

KPHX Flight Activity (Flightaware)

Listeners: 0 out of 3020 total

Phoenix Approach (Pima Sector): 123.700

KPHX Approach (Pima/Willy Sectors) (Archives)
Phoenix, Arizona, United States

Feed Status: UP
Listen in your browser - HTML5 player(in browser, HTML5)
Click here to listen with your own player(launches your MP3 player)

KPHX 061551Z 10005KT 10SM FEW120 FEW210 FEW240 27/11 A3004 RMK AO2 SLP156 T02670106

KPHX Airport Info (Airnav.com)

KPHX Flight Activity (Flightaware)

Listeners: 0 out of 3020 total

Phoenix Approach (Pima Sector): 123.700
Phoenix Approach (Willy Sector): 124.900

KPHX Approach (SDL/Tempe/West) (Archives)
Phoenix, Arizona, United States

Feed Status: UP
Listen in your browser - HTML5 player(in browser, HTML5)
Click here to listen with your own player(launches your MP3 player)

KPHX 061551Z 10005KT 10SM FEW120 FEW210 FEW240 27/11 A3004 RMK AO2 SLP156 T02670106

KPHX Airport Info (Airnav.com)

KPHX Flight Activity (Flightaware)

Listeners: 1 out of 3020 total

Phoenix Approach (East Tempe Sector): 123.700
Phoenix Approach (North Biltmore Sector/KSDL): 120.700
Phoenix Approach (West): 134.250

KPHX Departure (Archives)
Phoenix, Arizona, United States

Feed Status: UP
Listen in your browser - HTML5 player(in browser, HTML5)
Click here to listen with your own player(launches your MP3 player)

KPHX 061551Z 10005KT 10SM FEW120 FEW210 FEW240 27/11 A3004 RMK AO2 SLP156 T02670106

KPHX Airport Info (Airnav.com)

KPHX Flight Activity (Flightaware)

Listeners: 2 out of 3020 total

Phoenix Departure (North): 119.200
Phoenix Departure (South): 126.800

KPHX Ground (North/Pri) (Archives)
Phoenix, Arizona, United States

Feed Status: UP
Listen in your browser - HTML5 player(in browser, HTML5)
Click here to listen with your own player(launches your MP3 player)

KPHX 061551Z 10005KT 10SM FEW120 FEW210 FEW240 27/11 A3004 RMK AO2 SLP156 T02670106

KPHX Airport Info (Airnav.com)

KPHX Flight Activity (Flightaware)

Listeners: 0 out of 3020 total

Phoenix Ground (North/Primary): 119.750

KPHX Ground (North/Sec) (Archives)
Phoenix, Arizona, United States

Feed Status: UP
Listen in your browser - HTML5 player(in browser, HTML5)
Click here to listen with your own player(launches your MP3 player)

KPHX 061551Z 10005KT 10SM FEW120 FEW210 FEW240 27/11 A3004 RMK AO2 SLP156 T02670106

KPHX Airport Info (Airnav.com)

KPHX Flight Activity (Flightaware)

Listeners: 0 out of 3020 total

Phoenix Ground (North/Secondary): 133.700

KPHX Ground (South) (Archives)
Phoenix, Arizona, United States

Feed Status: UP
Listen in your browser - HTML5 player(in browser, HTML5)
Click here to listen with your own player(launches your MP3 player)

KPHX 061551Z 10005KT 10SM FEW120 FEW210 FEW240 27/11 A3004 RMK AO2 SLP156 T02670106

KPHX Airport Info (Airnav.com)

KPHX Flight Activity (Flightaware)

Listeners: 0 out of 3020 total

Phoenix Ground (South): 132.550

KPHX Tower (Discrete/Emergency) (Archives)
Phoenix, Arizona, United States

Feed Status: UP
Listen in your browser - HTML5 player(in browser, HTML5)
Click here to listen with your own player(launches your MP3 player)

KPHX 061551Z 10005KT 10SM FEW120 FEW210 FEW240 27/11 A3004 RMK AO2 SLP156 T02670106

KPHX Airport Info (Airnav.com)

KPHX Flight Activity (Flightaware)

Listeners: 0 out of 3020 total

Phoenix Tower (Discrete/Emergency): 134.850

KPHX Tower (North) (Archives)
Phoenix, Arizona, United States

Feed Status: UP
Listen in your browser - HTML5 player(in browser, HTML5)
Click here to listen with your own player(launches your MP3 player)

KPHX 061551Z 10005KT 10SM FEW120 FEW210 FEW240 27/11 A3004 RMK AO2 SLP156 T02670106

KPHX Airport Info (Airnav.com)

KPHX Flight Activity (Flightaware)

Listeners: 0 out of 3020 total

Phoenix Tower (Rwy 8/26): 118.700

KPHX Tower (South) (Archives)
Phoenix, Arizona, United States

Feed Status: UP
Listen in your browser - HTML5 player(in browser, HTML5)
Click here to listen with your own player(launches your MP3 player)

KPHX 061551Z 10005KT 10SM FEW120 FEW210 FEW240 27/11 A3004 RMK AO2 SLP156 T02670106

KPHX Airport Info (Airnav.com)

KPHX Flight Activity (Flightaware)

Listeners: 1 out of 3020 total

Phoenix Tower (Rwys 7L/25R, 7R/25L): 120.900

KPIT App/Dep #1 (Archives)
Pittsburgh, Pennsylvania, United States

Feed Status: UP
Listen in your browser - HTML5 player(in browser, HTML5)
Click here to listen with your own player(launches your MP3 player)

KPIT 061551Z 26004KT 10SM SCT120 BKN220 18/08 A3006 RMK AO2 SLP186 T01780083

KPIT Airport Info (Airnav.com)

KPIT Flight Activity (Flightaware)

Listeners: 3 out of 3020 total

Pittsburgh Approach: 121.250
Pittsburgh Approach: 123.950
Pittsburgh Approach: 124.150
Pittsburgh Approach: 133.700
Pittsburgh Approach: 120.875
Pittsburgh Departure: 119.350
Pittsburgh Departure: 124.750
Pittsburgh Departure: 125.275

KPIT ATIS (Archives)
Pittsburgh, Pennsylvania, United States

Feed Status: UP
Listen in your browser - HTML5 player(in browser, HTML5)
Click here to listen with your own player(launches your MP3 player)

KPIT 061551Z 26004KT 10SM SCT120 BKN220 18/08 A3006 RMK AO2 SLP186 T01780083

KPIT Airport Info (Airnav.com)

KPIT Flight Activity (Flightaware)

Listeners: 0 out of 3020 total

Pittsburgh ATIS: 127.250

KPIT Del/Gnd/Ramp #1 (Archives)
Pittsburgh, Pennsylvania, United States

Feed Status: UP
Listen in your browser - HTML5 player(in browser, HTML5)
Click here to listen with your own player(launches your MP3 player)

KPIT 061551Z 26004KT 10SM SCT120 BKN220 18/08 A3006 RMK AO2 SLP186 T01780083

KPIT Airport Info (Airnav.com)

KPIT Flight Activity (Flightaware)

Listeners: 0 out of 3020 total

Pittsburgh Clearance Delivery: 126.750
Pittsburgh Ground (North): 127.800
Pittsburgh Ground (South): 121.900
Pittsburgh Ramp (North): 130.775
Pittsburgh Ramp (South): 131.375

KPIT Del/Gnd/Ramp #2 (Archives)
Pittsburgh, Pennsylvania, United States

Feed Status: UP
Listen in your browser - HTML5 player(in browser, HTML5)
Click here to listen with your own player(launches your MP3 player)

KPIT 061551Z 26004KT 10SM SCT120 BKN220 18/08 A3006 RMK AO2 SLP186 T01780083

KPIT Airport Info (Airnav.com)

KPIT Flight Activity (Flightaware)

Listeners: 0 out of 3020 total

Emergency/Guard: 121.500
Pilot-to-ARFF Discrete: 118.700
Pittsburgh Clearance Delivery: 126.750
Pittsburgh Ground (North): 127.800
Pittsburgh Ground (South): 121.900
Pittsburgh Ramp (North): 130.775
Pittsburgh Ramp (South): 131.375

KPIT Tower #1 (Archives)
Pittsburgh, Pennsylvania, United States

Feed Status: UP
Listen in your browser - HTML5 player(in browser, HTML5)
Click here to listen with your own player(launches your MP3 player)

KPIT 061551Z 26004KT 10SM SCT120 BKN220 18/08 A3006 RMK AO2 SLP186 T01780083

KPIT Airport Info (Airnav.com)

KPIT Flight Activity (Flightaware)

Listeners: 0 out of 3020 total

Pittsburgh Tower: 128.300
Pittsburgh Tower: 119.100
Pittsburgh Tower: 135.025

KPIT Tower #2 (Archives)
Pittsburgh, Pennsylvania, United States

Feed Status: UP
Listen in your browser - HTML5 player(in browser, HTML5)
Click here to listen with your own player(launches your MP3 player)

KPIT 061551Z 26004KT 10SM SCT120 BKN220 18/08 A3006 RMK AO2 SLP186 T01780083

KPIT Airport Info (Airnav.com)

KPIT Flight Activity (Flightaware)

Listeners: 1 out of 3020 total

Pittsburgh Tower: 128.300

KPNE App/Dep (Archives)
Philadelphia, Pennsylvania, United States

Feed Status: UP
Listen in your browser - HTML5 player(in browser, HTML5)
Click here to listen with your own player(launches your MP3 player)

KPNE 061554Z VRB04KT 10SM CLR 21/09 A3001 RMK AO2 SLP163 T02110094

KPNE Airport Info (Airnav.com)

KPNE Flight Activity (Flightaware)

Listeners: 0 out of 3020 total

Philly Approach (Yardley Sector): 123.800

KPNE Del/Gnd/Twr/App (Archives)
Philadelphia, Pennsylvania, United States

Feed Status: UP
Listen in your browser - HTML5 player(in browser, HTML5)
Click here to listen with your own player(launches your MP3 player)

KPNE 061554Z VRB04KT 10SM CLR 21/09 A3001 RMK AO2 SLP163 T02110094

KPNE Airport Info (Airnav.com)

KPNE Flight Activity (Flightaware)

Listeners: 0 out of 3020 total

Emergency/Guard: 121.500
Northeast Clearance Delivery: 127.250
Northeast Ground: 121.700
Northeast Tower: 126.900
Philly Approach (Yardley Sector): 123.800

KPTK App/Dep (Archives)
Pontiac, Michigan, United States

Feed Status: UP
Listen in your browser - HTML5 player(in browser, HTML5)
Click here to listen with your own player(launches your MP3 player)

KPTK 061553Z 25006KT 10SM BKN140 BKN230 18/08 A2998 RMK AO2 SLP149 T01830083

KPTK Airport Info (Airnav.com)

KPTK Flight Activity (Flightaware)

Listeners: 0 out of 3020 total

Detroit Approach/Departure: 127.500

Chicago Approach (North) (Archives)
Chicago/Prospect Heights/Wheeling, Illinois, United States

Feed Status: UP
Listen in your browser - HTML5 player(in browser, HTML5)
Click here to listen with your own player(launches your MP3 player)

KUGN 061555Z COR 24005KT 10SM CLR 18/11 A2999 RMK AO2 SLPNO $

KUGN Airport Info (Airnav.com)

KUGN Flight Activity (Flightaware)

Listeners: 0 out of 3020 total

Chicago Approach (North): 120.550

Atlanta Approach (N. Sat) (Archives)
Atlanta, Georgia, United States

Feed Status: UP
Listen in your browser - HTML5 player(in browser, HTML5)
Click here to listen with your own player(launches your MP3 player)

KRYY 061550Z 29004KT 10SM CLR 21/09 A3014 RMK AO2 SLP200 T02110094 $

KRYY Airport Info (Airnav.com)

KRYY Flight Activity (Flightaware)

Listeners: 1 out of 3020 total

Atlanta Approach (North Satellite): 121.000

KSAN Clearance Delivery (Archives)
San Diego, California, United States

Feed Status: UP
Listen in your browser - HTML5 player(in browser, HTML5)
Click here to listen with your own player(launches your MP3 player)

KSAN 061551Z 20005KT 6SM BR OVC009 19/17 A3005 RMK AO2 SLP177 T01890167

KSAN Airport Info (Airnav.com)

KSAN Flight Activity (Flightaware)

Listeners: 1 out of 3020 total

Lindbergh Clearance Delivery: 125.900

KSAN Ground #1 (Archives)
San Diego, California, United States

Feed Status: UP
Listen in your browser - HTML5 player(in browser, HTML5)
Click here to listen with your own player(launches your MP3 player)

KSAN 061551Z 20005KT 6SM BR OVC009 19/17 A3005 RMK AO2 SLP177 T01890167

KSAN Airport Info (Airnav.com)

KSAN Flight Activity (Flightaware)

Listeners: 1 out of 3020 total

Lindbergh Ground: 123.900

KSAN Ramp (Archives)
San Diego, California, United States

Feed Status: UP
Listen in your browser - HTML5 player(in browser, HTML5)
Click here to listen with your own player(launches your MP3 player)

KSAN 061551Z 20005KT 6SM BR OVC009 19/17 A3005 RMK AO2 SLP177 T01890167

KSAN Airport Info (Airnav.com)

KSAN Flight Activity (Flightaware)

Listeners: 1 out of 3020 total

Lindbergh Ramp: 129.775

KSAN Ramp/Del/Gnd/Twr (Archives)
San Diego, California, United States

Feed Status: UP
Listen in your browser - HTML5 player(in browser, HTML5)
Click here to listen with your own player(launches your MP3 player)

KSAN 061551Z 20005KT 6SM BR OVC009 19/17 A3005 RMK AO2 SLP177 T01890167

KSAN Airport Info (Airnav.com)

KSAN Flight Activity (Flightaware)

Listeners: 10 out of 3020 total

Emergency/Guard: 121.500
Lindbergh Clearance Delivery: 125.900
Lindbergh Ground: 123.900
Lindbergh Ramp: 129.775
Lindbergh Tower: 118.300

KSAN SOCAL Dep (South Bay) (Archives)
San Diego, California, United States

Feed Status: UP
Listen in your browser - HTML5 player(in browser, HTML5)
Click here to listen with your own player(launches your MP3 player)

KSAN 061551Z 20005KT 6SM BR OVC009 19/17 A3005 RMK AO2 SLP177 T01890167

KSAN Airport Info (Airnav.com)

KSAN Flight Activity (Flightaware)

Listeners: 0 out of 3020 total

SOCAL Departure (Southbay Sector): 125.150

KSAN Tower #1 (Archives)
San Diego, California, United States

Feed Status: UP
Listen in your browser - HTML5 player(in browser, HTML5)
Click here to listen with your own player(launches your MP3 player)

KSAN 061551Z 20005KT 6SM BR OVC009 19/17 A3005 RMK AO2 SLP177 T01890167

KSAN Airport Info (Airnav.com)

KSAN Flight Activity (Flightaware)

Listeners: 3 out of 3020 total

Lindbergh Tower: 118.300

KSAN Tower #2 (Archives)
San Diego, California, United States

Feed Status: UP
Listen in your browser - HTML5 player(in browser, HTML5)
Click here to listen with your own player(launches your MP3 player)

KSAN 061551Z 20005KT 6SM BR OVC009 19/17 A3005 RMK AO2 SLP177 T01890167

KSAN Airport Info (Airnav.com)

KSAN Flight Activity (Flightaware)

Listeners: 1 out of 3020 total

Lindbergh Tower: 118.300

SOCAL App/Dep (Del Mar VHF) (Archives)
San Diego, California, United States

Feed Status: UP
Listen in your browser - HTML5 player(in browser, HTML5)
Click here to listen with your own player(launches your MP3 player)

KSAN 061551Z 20005KT 6SM BR OVC009 19/17 A3005 RMK AO2 SLP177 T01890167

KSAN Airport Info (Airnav.com)

KSAN Flight Activity (Flightaware)

Listeners: 0 out of 3020 total

SoCal Approach (Del Mar Sector): 127.300

SOCAL App/Dep (East) (Archives)
San Diego, California, United States

Feed Status: UP
Listen in your browser - HTML5 player(in browser, HTML5)
Click here to listen with your own player(launches your MP3 player)

KSAN 061551Z 20005KT 6SM BR OVC009 19/17 A3005 RMK AO2 SLP177 T01890167

KSAN Airport Info (Airnav.com)

KSAN Flight Activity (Flightaware)

Listeners: 0 out of 3020 total

SOCAL Approach/Departure (SAN East): 124.350

SOCAL App/Dep (NW) (Archives)
San Diego, California, United States

Feed Status: UP
Listen in your browser - HTML5 player(in browser, HTML5)
Click here to listen with your own player(launches your MP3 player)

KSAN 061551Z 20005KT 6SM BR OVC009 19/17 A3005 RMK AO2 SLP177 T01890167

KSAN Airport Info (Airnav.com)

KSAN Flight Activity (Flightaware)

Listeners: 0 out of 3020 total

SOCAL Approach/Departure (SAN NW): 125.300

SOCAL App/Dep (West) (Archives)
San Diego, California, United States

Feed Status: UP
Listen in your browser - HTML5 player(in browser, HTML5)
Click here to listen with your own player(launches your MP3 player)

KSAN 061551Z 20005KT 6SM BR OVC009 19/17 A3005 RMK AO2 SLP177 T01890167

KSAN Airport Info (Airnav.com)

KSAN Flight Activity (Flightaware)

Listeners: 1 out of 3020 total

SOCAL Approach/Departure (SAN West): 119.600

KSCK Gnd/Tower/NORCAL App (Archives)
Stockton, California, United States

Feed Status: UP
Listen in your browser - HTML5 player(in browser, HTML5)
Click here to listen with your own player(launches your MP3 player)

KSCK 061555Z 31004KT 10SM CLR 21/14 A3003 RMK AO2 SLP169 T02060139

KSCK Airport Info (Airnav.com)

KSCK Flight Activity (Flightaware)

Listeners: 0 out of 3020 total

NORCAL Approach (at/above 8000'): 124.800
NORCAL Approach (N/SE): 125.100
NORCAL Approach (SE/NW): 123.850
Stockton Ground: 121.900
Stockton Tower: 120.300
Stockton Unicom: 122.950

KSEA Air-to-Air (Archives)
Seattle, Washington, United States

Feed Status: UP
Listen in your browser - HTML5 player(in browser, HTML5)
Click here to listen with your own player(launches your MP3 player)

KSEA 061617Z 02005KT 1 1/4SM BR BKN002 OVC250 13/13 A3018 RMK AO2 TWR VIS 1 1/2 T01330128

KSEA Airport Info (Airnav.com)

KSEA Flight Activity (Flightaware)

Listeners: 0 out of 3020 total

Seattle Area Air-to-Air: 122.750

KSEA App/CHINS STAR (Archives)
Seattle, Washington, United States

Feed Status: UP
Listen in your browser - HTML5 player(in browser, HTML5)
Click here to listen with your own player(launches your MP3 player)

KSEA 061617Z 02005KT 1 1/4SM BR BKN002 OVC250 13/13 A3018 RMK AO2 TWR VIS 1 1/2 T01330128

KSEA Airport Info (Airnav.com)

KSEA Flight Activity (Flightaware)

Listeners: 0 out of 3020 total

Seattle Approach (CHINS Arrival): 123.900

KSEA Approach (NW) (Archives)
Seattle, Washington, United States

Feed Status: UP
Listen in your browser - HTML5 player(in browser, HTML5)
Click here to listen with your own player(launches your MP3 player)

KSEA 061617Z 02005KT 1 1/4SM BR BKN002 OVC250 13/13 A3018 RMK AO2 TWR VIS 1 1/2 T01330128

KSEA Airport Info (Airnav.com)

KSEA Flight Activity (Flightaware)

Listeners: 0 out of 3020 total

Seattle Approach (NW): 120.400
Seattle Approach (West): 120.100

KSEA Approach (PAE) (Archives)
Seattle, Washington, United States

Feed Status: UP
Listen in your browser - HTML5 player(in browser, HTML5)
Click here to listen with your own player(launches your MP3 player)

KSEA 061617Z 02005KT 1 1/4SM BR BKN002 OVC250 13/13 A3018 RMK AO2 TWR VIS 1 1/2 T01330128

KSEA Airport Info (Airnav.com)

KSEA Flight Activity (Flightaware)

Listeners: 0 out of 3020 total

Seattle Departure: 119.200

KSEA Approach (South) (Archives)
Seattle, Washington, United States

Feed Status: UP
Listen in your browser - HTML5 player(in browser, HTML5)
Click here to listen with your own player(launches your MP3 player)

KSEA 061617Z 02005KT 1 1/4SM BR BKN002 OVC250 13/13 A3018 RMK AO2 TWR VIS 1 1/2 T01330128

KSEA Airport Info (Airnav.com)

KSEA Flight Activity (Flightaware)

Listeners: 0 out of 3020 total

Seattle Approach (South): 126.500

KSEA Approach (TBD) (Archives)
Seattle, Washington, United States

Feed Status: UP
Listen in your browser - HTML5 player(in browser, HTML5)
Click here to listen with your own player(launches your MP3 player)

KSEA 061617Z 02005KT 1 1/4SM BR BKN002 OVC250 13/13 A3018 RMK AO2 TWR VIS 1 1/2 T01330128

KSEA Airport Info (Airnav.com)

KSEA Flight Activity (Flightaware)

Listeners: 0 out of 3020 total

Seattle Approach: 125.900

KSEA Approach (West) (Archives)
Seattle, Washington, United States

Feed Status: UP
Listen in your browser - HTML5 player(in browser, HTML5)
Click here to listen with your own player(launches your MP3 player)

KSEA 061617Z 02005KT 1 1/4SM BR BKN002 OVC250 13/13 A3018 RMK AO2 TWR VIS 1 1/2 T01330128

KSEA Airport Info (Airnav.com)

KSEA Flight Activity (Flightaware)

Listeners: 0 out of 3020 total


KSEA Approach (West/Arrival) (Archives)
Seattle, Washington, United States

Feed Status: UP
Listen in your browser - HTML5 player(in browser, HTML5)
Click here to listen with your own player(launches your MP3 player)

KSEA 061617Z 02005KT 1 1/4SM BR BKN002 OVC250 13/13 A3018 RMK AO2 TWR VIS 1 1/2 T01330128

KSEA Airport Info (Airnav.com)

KSEA Flight Activity (Flightaware)

Listeners: 0 out of 3020 total

Seattle Approach (West Arrivval): 125.600

KSEA ATIS (Archives)
Seattle, Washington, United States

Feed Status: UP
Listen in your browser - HTML5 player(in browser, HTML5)
Click here to listen with your own player(launches your MP3 player)

KSEA 061617Z 02005KT 1 1/4SM BR BKN002 OVC250 13/13 A3018 RMK AO2 TWR VIS 1 1/2 T01330128

KSEA Airport Info (Airnav.com)

KSEA Flight Activity (Flightaware)

Listeners: 0 out of 3020 total

Seattle ATIS: 118.000

KSEA FSS (122.2) (Archives)
Seattle, Washington, United States

Feed Status: UP
Listen in your browser - HTML5 player(in browser, HTML5)
Click here to listen with your own player(launches your MP3 player)

KSEA 061617Z 02005KT 1 1/4SM BR BKN002 OVC250 13/13 A3018 RMK AO2 TWR VIS 1 1/2 T01330128

KSEA Airport Info (Airnav.com)

KSEA Flight Activity (Flightaware)

Listeners: 0 out of 3020 total

Flight Service: 122.200

KSEA FSS (122.5) (Archives)
Seattle, Washington, United States

Feed Status: UP
Listen in your browser - HTML5 player(in browser, HTML5)
Click here to listen with your own player(launches your MP3 player)

KSEA 061617Z 02005KT 1 1/4SM BR BKN002 OVC250 13/13 A3018 RMK AO2 TWR VIS 1 1/2 T01330128

KSEA Airport Info (Airnav.com)

KSEA Flight Activity (Flightaware)

Listeners: 0 out of 3020 total

Flight Service: 122.500

KSEA Ground (Archives)
Seattle, Washington, United States

Feed Status: UP
Listen in your browser - HTML5 player(in browser, HTML5)
Click here to listen with your own player(launches your MP3 player)

KSEA 061617Z 02005KT 1 1/4SM BR BKN002 OVC250 13/13 A3018 RMK AO2 TWR VIS 1 1/2 T01330128

KSEA Airport Info (Airnav.com)

KSEA Flight Activity (Flightaware)

Listeners: 0 out of 3020 total

Seattle Ground: 121.700

KSEA Guard (Archives)
Seattle, Washington, United States

Feed Status: UP
Listen in your browser - HTML5 player(in browser, HTML5)
Click here to listen with your own player(launches your MP3 player)

KSEA 061617Z 02005KT 1 1/4SM BR BKN002 OVC250 13/13 A3018 RMK AO2 TWR VIS 1 1/2 T01330128

KSEA Airport Info (Airnav.com)

KSEA Flight Activity (Flightaware)

Listeners: 0 out of 3020 total

Emergency/Guard: 121.500

KSEA Ramp (Hold) (Archives)
Seattle, Washington, United States

Feed Status: UP
Listen in your browser - HTML5 player(in browser, HTML5)
Click here to listen with your own player(launches your MP3 player)

KSEA 061617Z 02005KT 1 1/4SM BR BKN002 OVC250 13/13 A3018 RMK AO2 TWR VIS 1 1/2 T01330128

KSEA Airport Info (Airnav.com)

KSEA Flight Activity (Flightaware)

Listeners: 0 out of 3020 total

Seattle Ramp (Hold): 126.250

KSEA Ramp (North) (Archives)
Seattle, Washington, United States

Feed Status: UP
Listen in your browser - HTML5 player(in browser, HTML5)
Click here to listen with your own player(launches your MP3 player)

KSEA 061617Z 02005KT 1 1/4SM BR BKN002 OVC250 13/13 A3018 RMK AO2 TWR VIS 1 1/2 T01330128

KSEA Airport Info (Airnav.com)

KSEA Flight Activity (Flightaware)

Listeners: 0 out of 3020 total

Seattle Ramp (North): 126.875

KSEA Ramp (South) (Archives)
Seattle, Washington, United States

Feed Status: UP
Listen in your browser - HTML5 player(in browser, HTML5)
Click here to listen with your own player(launches your MP3 player)

KSEA 061617Z 02005KT 1 1/4SM BR BKN002 OVC250 13/13 A3018 RMK AO2 TWR VIS 1 1/2 T01330128

KSEA Airport Info (Airnav.com)

KSEA Flight Activity (Flightaware)

Listeners: 0 out of 3020 total

Seattle Ramp (South): 122.275

KSEA Tower (16L/34R,16C/34C) #2 (Archives)
Seattle, Washington, United States

Feed Status: UP
Listen in your browser - HTML5 player(in browser, HTML5)
Click here to listen with your own player(launches your MP3 player)

KSEA 061617Z 02005KT 1 1/4SM BR BKN002 OVC250 13/13 A3018 RMK AO2 TWR VIS 1 1/2 T01330128

KSEA Airport Info (Airnav.com)

KSEA Flight Activity (Flightaware)

Listeners: 6 out of 3020 total

Seattle Tower (East): 119.900

KSEA Tower (16R/34L) #2 (Archives)
Seattle, Washington, United States

Feed Status: UP
Listen in your browser - HTML5 player(in browser, HTML5)
Click here to listen with your own player(launches your MP3 player)

KSEA 061617Z 02005KT 1 1/4SM BR BKN002 OVC250 13/13 A3018 RMK AO2 TWR VIS 1 1/2 T01330128

KSEA Airport Info (Airnav.com)

KSEA Flight Activity (Flightaware)

Listeners: 0 out of 3020 total

Seattle Tower (West): 120.950

KMCO App/Dep (North Satellite) (Archives)
Orlando, Florida, United States

Feed Status: UP
Listen in your browser - HTML5 player(in browser, HTML5)
Click here to listen with your own player(launches your MP3 player)

KORL 061553Z 06006KT 10SM CLR 27/13 A3011 RMK AO2 SLP199 T02720133 $

KORL Airport Info (Airnav.com)

KORL Flight Activity (Flightaware)

Listeners: 0 out of 3020 total

Orlando Approach (North Satellite): 135.300

KSFO Company Channels (Archives)
San Francisco, California, United States

Feed Status: UP
Listen in your browser - HTML5 player(in browser, HTML5)
Click here to listen with your own player(launches your MP3 player)

KSFO 061556Z 30004KT 10SM FEW005 BKN200 14/12 A3006 RMK AO2 SLP180 T01440122

KSFO Airport Info (Airnav.com)

KSFO Flight Activity (Flightaware)

Listeners: 0 out of 3020 total


KSFO D-ATIS (Archives)
San Francisco, California, United States

Feed Status: UP
Listen in your browser - HTML5 player(in browser, HTML5)
Click here to listen with your own player(launches your MP3 player)

KSFO 061556Z 30004KT 10SM FEW005 BKN200 14/12 A3006 RMK AO2 SLP180 T01440122

KSFO Airport Info (Airnav.com)

KSFO Flight Activity (Flightaware)

Listeners: 1 out of 3020 total

KSFO Digital ATIS: 118.850

KSFO Del/Gnd (Alt)/Twr (Alt) (Archives)
San Francisco, California, United States

Feed Status: UP
Listen in your browser - HTML5 player(in browser, HTML5)
Click here to listen with your own player(launches your MP3 player)

KSFO 061556Z 30004KT 10SM FEW005 BKN200 14/12 A3006 RMK AO2 SLP180 T01440122

KSFO Airport Info (Airnav.com)

KSFO Flight Activity (Flightaware)

Listeners: 2 out of 3020 total

San Francisco Clearance Delivery: 118.200
San Francisco Ground/Gate Hold: 124.250
San Francisco Tower (alternate/backup): 128.650

KSFO Dep 120.9/127.0 (Archives)
San Francisco, California, United States

Feed Status: UP
Listen in your browser - HTML5 player(in browser, HTML5)
Click here to listen with your own player(launches your MP3 player)

KSFO 061556Z 30004KT 10SM FEW005 BKN200 14/12 A3006 RMK AO2 SLP180 T01440122

KSFO Airport Info (Airnav.com)

KSFO Flight Activity (Flightaware)

Listeners: 4 out of 3020 total

NORCAL Approach: 127.000
NORCAL Departure: 120.900

KSFO Dep 135.1 (Archives)
San Francisco, California, United States

Feed Status: UP
Listen in your browser - HTML5 player(in browser, HTML5)
Click here to listen with your own player(launches your MP3 player)

KSFO 061556Z 30004KT 10SM FEW005 BKN200 14/12 A3006 RMK AO2 SLP180 T01440122

KSFO Airport Info (Airnav.com)

KSFO Flight Activity (Flightaware)

Listeners: 2 out of 3020 total

NORCAL Departure: 127.975
NORCAL Departure: 135.100

KSFO Ground (Archives)
San Francisco, California, United States

Feed Status: UP
Listen in your browser - HTML5 player(in browser, HTML5)
Click here to listen with your own player(launches your MP3 player)

KSFO 061556Z 30004KT 10SM FEW005 BKN200 14/12 A3006 RMK AO2 SLP180 T01440122

KSFO Airport Info (Airnav.com)

KSFO Flight Activity (Flightaware)

Listeners: 4 out of 3020 total

San Francisco Ground: 121.800

KSFO Ground/Tower (Archives)
San Francisco, California, United States

Feed Status: UP
Listen in your browser - HTML5 player(in browser, HTML5)
Click here to listen with your own player(launches your MP3 player)

KSFO 061556Z 30004KT 10SM FEW005 BKN200 14/12 A3006 RMK AO2 SLP180 T01440122

KSFO Airport Info (Airnav.com)

KSFO Flight Activity (Flightaware)

Listeners: 1 out of 3020 total

San Francisco Ground: 121.800
San Francisco Tower: 120.500

KSFO NORCAL App 28L/R (Archives)
San Francisco, California, United States

Feed Status: UP
Listen in your browser - HTML5 player(in browser, HTML5)
Click here to listen with your own player(launches your MP3 player)

KSFO 061556Z 30004KT 10SM FEW005 BKN200 14/12 A3006 RMK AO2 SLP180 T01440122

KSFO Airport Info (Airnav.com)

KSFO Flight Activity (Flightaware)

Listeners: 4 out of 3020 total

NORCAL Approach (Foster Sector, SFO 28R Final): 120.350
NORCAL Approach (Woodside Sector, SFO 28L Final): 135.650

KSFO NORCAL App 28L/R + BSR/MOD STARs (Archives)
San Francisco, California, United States

Feed Status: UP
Listen in your browser - HTML5 player(in browser, HTML5)
Click here to listen with your own player(launches your MP3 player)

KSFO 061556Z 30004KT 10SM FEW005 BKN200 14/12 A3006 RMK AO2 SLP180 T01440122

KSFO Airport Info (Airnav.com)

KSFO Flight Activity (Flightaware)

Listeners: 6 out of 3020 total

NORCAL Approach (Boulder Sector, BSR2 STAR): 133.950
NORCAL Approach (Foster Sector, SFO 28R Final): 120.350
NORCAL Approach (Niles Sector, MOD2 STAR): 128.325
NORCAL Approach (Woodside Sector, SFO 28L Final): 135.650

KSFO NORCAL BSR2/MOD2 Arrivals (Archives)
San Francisco, California, United States

Feed Status: UP
Listen in your browser - HTML5 player(in browser, HTML5)
Click here to listen with your own player(launches your MP3 player)

KSFO 061556Z 30004KT 10SM FEW005 BKN200 14/12 A3006 RMK AO2 SLP180 T01440122

KSFO Airport Info (Airnav.com)

KSFO Flight Activity (Flightaware)

Listeners: 1 out of 3020 total

NORCAL Approach (Boulder Sector, BSR2 STAR): 133.950
NORCAL Approach (Niles Sector, MOD2 STAR): 128.325

KSFO Ramp (Archives)
San Francisco, California, United States

Feed Status: UP
Listen in your browser - HTML5 player(in browser, HTML5)
Click here to listen with your own player(launches your MP3 player)

KSFO 061556Z 30004KT 10SM FEW005 BKN200 14/12 A3006 RMK AO2 SLP180 T01440122

KSFO Airport Info (Airnav.com)

KSFO Flight Activity (Flightaware)

Listeners: 2 out of 3020 total

KSFO Ramp A (East): 127.575
KSFO Ramp G (West): 119.225
KSFO Shadow Ramp: 131.000

KSFO Tower (Archives)
San Francisco, California, United States

Feed Status: UP
Listen in your browser - HTML5 player(in browser, HTML5)
Click here to listen with your own player(launches your MP3 player)

KSFO 061556Z 30004KT 10SM FEW005 BKN200 14/12 A3006 RMK AO2 SLP180 T01440122

KSFO Airport Info (Airnav.com)

KSFO Flight Activity (Flightaware)

Listeners: 7 out of 3020 total

San Francisco Tower: 120.500
San Francisco Tower (secondary): 128.650

KSFO Tower/Ground (Archives)
San Francisco, California, United States

Feed Status: UP
Listen in your browser - HTML5 player(in browser, HTML5)
Click here to listen with your own player(launches your MP3 player)

KSFO 061556Z 30004KT 10SM FEW005 BKN200 14/12 A3006 RMK AO2 SLP180 T01440122

KSFO Airport Info (Airnav.com)

KSFO Flight Activity (Flightaware)

Listeners: 3 out of 3020 total

San Francisco Ground: 121.800
San Francisco Ground/Gate Hold: 124.250
San Francisco Tower: 120.500
San Francisco Tower (secondary): 128.650

SFO Fleet Week
San Francisco, California, United States

Feed Status: DOWN
Offline since: 2022-10-02 01:03:22 UTC


KSTL Approach (Archives)
St. Louis, Missouri, United States

Feed Status: UP
Listen in your browser - HTML5 player(in browser, HTML5)
Click here to listen with your own player(launches your MP3 player)

KSTL 061551Z 33008KT 10SM CLR 22/11 A3009 RMK AO2 SLP181 T02170111

KSTL Airport Info (Airnav.com)

KSTL Flight Activity (Flightaware)

Listeners: 0 out of 3020 total

St. Louis Approach: 119.150
St. Louis Approach: 132.125
St. Louis Approach: 128.100
St. Louis Approach: 126.550
St. Louis Approach: 126.500
St. Louis Approach: 124.250
St. Louis Approach: 124.200
St. Louis Approach: 123.700
St. Louis Approach: 121.025
St. Louis Approach: 125.200

KSTL Del/Gnd/Twr (Archives)
St. Louis, Missouri, United States

Feed Status: UP
Listen in your browser - HTML5 player(in browser, HTML5)
Click here to listen with your own player(launches your MP3 player)

KSTL 061551Z 33008KT 10SM CLR 22/11 A3009 RMK AO2 SLP181 T02170111

KSTL Airport Info (Airnav.com)

KSTL Flight Activity (Flightaware)

Listeners: 0 out of 3020 total

St. Louis Clearance Delivery: 119.500
St. Louis Clearance Delivery: 363.100
St. Louis Clearance Metering: 121.075
St. Louis Clearance Metering: 127.550
St. Louis Clearance Metering: 360.200
St. Louis Ground: 121.900
St. Louis Ground: 118.925
St. Louis Tower: 118.500
St. Louis Tower: 120.050
St. Louis Tower: 132.475
St. Louis Tower: 239.275
St. Louis Tower: 257.700
St. Louis Tower: 284.600

NY Approach (Liberty/Catskills)
Newburgh, New York, United States

Feed Status: DOWN
Offline since: 2022-10-05 07:00:40 UTC

New York Approach (Liberty Area/Catskills Sector): 132.750

KTPA App/Dep (135.5) (Archives)
Tampa, Florida, United States

Feed Status: UP
Listen in your browser - HTML5 player(in browser, HTML5)
Click here to listen with your own player(launches your MP3 player)

KTPA 061553Z COR 05008KT 10SM SCT040 BKN060 28/17 A3011 RMK AO2 SLP194 T02780172

KTPA Airport Info (Airnav.com)

KTPA Flight Activity (Flightaware)

Listeners: 0 out of 3020 total

Tamp Approach/Departure (East of Tampa 4500'-12000'): 135.500

KTPA App/Dep (East Low) (Archives)
Tampa, Florida, United States

Feed Status: UP
Listen in your browser - HTML5 player(in browser, HTML5)
Click here to listen with your own player(launches your MP3 player)

KLAL 061550Z 08005KT 10SM SCT040 27/16 A3011

KLAL Airport Info (Airnav.com)

KLAL Flight Activity (Flightaware)

Listeners: 0 out of 3020 total

Tampa Approach (East of TPA 4000'/below): 119.900
Tampa Approach (Lakeland Area): 120.650

KTPA App/Dep 118.8 #1 (Archives)
Tampa, Florida, United States

Feed Status: UP
Listen in your browser - HTML5 player(in browser, HTML5)
Click here to listen with your own player(launches your MP3 player)

KTPA 061553Z COR 05008KT 10SM SCT040 BKN060 28/17 A3011 RMK AO2 SLP194 T02780172

KTPA Airport Info (Airnav.com)

KTPA Flight Activity (Flightaware)

Listeners: 0 out of 3020 total

Tampa Approach/Departure: 118.800

KTPA Ground (Archives)
Tampa, Florida, United States

Feed Status: UP
Listen in your browser - HTML5 player(in browser, HTML5)
Click here to listen with your own player(launches your MP3 player)

KTPA 061553Z COR 05008KT 10SM SCT040 BKN060 28/17 A3011 RMK AO2 SLP194 T02780172

KTPA Airport Info (Airnav.com)

KTPA Flight Activity (Flightaware)

Listeners: 0 out of 3020 total

Tampa Ground: 121.700

KTPA Tower #1 (Archives)
Tampa, Florida, United States

Feed Status: UP
Listen in your browser - HTML5 player(in browser, HTML5)
Click here to listen with your own player(launches your MP3 player)

KTPA 061553Z COR 05008KT 10SM SCT040 BKN060 28/17 A3011 RMK AO2 SLP194 T02780172

KTPA Airport Info (Airnav.com)

KTPA Flight Activity (Flightaware)

Listeners: 0 out of 3020 total

Tampa Tower: 119.500

Chicago Approach (North) (Archives)
Chicago/Waukegan, Illinois, United States

Feed Status: UP
Listen in your browser - HTML5 player(in browser, HTML5)
Click here to listen with your own player(launches your MP3 player)

KUGN 061555Z COR 24005KT 10SM CLR 18/11 A2999 RMK AO2 SLPNO $

KUGN Airport Info (Airnav.com)

KUGN Flight Activity (Flightaware)

Listeners: 0 out of 3020 total

Chicago Approach (North): 120.550

KWHP/KVNY/KBUR App/Dep (Archives)
Van Nuys, California, United States

Feed Status: UP
Listen in your browser - HTML5 player(in browser, HTML5)
Click here to listen with your own player(launches your MP3 player)



KWHP Airport Info (Airnav.com)

KWHP Flight Activity (Flightaware)

Listeners: 2 out of 3020 total

SOCAL App (Glendale Sector): 135.050
SOCAL App (Valley Sector): 124.600
SOCAL Approach (Fillmore Sector): 120.400
SOCAL Approach (Moorpark Sector): 128.750
SOCAL Approach (Woodland Sector): 134.200

KWHP/KVNY/KBUR App/Dep (Archives)
Los Angeles, California, United States

Feed Status: UP
Listen in your browser - HTML5 player(in browser, HTML5)
Click here to listen with your own player(launches your MP3 player)



KWHP Airport Info (Airnav.com)

KWHP Flight Activity (Flightaware)

Listeners: 2 out of 3020 total

SOCAL App (Glendale Sector): 135.050
SOCAL App (Valley Sector): 124.600
SOCAL Approach (Fillmore Sector): 120.400
SOCAL Approach (Moorpark Sector): 128.750
SOCAL Approach (Woodland Sector): 134.200

L70 CTAF/Misc (Archives)
Agua Dulce, California, United States

Feed Status: UP
Listen in your browser - HTML5 player(in browser, HTML5)
Click here to listen with your own player(launches your MP3 player)

KVNY 061551Z 00000KT 4SM HZ SCT009 21/17 A3003 RMK AO2 SLP161 T02110167

KVNY Airport Info (Airnav.com)

KVNY Flight Activity (Flightaware)

Listeners: 0 out of 3020 total

Agua Dulce CTAF: 122.800
Emergency/Guard: 121.500
LA County Fire Air/Ground : 131.425
Practice Areas: 122.775
SOCAL Helicopters: 123.025

PHNL ARFF/Emergency (Archives)
Honolulu, Hawaii, United States

Feed Status: UP
Listen in your browser - HTML5 player(in browser, HTML5)
Click here to listen with your own player(launches your MP3 player)

PHNL 061553Z 32005KT 10SM FEW020 SCT055 24/21 A2993 RMK AO2 SLP135 T02390206 $

PHNL Airport Info (Airnav.com)

PHNL Flight Activity (Flightaware)

Listeners: 1 out of 3020 total

Honolulu ARFF/Emergency: 121.100

PHNL ATIS (Archives)
Honolulu, Hawaii, United States

Feed Status: UP
Listen in your browser - HTML5 player(in browser, HTML5)
Click here to listen with your own player(launches your MP3 player)

PHNL 061553Z 32005KT 10SM FEW020 SCT055 24/21 A2993 RMK AO2 SLP135 T02390206 $

PHNL Airport Info (Airnav.com)

PHNL Flight Activity (Flightaware)

Listeners: 1 out of 3020 total

Honolulu ATIS: 127.900

PHNL Clearance Delivery (Archives)
Honolulu, Hawaii, United States

Feed Status: UP
Listen in your browser - HTML5 player(in browser, HTML5)
Click here to listen with your own player(launches your MP3 player)

PHNL 061553Z 32005KT 10SM FEW020 SCT055 24/21 A2993 RMK AO2 SLP135 T02390206 $

PHNL Airport Info (Airnav.com)

PHNL Flight Activity (Flightaware)

Listeners: 1 out of 3020 total

Honolulu Clearance Delivery: 121.400

PHNL Del/Gnd/Ramp (Archives)
Honolulu, Hawaii, United States

Feed Status: UP
Listen in your browser - HTML5 player(in browser, HTML5)
Click here to listen with your own player(launches your MP3 player)

PHNL 061553Z 32005KT 10SM FEW020 SCT055 24/21 A2993 RMK AO2 SLP135 T02390206 $

PHNL Airport Info (Airnav.com)

PHNL Flight Activity (Flightaware)

Listeners: 3 out of 3020 total

Honolulu ARFF/Emergency: 121.100
Honolulu Clearance Delivery: 121.400
Honolulu Ground: 121.900
Honolulu Ramp Advisory: 121.800

PHNL Emergency/Guard (Archives)
Honolulu, Hawaii, United States

Feed Status: UP
Listen in your browser - HTML5 player(in browser, HTML5)
Click here to listen with your own player(launches your MP3 player)

PHNL 061553Z 32005KT 10SM FEW020 SCT055 24/21 A2993 RMK AO2 SLP135 T02390206 $

PHNL Airport Info (Airnav.com)

PHNL Flight Activity (Flightaware)

Listeners: 1 out of 3020 total

Emergency/Guard: 121.500

PHNL Ground (Archives)
Honolulu, Hawaii, United States

Feed Status: UP
Listen in your browser - HTML5 player(in browser, HTML5)
Click here to listen with your own player(launches your MP3 player)

PHNL 061553Z 32005KT 10SM FEW020 SCT055 24/21 A2993 RMK AO2 SLP135 T02390206 $

PHNL Airport Info (Airnav.com)

PHNL Flight Activity (Flightaware)

Listeners: 1 out of 3020 total

Honolulu Ground: 121.900

PHNL HCF App/Dep (Archives)
Honolulu, Hawaii, United States

Feed Status: UP
Listen in your browser - HTML5 player(in browser, HTML5)
Click here to listen with your own player(launches your MP3 player)

PHNL 061553Z 32005KT 10SM FEW020 SCT055 24/21 A2993 RMK AO2 SLP135 T02390206 $

PHNL Airport Info (Airnav.com)

PHNL Flight Activity (Flightaware)

Listeners: 3 out of 3020 total

HCF Approach/Departure: 119.100
HCF Approach/Departure (East): 124.800
HCF Approach/Departure (West): 118.300

PHNL HCF App/Dep (119.1) (Archives)
Honolulu, Hawaii, United States

Feed Status: UP
Listen in your browser - HTML5 player(in browser, HTML5)
Click here to listen with your own player(launches your MP3 player)

PHNL 061553Z 32005KT 10SM FEW020 SCT055 24/21 A2993 RMK AO2 SLP135 T02390206 $

PHNL Airport Info (Airnav.com)

PHNL Flight Activity (Flightaware)

Listeners: 1 out of 3020 total

HCF Approach/Departure: 119.100

PHNL HCF App/Dep (East) (Archives)
Honolulu, Hawaii, United States

Feed Status: UP
Listen in your browser - HTML5 player(in browser, HTML5)
Click here to listen with your own player(launches your MP3 player)

PHNL 061553Z 32005KT 10SM FEW020 SCT055 24/21 A2993 RMK AO2 SLP135 T02390206 $

PHNL Airport Info (Airnav.com)

PHNL Flight Activity (Flightaware)

Listeners: 2 out of 3020 total

HCF Approach/Departure (East): 124.800

PHNL HCF App/Dep (West) (Archives)
Honolulu, Hawaii, United States

Feed Status: UP
Listen in your browser - HTML5 player(in browser, HTML5)
Click here to listen with your own player(launches your MP3 player)

PHNL 061553Z 32005KT 10SM FEW020 SCT055 24/21 A2993 RMK AO2 SLP135 T02390206 $

PHNL Airport Info (Airnav.com)

PHNL Flight Activity (Flightaware)

Listeners: 1 out of 3020 total

HCF Approach/Departure (West): 118.300

PHNL Ramp Advisory (Archives)
Honolulu, Hawaii, United States

Feed Status: UP
Listen in your browser - HTML5 player(in browser, HTML5)
Click here to listen with your own player(launches your MP3 player)

PHNL 061553Z 32005KT 10SM FEW020 SCT055 24/21 A2993 RMK AO2 SLP135 T02390206 $

PHNL Airport Info (Airnav.com)

PHNL Flight Activity (Flightaware)

Listeners: 1 out of 3020 total

Honolulu Ramp Advisory: 121.800

PHNL Tower (Both) (Archives)
Honolulu, Hawaii, United States

Feed Status: UP
Listen in your browser - HTML5 player(in browser, HTML5)
Click here to listen with your own player(launches your MP3 player)

PHNL 061553Z 32005KT 10SM FEW020 SCT055 24/21 A2993 RMK AO2 SLP135 T02390206 $

PHNL Airport Info (Airnav.com)

PHNL Flight Activity (Flightaware)

Listeners: 2 out of 3020 total

Honolulu Tower (Primary): 118.100
Honolulu Tower (Rwy 08R/26L): 123.900

PHNL Tower (Primary) (Archives)
Honolulu, Hawaii, United States

Feed Status: UP
Listen in your browser - HTML5 player(in browser, HTML5)
Click here to listen with your own player(launches your MP3 player)

PHNL 061553Z 32005KT 10SM FEW020 SCT055 24/21 A2993 RMK AO2 SLP135 T02390206 $

PHNL Airport Info (Airnav.com)

PHNL Flight Activity (Flightaware)

Listeners: 1 out of 3020 total

Honolulu Tower (Primary): 118.100

PHNL Tower (Rwy 08R/26L) (Archives)
Honolulu, Hawaii, United States

Feed Status: UP
Listen in your browser - HTML5 player(in browser, HTML5)
Click here to listen with your own player(launches your MP3 player)

PHNL 061553Z 32005KT 10SM FEW020 SCT055 24/21 A2993 RMK AO2 SLP135 T02390206 $

PHNL Airport Info (Airnav.com)

PHNL Flight Activity (Flightaware)

Listeners: 1 out of 3020 total

Honolulu Tower (Rwy 08R/26L): 123.900